[[{"header":{"parameterUnit":"m.s-1","parameterCategory":1,"la1":30.6,"la2":29.2853,"lo1":-89.7004,"lo2":-87.6739,"dy":0.0162,"dx":0.0183,"nx":112,"ny":82,"refTime":"2023-06-16T06:00:00:Z","depth":0,"parameterNumber":2,"parameterNumberName":"U-component_of_WINDS"},"data":[0.0,0.0,0.0,0.0,0.0,0.0,0.0,0.0,0.0,0.0,0.0,0.0,0.0,0.0,0.0,0.0,0.0,0.0,0.0,0.0,0.0,0.0,0.0,0.0,0.0,0.0,0.0,0.0,0.0,0.0,0.0,0.0,0.0,0.0,0.0,0.0,0.0,0.0,0.0,0.0,0.0,0.0,0.0,0.0,0.0,0.0,0.0,0.0,0.0,0.0,0.0,0.0,0.0,0.0,0.0,0.0,0.0,0.0,0.0,0.0,0.0,0.0,0.0,0.0,0.0,0.0,0.0,0.0,0.0,0.0,0.0,0.0,0.0,0.0,0.0,0.0,0.0,0.0,0.0,0.0,0.0,0.0,0.0,0.0,0.0,0.0,0.0,0.0,0.0,0.0,2.4628,2.4787,2.6603,2.8347,2.9443,2.9534,2.8712,2.6648,0.0,0.0,0.0,0.0,0.0,0.0,0.0,0.0,0.0,0.0,0.0,0.0,0.0,0.0,0.0,0.0,0.0,0.0,0.0,0.0,0.0,0.0,0.0,0.0,0.0,0.0,0.0,0.0,0.0,0.0,0.0,0.0,0.0,0.0,0.0,0.0,0.0,0.0,0.0,0.0,0.0,0.0,0.0,0.0,0.0,0.0,0.0,0.0,0.0,0.0,0.0,0.0,0.0,0.0,0.0,0.0,0.0,0.0,0.0,0.0,0.0,0.0,0.0,0.0,0.0,0.0,0.0,0.0,0.0,0.0,0.0,0.0,0.0,0.0,0.0,0.0,0.0,0.0,0.0,0.0,0.0,0.0,0.0,0.0,0.0,0.0,0.0,0.0,0.0,0.0,0.0,0.0,0.0,0.0,0.0,0.0,0.0,0.0,0.0,0.0,0.0,0.0,0.0,0.0,2.3714,2.4702,2.5964,2.7209,2.8267,2.8347,2.7855,2.6554,0.0,0.0,0.0,0.0,0.0,0.0,0.0,0.0,0.0,0.0,0.0,0.0,0.0,0.0,0.0,0.0,0.0,0.0,0.0,0.0,0.0,0.0,0.0,0.0,0.0,0.0,0.0,0.0,0.0,0.0,0.0,0.0,0.0,0.0,0.0,0.0,0.0,0.0,0.0,0.0,0.0,0.0,0.0,0.0,0.0,0.0,0.0,0.0,0.0,0.0,0.0,0.0,0.0,0.0,0.0,0.0,0.0,0.0,0.0,0.0,0.0,0.0,0.0,0.0,0.0,0.0,0.0,0.0,0.0,0.0,0.0,0.0,0.0,0.0,0.0,0.0,0.0,0.0,0.0,0.0,0.0,0.0,0.0,0.0,0.0,0.0,0.0,0.0,0.0,0.0,0.0,0.0,0.0,0.0,0.0,0.0,0.0,0.0,0.0,0.0,0.0,0.0,0.0,2.2677,2.3551,2.4713,2.5294,2.6047,2.7128,2.7763,2.7348,2.5714,2.6141,0.0,0.0,0.0,0.0,0.0,0.0,0.0,0.0,0.0,0.0,0.0,0.0,0.0,0.0,0.0,0.0,0.0,0.0,0.0,0.0,0.0,0.0,0.0,0.0,0.0,0.0,0.0,0.0,0.0,0.0,0.0,0.0,0.0,0.0,0.0,0.0,0.0,0.0,0.0,0.0,0.0,0.0,0.0,0.0,0.0,0.0,0.0,0.0,0.0,0.0,0.0,0.0,0.0,0.0,0.0,0.0,0.0,0.0,0.0,0.0,0.0,0.0,0.0,0.0,0.0,0.0,0.0,0.0,0.0,0.0,0.0,0.0,0.0,0.0,0.0,0.0,0.0,0.0,0.0,0.0,0.0,0.0,0.0,0.0,0.0,0.0,0.0,0.0,0.0,0.0,0.0,0.0,0.0,0.0,0.0,0.0,0.0,0.0,0.0,0.0,0.0,0.0,2.2306,2.3464,2.4296,2.4372,2.4882,2.5964,2.7116,2.686,2.4946,2.5891,0.0,0.0,0.0,0.0,0.0,0.0,0.0,0.0,0.0,0.0,0.0,0.0,0.0,0.0,0.0,0.0,0.0,0.0,0.0,0.0,0.0,0.0,0.0,0.0,0.0,0.0,0.0,0.0,0.0,0.0,0.0,0.0,0.0,0.0,0.0,0.0,0.0,0.0,0.0,0.0,0.0,0.0,0.0,0.0,0.0,0.0,0.0,0.0,0.0,0.0,0.0,0.0,0.0,0.0,0.0,0.0,0.0,0.0,0.0,0.0,0.0,0.0,0.0,0.0,0.0,0.0,0.0,0.0,0.0,0.0,0.0,0.0,0.0,0.0,0.0,0.0,0.0,0.0,0.0,0.0,0.0,0.0,0.0,0.0,0.0,0.0,0.0,0.0,0.0,0.0,0.0,0.0,0.0,0.0,0.0,0.0,0.0,0.0,0.0,0.0,0.0,0.0,2.2306,2.3135,2.3222,2.3222,2.3714,2.4787,2.5964,2.613,2.4872,2.5891,0.0,0.0,0.0,0.0,0.0,0.0,0.0,0.0,0.0,0.0,0.0,0.0,0.0,0.0,0.0,0.0,0.0,0.0,0.0,0.0,0.0,0.0,0.0,0.0,0.0,0.0,0.0,0.0,0.0,0.0,0.0,0.0,0.0,0.0,0.0,0.0,0.0,0.0,0.0,0.0,0.0,0.0,0.0,0.0,0.0,0.0,0.0,0.0,0.0,0.0,0.0,0.0,0.0,0.0,0.0,0.0,0.0,0.0,0.0,0.0,0.0,0.0,0.0,0.0,0.0,0.0,0.0,0.0,0.0,0.0,0.0,0.0,0.0,0.0,0.0,0.0,0.0,0.0,0.0,0.0,0.0,0.0,0.0,0.0,0.0,0.0,0.0,0.0,0.0,0.0,0.0,0.0,0.0,0.0,0.0,0.0,0.0,0.0,0.0,0.0,0.0,0.0,2.1854,2.3135,2.3135,2.3135,2.3299,2.3714,2.4798,2.4967,2.38,0.0,0.0,0.0,0.0,0.0,0.0,0.0,0.0,0.0,0.0,0.0,0.0,0.0,0.0,0.0,0.0,0.0,0.0,0.0,0.0,0.0,0.0,0.0,0.0,0.0,0.0,0.0,0.0,0.0,0.0,0.0,0.0,0.0,0.0,0.0,0.0,0.0,0.0,0.0,0.0,0.0,0.0,0.0,0.0,0.0,0.0,0.0,0.0,0.0,0.0,0.0,0.0,0.0,0.0,0.0,0.0,0.0,0.0,0.0,0.0,0.0,0.0,0.0,0.0,0.0,0.0,0.0,0.0,0.0,0.0,0.0,0.0,0.0,0.0,0.0,0.0,0.0,0.0,0.0,0.0,0.0,0.0,0.0,0.0,0.0,0.0,0.0,0.0,0.0,0.0,0.0,0.0,0.0,0.0,0.0,0.0,0.0,0.0,0.0,0.0,0.0,0.0,1.9579,2.1311,2.2677,2.3047,2.3135,2.3193,2.333,2.4349,2.439,2.298,0.0,0.0,0.0,0.0,0.0,0.0,0.0,0.0,0.0,0.0,0.0,0.0,0.0,0.0,0.0,0.0,0.0,0.0,0.0,0.0,0.0,0.0,0.0,0.0,0.0,0.0,0.0,0.0,0.0,0.0,0.0,0.0,0.0,0.0,0.0,0.0,0.0,0.0,0.0,0.0,0.0,0.0,0.0,0.0,0.0,0.0,0.0,0.0,0.0,0.0,0.0,0.0,0.0,0.0,0.0,0.0,0.0,0.0,0.0,0.0,0.0,0.0,0.0,0.0,0.0,0.0,0.0,0.0,0.0,0.0,0.0,0.0,0.0,0.0,0.0,0.0,0.0,0.0,0.0,0.0,0.0,0.0,0.0,0.0,0.0,0.0,0.0,0.0,0.0,0.0,0.0,0.0,0.0,0.0,0.0,0.0,0.0,0.0,0.0,0.0,0.0,0.0,1.9322,2.0584,2.1765,2.2969,2.3067,2.333,2.376,2.474,2.4536,0.0,0.0,0.0,0.0,0.0,0.0,0.0,0.0,0.0,0.0,0.0,0.0,0.0,0.0,0.0,0.0,0.0,0.0,0.0,0.0,0.0,0.0,0.0,0.0,0.0,0.0,0.0,0.0,0.0,0.0,0.0,0.0,0.0,0.0,0.0,0.0,0.0,0.0,0.0,0.0,0.0,0.0,0.0,0.0,0.0,0.0,0.0,0.0,0.0,0.0,0.0,0.0,0.0,0.0,0.0,0.0,0.0,0.0,0.0,0.0,0.0,0.0,0.0,0.0,0.0,0.0,0.0,0.0,0.0,0.0,0.0,0.0,0.0,0.0,0.0,0.0,0.0,0.0,0.0,0.0,0.0,0.0,0.0,0.0,0.0,0.0,0.0,0.0,0.0,0.0,0.0,0.0,0.0,0.0,0.0,0.0,0.0,0.0,0.0,0.0,0.0,0.0,0.0,1.8456,1.9589,2.0896,2.2409,2.2631,2.3055,2.4127,2.4493,2.4065,2.2501,0.0,0.0,0.0,0.0,0.0,0.0,0.0,0.0,0.0,0.0,0.0,0.0,0.0,0.0,0.0,0.0,0.0,0.0,0.0,0.0,0.0,0.0,0.0,0.0,0.0,0.0,0.0,0.0,0.0,0.0,0.0,0.0,0.0,0.0,0.0,0.0,0.0,0.0,0.0,0.0,0.0,0.0,0.0,0.0,0.0,0.0,0.0,0.0,0.0,0.0,0.0,0.0,0.0,0.0,0.0,0.0,0.0,0.0,0.0,0.0,0.0,0.0,0.0,0.0,0.0,0.0,0.0,0.0,0.0,0.0,0.0,0.0,0.0,0.0,0.0,0.0,0.0,0.0,0.0,0.0,0.0,0.0,0.0,0.0,0.0,0.0,0.0,0.0,0.0,0.0,0.0,0.0,0.0,0.0,0.0,0.0,0.0,0.0,0.0,0.0,0.0,0.0,1.8148,1.892,1.9949,2.1423,2.164,2.1986,2.3003,2.3012,2.2503,2.1391,0.0,0.0,0.0,0.0,0.0,0.0,0.0,0.0,0.0,0.0,0.0,0.0,0.0,0.0,0.0,0.0,0.0,0.0,0.0,0.0,0.0,0.0,0.0,0.0,0.0,0.0,0.0,0.0,0.0,0.0,0.0,0.0,0.0,0.0,0.0,0.0,0.0,0.0,0.0,0.0,0.0,0.0,0.0,0.0,0.0,0.0,0.0,0.0,0.0,0.0,0.0,0.0,0.0,0.0,0.0,0.0,0.0,0.0,0.0,0.0,0.0,0.0,0.0,0.0,0.0,0.0,0.0,0.0,0.0,0.0,0.0,0.0,0.0,0.0,0.0,0.0,0.0,0.0,0.0,0.0,0.0,0.0,0.0,0.0,0.0,0.0,0.0,0.0,0.0,0.0,0.0,0.0,0.0,0.0,0.0,0.0,0.0,0.0,0.0,0.0,0.0,0.0,1.8207,1.8412,1.8897,2.0184,2.0289,2.0508,2.1024,2.1048,2.0696,1.9612,0.0,0.0,0.0,0.0,0.0,0.0,0.0,0.0,0.0,0.0,0.0,0.0,0.0,0.0,0.0,0.0,0.0,0.0,0.0,0.0,0.0,0.0,0.0,0.0,0.0,0.0,0.0,0.0,0.0,0.0,0.0,0.0,0.0,0.0,0.0,0.0,0.0,0.0,0.0,0.0,0.0,0.0,0.0,0.0,0.0,0.0,0.0,0.0,0.0,0.0,0.0,0.0,0.0,0.0,0.0,0.0,0.0,0.0,0.0,0.0,1.8199,1.7582,0.0,0.0,0.0,0.0,0.0,0.0,0.0,0.0,0.0,0.0,0.0,0.0,0.0,0.0,0.0,0.0,0.0,0.0,0.0,0.0,0.0,0.0,0.0,0.0,0.0,0.0,0.0,0.0,0.0,0.0,0.0,0.0,0.0,0.0,0.0,0.0,0.0,0.0,0.0,0.0,1.732,1.7456,1.8041,1.9592,1.9717,2.0249,2.1426,2.1535,2.0961,1.9723,1.9627,0.0,0.0,0.0,0.0,0.0,0.0,0.0,0.0,0.0,0.0,0.0,0.0,0.0,0.0,0.0,0.0,0.0,0.0,0.0,0.0,0.0,0.0,0.0,0.0,0.0,0.0,0.0,0.0,0.0,0.0,0.0,0.0,0.0,0.0,0.0,0.0,0.0,0.0,0.0,0.0,0.0,0.0,0.0,0.0,0.0,0.0,0.0,0.0,0.0,0.0,0.0,0.0,0.0,0.0,0.0,0.0,0.0,0.0,0.0,1.7891,1.7582,0.0,0.0,0.0,0.0,0.0,0.0,0.0,0.0,0.0,0.0,0.0,0.0,0.0,0.0,0.0,0.0,0.0,0.0,0.0,0.0,0.0,0.0,0.0,0.0,0.0,0.0,0.0,0.0,0.0,0.0,0.0,0.0,0.0,0.0,0.0,0.0,0.0,0.0,0.0,0.0,1.6267,1.6932,1.7721,1.8589,1.8603,1.8909,1.9723,1.9716,1.942,1.8708,1.8603,0.0,0.0,0.0,0.0,0.0,0.0,0.0,0.0,0.0,0.0,0.0,0.0,0.0,0.0,0.0,0.0,0.0,0.0,0.0,0.0,0.0,0.0,0.0,0.0,0.0,0.0,0.0,0.0,0.0,0.0,0.0,0.0,0.0,0.0,0.0,0.0,0.0,0.0,0.0,0.0,0.0,0.0,0.0,0.0,0.0,0.0,0.0,0.0,0.0,0.0,0.0,0.0,0.0,1.7582,1.7582,1.7582,1.7582,1.7582,1.7582,1.7582,1.7582,1.7582,1.7582,0.0,0.0,0.0,0.0,0.0,0.0,0.0,0.0,0.0,0.0,0.0,0.0,0.0,0.0,0.0,0.0,0.0,0.0,0.0,0.0,0.0,0.0,1.6062,1.7259,1.7582,1.7582,1.7582,0.0,0.0,0.0,0.0,0.0,0.0,0.0,0.0,0.0,0.0,0.0,1.5737,1.6823,1.7582,1.7582,1.7582,1.7582,1.7582,1.7582,1.7582,1.7582,1.7582,1.7582,0.0,0.0,0.0,0.0,0.0,0.0,0.0,0.0,0.0,0.0,0.0,0.0,0.0,0.0,0.0,0.0,0.0,0.0,0.0,0.0,0.0,0.0,0.0,0.0,0.0,0.0,0.0,0.0,0.0,0.0,0.0,0.0,1.7542,1.7582,0.0,0.0,0.0,0.0,0.0,0.0,0.0,0.0,0.0,0.0,0.0,0.0,0.0,1.7582,1.7582,1.7582,1.7582,1.7582,1.7582,1.7582,1.7582,1.7582,1.7582,1.7582,1.7582,0.0,1.7582,1.7582,0.0,0.0,0.0,0.0,0.0,0.0,0.0,0.0,0.0,0.0,0.0,0.0,0.0,0.0,0.0,0.0,0.0,0.0,0.0,0.0,0.0,0.0,1.7364,1.7582,1.7582,1.7582,1.7582,1.7582,1.7582,1.7582,1.628,1.477,0.0,0.0,0.0,0.0,0.0,0.0,1.7041,1.747,1.7582,1.7582,1.7582,1.7582,1.7582,1.7582,1.7582,1.7582,1.7582,1.7582,1.7582,1.7569,0.0,0.0,0.0,0.0,0.0,0.0,0.0,0.0,0.0,0.0,0.0,0.0,0.0,0.0,0.0,0.0,0.0,0.0,0.0,0.0,0.0,0.0,0.0,0.0,0.0,0.0,0.0,0.0,0.0,1.6711,1.7582,1.7582,1.7582,1.7582,0.0,0.0,0.0,0.0,0.0,0.0,0.0,0.0,0.0,1.7582,1.7582,1.7582,1.7582,1.7582,1.7582,1.7582,1.7582,1.7582,1.7582,1.7582,1.7582,1.7582,1.7582,1.7582,1.7582,1.7582,1.6717,1.531,0.0,0.0,0.0,0.0,1.1864,1.1324,1.2837,1.2729,1.2077,1.2077,0.0,0.0,0.0,0.0,0.0,0.0,0.0,1.2403,1.3804,1.531,1.6605,1.7364,1.6929,1.6387,1.6387,1.6387,1.6605,1.747,1.5743,1.4019,1.3372,1.2729,0.0,0.0,0.0,1.499,1.6174,1.7041,1.7582,1.7582,1.7582,1.7582,1.7582,1.7582,1.7582,1.7582,1.7582,1.7252,1.6393,1.5636,1.4234,0.0,0.0,0.0,0.0,0.0,0.0,0.0,0.0,0.0,0.0,0.0,0.0,0.0,0.0,0.0,0.0,0.0,0.0,0.0,0.0,0.0,0.0,0.0,0.0,0.0,0.0,0.0,0.0,1.6068,1.7041,1.7041,1.7364,1.7582,0.0,0.0,0.0,0.0,0.0,0.0,1.7582,1.7582,1.7582,1.7582,1.7582,1.7582,1.7582,1.7582,1.7582,1.7582,1.7582,1.7582,1.7582,1.7582,1.7582,1.7582,1.7582,1.7582,1.7582,1.7582,1.6935,1.5956,1.5524,1.4556,1.3264,1.3264,1.2403,1.1324,1.2837,1.262,1.1647,1.1647,1.1433,1.0891,0.9809,0.0,0.0,0.0,0.0,1.1433,1.294,1.4126,1.5097,1.628,1.5636,1.4877,1.4877,1.4556,1.4877,1.6711,1.5636,1.4234,1.3911,1.3588,0.0,1.1864,1.348,1.499,1.531,1.6717,1.7477,1.7041,1.7041,1.6929,1.6499,1.6499,1.6499,1.6499,1.6499,1.5962,1.4877,1.3911,1.262,1.1105,0.0,0.0,0.0,0.0,0.0,0.0,0.0,0.0,0.0,0.0,0.0,0.0,0.0,0.0,0.0,0.0,0.0,0.0,0.0,0.0,0.0,0.0,0.0,0.0,0.0,0.0,0.0,0.0,0.0,1.5524,1.6717,0.0,0.0,0.0,0.0,1.7582,1.7582,1.7582,1.7582,1.7582,1.7582,1.7582,1.7582,1.7582,1.7582,1.7582,1.7582,1.7582,1.7582,1.7582,1.7582,1.7582,1.7582,1.7582,1.7582,1.7582,1.7582,1.7582,1.7582,1.7364,1.5956,1.4556,1.3264,1.3264,1.2403,1.1324,1.2837,1.3264,1.3156,1.3156,1.2186,1.1105,1.0996,1.0025,0.0,0.0,1.1,1.1433,1.294,1.3372,1.3372,1.348,1.348,1.3372,1.3372,1.2295,1.2186,1.4984,1.6499,1.6929,1.5524,0.0,1.3264,1.3156,1.3264,1.3911,1.5204,1.6717,1.7041,1.5636,1.5524,1.4984,1.3588,1.348,1.348,1.348,1.348,1.348,1.3372,1.3372,1.262,1.1105,1.1,0.0,0.0,0.0,0.0,0.0,0.0,0.0,0.0,0.0,0.0,0.0,0.0,0.0,0.0,0.0,0.0,0.0,0.0,0.0,0.0,0.0,0.0,0.0,0.0,0.0,0.0,0.0,0.0,1.6823,1.7259,0.0,1.7582,1.7582,1.7582,1.7582,1.7582,1.7582,1.7582,1.7582,1.7582,1.7582,1.7582,1.7582,1.7582,1.7582,1.7582,1.7582,1.7582,1.7582,1.7582,1.7582,1.7582,1.7582,1.7582,1.7582,1.7582,1.6605,1.6711,1.7582,1.7041,1.5956,1.4663,1.4663,1.3156,1.1214,1.1647,1.1214,1.0457,1.0457,1.0131,0.9699,0.9699,0.9265,0.9047,0.9482,1.0351,1.1214,1.1755,1.262,1.3264,1.3264,1.262,1.1864,1.1864,1.1428,1.1433,1.2403,1.3048,1.3264,1.2724,1.3048,1.2945,1.2082,1.2729,1.348,1.4019,1.4556,1.4669,1.4126,1.4019,1.3804,1.3372,1.3264,1.3264,1.3264,1.3264,1.2837,1.1973,1.1864,1.1214,0.9699,0.9699,0.9372,0.0,0.0,0.0,0.0,0.0,0.0,0.0,0.0,0.0,0.0,0.0,0.0,0.0,0.0,0.0,0.0,0.0,0.0,0.0,0.0,0.0,0.0,0.0,0.0,0.0,1.5962,1.6823,1.6823,1.7259,1.7582,1.7582,1.7582,1.7582,1.7582,1.7582,1.7582,1.7582,1.7582,1.7582,1.7582,1.7582,1.7582,1.7582,1.7582,1.7582,1.7582,1.7582,1.7582,1.7582,1.7582,1.7582,1.7582,1.7041,1.6881,1.6863,1.5982,1.5815,1.6313,1.6141,1.553,1.4674,1.4207,1.2498,1.0441,1.05,0.9861,0.9086,0.9086,0.9086,0.9079,0.9025,0.9011,0.9001,0.8954,0.9588,1.0347,1.0347,1.1105,1.1864,1.1864,1.1105,1.0347,1.0347,1.0347,1.0347,1.0347,1.1214,1.1864,1.1864,1.2186,1.2186,1.1214,1.1969,1.2512,1.2512,1.294,1.3156,1.262,1.2512,1.2403,1.1864,1.1864,1.1864,1.1864,1.1864,1.1428,1.0347,1.0347,0.9915,0.8937,0.894,0.8944,0.895,0.0,0.0,0.0,0.0,0.0,0.0,0.0,0.0,0.0,0.0,0.0,0.0,0.0,0.0,0.0,0.0,0.0,0.0,0.0,0.0,0.0,0.0,0.0,1.3588,1.4556,1.5417,1.5417,1.6717,1.7582,1.7582,1.7582,1.7582,1.7582,1.7582,1.7582,1.7582,1.7582,1.7582,1.7582,1.7582,1.7582,1.7582,1.7582,1.7582,1.7477,1.7582,1.7582,1.7582,1.7582,1.7477,1.7483,1.5968,1.5474,1.5609,1.5707,1.4955,1.365,1.3451,1.3285,1.3093,1.1757,1.0381,0.9181,0.933,0.9381,0.9381,0.9381,0.9381,0.9354,0.9205,0.9161,0.913,0.8991,0.8954,0.8954,0.8954,0.8954,0.8954,0.8954,0.8954,0.895,0.8947,0.8947,0.8944,0.894,1.1214,1.3156,1.3156,1.1969,1.1,1.1,1.1,0.0,1.1,1.2295,1.262,1.1214,1.1,1.0457,0.9047,0.894,0.894,0.894,0.894,0.894,0.894,0.894,0.894,0.894,0.894,0.895,0.8863,0.0,0.0,0.0,0.0,0.0,0.0,0.0,0.0,0.0,0.0,0.0,0.0,0.0,0.0,0.0,0.0,0.0,0.0,0.0,0.0,0.0,1.4449,1.5636,1.6287,1.6717,1.7035,1.7035,1.7364,1.7582,1.7582,1.7582,1.7582,1.7582,1.7582,1.7582,1.7582,1.7582,1.7582,1.7582,1.7582,1.7041,1.6062,1.7041,1.6499,1.4556,1.6605,1.7041,1.5962,1.5962,1.6065,1.6145,1.4609,1.4072,1.4168,1.3154,1.3074,1.3793,1.4915,1.3968,1.1955,1.1558,1.0563,0.9323,0.9367,0.9381,0.9381,0.9381,0.9381,0.9374,0.9334,0.9317,0.931,0.9269,0.9259,0.9259,0.9259,0.9259,0.9259,0.9259,0.9259,0.9228,0.912,0.9093,0.9062,0.8957,0.9588,1.0131,1.0131,0.9809,0.9482,0.9482,0.9482,0.9482,0.9482,0.9805,0.9915,0.9588,0.9482,0.9372,0.8937,0.894,0.894,0.894,0.894,0.894,0.894,0.894,0.894,0.894,0.894,0.8846,0.0,0.0,0.0,0.0,0.0,0.0,0.0,0.0,0.0,0.0,0.0,0.0,0.0,0.0,0.0,0.0,0.0,0.0,0.0,0.0,0.0,0.0,1.5417,1.6605,1.747,1.7582,1.7582,1.7582,1.7582,1.7582,1.7582,1.7582,1.7582,1.7582,1.7582,1.7582,1.7582,1.7582,1.7582,1.7582,1.7582,1.7147,1.628,1.7147,1.6717,1.5097,1.6174,1.6236,1.5474,1.4928,1.4735,1.4744,1.3287,1.2734,1.2804,1.2,1.1815,1.21,0.0,0.0,0.0,0.0,1.0208,0.9564,0.9564,0.9564,0.9564,0.9564,0.9564,0.9554,0.9496,0.9476,0.9462,0.9398,0.9381,0.9381,0.9381,0.9381,0.9381,0.9381,0.9381,0.9357,0.9266,0.9249,0.9225,0.914,0.9123,0.0,0.9123,0.9022,0.894,0.894,0.894,0.894,0.894,0.894,0.894,0.894,0.894,0.894,0.894,0.894,0.0,0.0,0.0,0.8964,0.9025,0.9028,0.0,0.0,0.0,0.9041,0.8847,0.722,0.0,0.0,0.1589,-0.0,0.0,0.0,0.0,0.0,0.0,0.0,0.0,0.0,0.0,0.0,0.0,0.0,0.0,0.0,0.0,0.0,1.6387,1.7252,1.7582,1.7477,1.7364,1.7364,1.7477,1.7582,1.7364,1.7477,1.7582,1.7582,1.7582,1.7582,1.7582,1.7582,0.0,0.0,0.0,1.7477,1.7364,1.7364,1.7147,1.6823,1.5773,1.515,1.5153,1.385,1.3306,1.3388,1.1914,1.145,1.1622,1.1732,1.1002,0.9795,0.9534,1.0233,1.1165,1.0048,0.9713,0.9822,0.9822,0.0,0.0,0.9822,0.9822,0.9798,0.9673,0.9635,0.9605,0.9469,0.9432,0.9432,0.9432,0.9432,0.9432,0.9432,0.9432,0.9429,0.9412,0.9408,0.9401,0.9384,0.9381,0.9381,0.9381,0.9164,0.8988,0.8988,0.8988,0.8988,0.8988,0.8988,0.8988,0.8988,0.8988,0.0,0.8988,0.8988,0.8988,0.8988,0.8988,0.9045,0.9174,0.9178,0.9245,0.9381,0.9285,0.9069,0.8854,0.8873,0.5787,-0.0,-0.0,-0.0,0.0,0.0,0.0,0.0,0.0,0.0,0.0,0.0,0.0,0.0,0.0,0.0,0.0,0.0,0.0,1.5204,1.4669,1.499,1.7259,1.6605,1.5849,1.5849,1.6929,1.7147,1.5956,1.6929,1.7582,1.7582,1.7582,1.7582,1.7582,1.7582,1.7582,1.7582,1.7582,1.7041,1.5849,1.5849,1.4663,1.2403,1.3337,0.0,1.2153,1.1981,1.2046,1.2117,1.0612,0.9996,1.0137,1.0254,1.0034,0.9815,0.9758,0.9854,1.0095,0.9889,0.9798,0.9822,0.9822,0.9822,0.9822,0.9822,0.9822,0.9815,0.9788,0.9781,0.0,0.9744,0.9737,0.9737,0.9737,0.9737,0.9737,0.9737,0.9737,0.9703,0.9591,0.9564,0.953,0.9405,0.9381,0.9381,0.9381,0.9334,0.9296,0.9296,0.9296,0.9296,0.9296,0.9296,0.9296,0.9296,0.9296,0.9296,0.9296,0.9296,0.9296,0.9296,0.9296,0.931,0.9337,0.9337,0.9357,0.9288,0.9175,0.9078,0.8877,0.888,0.582,-0.0,-0.0,-0.0,0.0,0.0,0.0,0.0,0.0,0.0,0.0,0.0,0.0,0.0,0.0,1.2186,0.0,0.0,1.294,1.5091,1.4234,1.4341,1.7147,1.5743,1.4877,1.628,1.6499,1.6499,1.6499,1.6499,1.6823,1.7582,1.7582,1.7582,1.7582,1.7582,1.7252,1.6499,1.6499,1.5849,1.4341,1.4461,1.3759,1.2344,1.2436,1.213,1.1544,1.0837,1.062,1.0778,1.007,0.9754,0.9822,0.9822,0.9822,0.9822,0.9822,0.9822,0.9822,0.9822,0.9822,0.9822,0.9822,0.9822,0.9822,0.9822,0.9822,0.9822,0.9822,0.9822,0.9822,0.9822,0.9822,0.9822,0.9822,0.9822,0.9822,0.9822,0.9822,0.9802,0.973,0.9717,0.9693,0.9615,0.9602,0.9602,0.9602,0.9602,0.9551,0.9405,0.9381,0.9381,0.9381,0.9381,0.9381,0.9381,0.9381,0.9381,0.9381,0.9381,0.9381,0.9381,0.9381,0.9415,0.9493,0.9507,0.9432,0.9513,0.9543,0.9447,0.9343,0.9106,0.5829,-0.0,-0.0,-0.0,0.0,0.0,0.0,0.0,0.0,0.0,0.0,0.0,1.1214,1.1428,1.1538,1.1538,1.1538,1.1324,1.2077,1.4877,1.3696,1.3588,1.6717,1.4669,1.3804,1.6499,1.5956,1.5743,1.6717,1.6174,1.628,1.747,1.7364,1.7147,1.7147,1.6929,1.6174,1.499,1.499,1.4471,1.333,1.3177,1.3068,1.3112,1.1735,1.1217,1.1362,1.0224,0.9713,0.9822,0.9822,0.9822,0.9822,0.9822,0.9822,0.9822,0.9822,0.9839,0.9863,0.9832,0.9822,0.9822,0.9822,0.9822,0.9822,0.9822,0.9822,0.9822,0.9822,0.9822,0.9822,0.9822,0.9822,0.9822,0.9822,0.9822,0.9822,0.9822,0.9822,0.9822,0.9822,0.9822,0.9822,0.9822,0.9822,0.9822,0.9822,0.9822,0.9741,0.9503,0.9466,0.9466,0.9466,0.9466,0.9466,0.9466,0.9466,0.9466,0.9466,0.9469,0.9473,0.9473,0.9479,0.954,0.9663,0.9563,0.963,0.9747,0.9794,0.9186,0.7932,0.7444,0.4703,-0.0,-0.0,-0.0,0.894,0.894,0.9265,1.0566,0.9915,0.9588,0.0,0.0,1.1428,1.2724,1.3048,1.3048,1.3048,1.1969,1.2077,1.4877,1.1969,1.0891,1.5097,1.3156,1.1973,1.3588,1.477,1.4984,1.3911,1.5962,1.747,1.7582,1.6387,1.563,1.563,1.4449,1.3696,1.3588,1.348,1.3474,1.3457,1.214,1.1564,1.174,1.0435,0.9825,0.9849,0.9858,0.9805,0.9822,0.9822,0.9822,0.9822,0.9822,0.9822,0.9822,0.9822,0.9903,1.0008,0.9873,0.9822,0.9822,0.9822,0.9822,0.9822,0.9822,0.9822,0.9822,0.9822,0.9822,0.9822,0.9822,0.9822,0.9822,0.9822,0.9822,0.9822,0.9822,0.9822,0.9822,0.9822,0.9822,0.9822,0.9822,0.9822,0.9822,0.9822,0.9822,0.9812,0.9778,0.9771,0.9771,0.9771,0.9771,0.9771,0.9771,0.9771,0.9771,0.9771,0.9791,0.9802,0.9802,0.971,0.9734,0.9751,0.9754,0.9771,0.9808,0.9814,0.6931,0.1111,0.0988,0.0617,-0.0,-0.0,-0.0,0.894,0.894,0.9047,0.0,0.9375,0.9482,1.1538,1.1538,1.1324,1.186,1.1969,1.1755,1.0891,1.0241,1.0457,0.0,1.0672,1.0131,1.3696,1.1647,1.0351,1.1864,1.2507,1.3048,1.3264,1.3588,1.4126,1.499,1.4556,1.4126,1.4126,1.3588,1.2945,1.2077,1.2078,1.1735,1.1048,1.0578,1.0368,1.0439,0.9895,0.9734,0.9734,0.9795,0.9822,0.9822,0.9822,0.9822,0.9829,0.9917,0.9954,0.9964,1.0053,1.0127,1.0164,1.0012,1.0012,1.0086,1.0086,1.0049,1.0132,1.007,1.0124,1.0032,1.0103,1.0086,1.007,0.9978,0.9954,0.9934,0.9842,0.9822,0.9822,0.9822,0.9822,0.9822,0.9822,0.9822,0.9822,0.9822,0.9822,0.9822,0.9822,0.9822,0.9822,0.9822,0.9822,0.9822,0.9822,0.9822,0.9822,0.9822,0.9832,0.9842,0.9842,0.9747,0.9004,0.7011,0.6896,0.69,0.69,0.8787,0.9808,0.9818,0.606,0.2716,-0.0,-0.0,-0.0,-0.0,-0.0,-0.0,0.894,0.894,0.0,0.894,0.894,0.9154,1.0241,1.0457,1.0457,1.0457,1.0457,1.0131,0.9047,0.894,0.9372,1.0882,0.9911,0.9805,1.2389,1.0453,0.9265,1.0351,1.0457,1.0891,1.1969,1.1864,1.2186,1.3264,1.294,1.2729,1.2729,1.2295,1.1673,1.0634,1.0643,1.0311,0.9279,0.95,0.9629,0.9669,0.9771,0.9822,0.9822,0.9822,0.9822,0.9822,0.9866,0.9883,0.9897,1.0049,1.0114,1.0124,1.0236,1.0304,1.0324,1.0212,1.0219,1.028,1.028,1.0359,1.0311,1.0287,1.0344,1.0243,1.0331,1.03,1.0256,1.0144,1.0114,1.0086,0.9975,0.9947,0.9947,0.9947,0.9947,0.9947,0.9947,0.9947,0.9947,0.9947,0.9914,0.9883,0.9883,0.9849,0.9822,0.9822,0.9822,0.9822,0.9822,0.9825,0.9832,0.9832,0.9852,0.9493,0.8491,0.9271,0.8784,0.641,0.4553,0.3568,0.3568,0.5804,0.7059,0.7059,0.2469,-0.0,-0.0,-0.0,-0.0,-0.0,-0.0,-0.0,0.0,0.0,0.894,0.894,0.894,0.894,0.8937,0.8937,0.8937,0.8937,0.8937,0.8937,0.894,0.894,0.9364,1.0853,0.99,0.9475,1.0962,0.99,0.894,0.8937,0.8937,0.8937,0.9047,1.1538,1.3264,1.3264,1.1969,1.1214,1.1214,0.9805,0.9113,0.9253,0.9264,0.9411,0.9591,0.9605,0.968,0.9815,0.9819,0.9822,0.9822,0.9822,0.9822,0.9829,0.9978,1.0042,1.0056,1.0209,1.0273,1.0273,1.028,1.0365,1.0483,1.048,1.0395,1.028,1.028,1.028,1.029,1.0253,1.0354,1.03,1.0256,1.0351,1.028,1.0276,1.0273,1.0273,1.027,1.0266,1.0266,1.0266,1.0266,1.0266,1.0266,1.0266,1.0266,1.0266,1.0144,1.0042,1.0042,0.992,0.9822,0.9822,0.9822,0.9822,0.9822,0.9839,0.9852,0.9852,0.9761,0.8523,0.5287,0.7915,0.9814,0.9688,0.3704,0.0123,0.0123,0.0247,0.0247,0.0247,0.0123,-0.0,-0.0,-0.0,-0.0,-0.0,-0.0,-0.0,0.894,0.0,0.894,0.894,0.894,0.894,0.894,0.894,0.894,0.894,0.894,0.894,0.894,0.894,0.9044,0.9581,0.9258,0.9044,0.9581,0.9261,0.894,0.894,0.894,0.894,0.894,0.9809,1.0351,1.0351,0.9915,0.9588,0.9588,0.9248,0.9103,0.915,0.9351,0.9507,0.9608,0.9703,0.9774,0.9822,0.9822,0.9822,0.9825,0.9927,0.9971,0.9981,1.0134,1.0202,1.0215,1.0361,1.0422,1.0429,1.0531,1.0602,1.0643,1.0643,1.0612,1.0571,1.0571,1.0571,1.0578,1.0609,1.0599,1.0578,1.0609,1.0595,1.0551,1.0449,1.0422,1.0399,1.0304,1.028,1.028,1.028,1.028,1.028,1.028,1.028,1.028,1.028,1.0239,1.0205,1.0092,1.0042,1.0127,1.0127,0.9964,0.9842,0.9842,0.9824,0.901,0.6735,0.8475,0.9314,0.8278,0.5217,0.3309,0.3309,0.1272,-0.0,-0.0,-0.0,-0.0,-0.0,-0.0,-0.0,-0.0,-0.0,-0.0,-0.0,-0.0,-0.0,0.894,0.894,0.894,0.894,0.894,0.894,0.894,0.894,0.894,0.894,0.894,0.894,0.894,0.894,0.894,0.894,0.894,0.894,0.894,0.894,0.894,0.894,0.894,0.894,0.0,0.894,0.894,0.894,0.894,0.896,0.9011,0.9103,0.9205,0.9313,0.9507,0.9635,0.9686,0.9774,0.9822,0.9822,0.9822,0.9849,0.9907,1.0005,1.008,1.0141,1.029,1.0354,1.0368,1.0514,1.0571,1.0582,1.068,1.0721,1.0721,1.0721,1.0721,1.0721,1.0721,1.0721,1.0721,1.0721,1.0721,1.0721,1.0721,1.0721,1.07,1.0602,1.0571,1.0555,1.0463,1.0436,1.0436,1.0436,1.0436,1.0436,1.0436,1.0436,1.0436,1.0436,1.0402,1.025,1.026,1.0213,1.0304,1.0304,1.0025,0.9784,0.9895,0.9876,0.9046,0.6857,0.6415,0.6331,0.6331,0.2452,-0.0,-0.0,-0.0,-0.0,-0.0,-0.0,-0.0,-0.0,-0.0,-0.0,-0.0,-0.0,-0.0,-0.0,-0.0,-0.0,0.894,0.894,0.894,0.894,0.894,0.894,0.894,0.894,0.894,0.894,0.894,0.894,0.0,0.0,0.894,0.894,0.894,0.894,0.894,0.894,0.894,0.0,0.0,0.0,0.0,0.0,0.8944,0.8954,0.895,0.9008,0.9147,0.9167,0.931,0.9602,0.9615,0.9686,0.9819,0.9822,0.9822,0.9822,0.9829,0.991,1.0049,1.0066,1.0151,1.03,1.0443,1.0504,1.0514,1.066,1.0721,1.0721,1.0721,1.0721,1.0721,1.0721,1.0721,1.0721,1.0721,1.0721,1.0721,1.0721,1.0721,1.0721,1.0721,1.0721,1.0721,1.0721,1.0721,1.0721,1.0721,1.0721,1.0721,1.0721,1.0721,1.0721,1.0721,1.0721,1.0721,1.0721,1.0501,1.0421,1.0156,0.9925,0.9845,0.9976,0.9993,0.9861,1.0062,0.9575,0.934,0.934,0.375,-0.0,-0.0,-0.0,-0.0,-0.0,-0.0,-0.0,-0.0,-0.0,-0.0,-0.0,-0.0,-0.0,-0.0,-0.0,-0.0,-0.0,-0.0,-0.0,0.894,0.894,0.894,0.894,0.894,0.894,0.894,0.894,0.894,0.894,0.894,0.894,0.0,0.0,0.0,0.894,0.894,0.0,0.894,0.894,0.0,0.894,0.0,0.894,0.894,0.9054,0.9116,0.915,0.9123,0.9113,0.915,0.9367,0.953,0.9608,0.971,0.9785,0.9822,0.9822,0.9822,0.9822,0.9937,1.0012,1.0056,1.0276,1.0399,1.0446,1.0599,1.0663,1.0666,1.0704,1.0721,1.0721,1.0721,1.0721,1.0721,1.0721,1.0721,1.0721,1.0721,1.0721,1.0721,1.0721,1.0721,1.0721,1.0721,1.0721,1.0721,1.0721,1.0721,1.0721,1.0721,1.0721,1.0721,1.0721,1.0721,1.0721,1.0721,1.0721,1.0724,1.0741,1.0622,0.9803,0.7078,0.4388,0.3583,0.6241,0.8803,1.0359,0.9871,0.5598,0.249,0.249,0.1058,-0.0,-0.0,-0.0,-0.0,-0.0,-0.0,-0.0,-0.0,-0.0,-0.0,-0.0,-0.0,-0.0,-0.0,-0.0,-0.0,-0.0,-0.0,-0.0,0.894,0.894,0.894,0.894,0.894,0.894,0.894,0.894,0.894,0.894,0.894,0.0,0.894,0.894,0.0,0.0,0.0,0.0,0.894,0.894,0.894,0.0,0.894,0.0,0.9054,0.9168,0.9269,0.9283,0.9235,0.9353,0.9347,0.9517,0.9639,0.97,0.9778,0.9822,0.9822,0.9822,0.9852,0.9924,0.9905,1.0137,1.0249,1.0415,1.0527,1.0599,1.0683,1.0721,1.0721,1.0721,1.0721,1.0721,1.0721,1.0721,1.0721,1.0721,1.0721,1.0721,1.0721,1.0721,1.0721,1.0721,1.0721,1.0721,1.0721,1.0721,1.0721,1.0721,1.0721,1.0721,1.0721,1.0721,1.0721,1.0721,1.0721,1.0721,1.0721,1.0721,1.0187,0.872,0.9576,0.9049,0.3895,0.1343,0.1209,0.4839,0.8373,1.0515,1.0218,0.4239,-0.0,-0.0,-0.0,-0.0,-0.0,-0.0,-0.0,-0.0,-0.0,-0.0,-0.0,-0.0,-0.0,-0.0,-0.0,-0.0,-0.0,-0.0,-0.0,-0.0,-0.0,-0.0,0.894,0.894,0.894,0.894,0.894,0.894,0.894,0.894,0.894,0.894,0.0,0.894,0.894,0.894,0.894,0.894,0.0,0.894,0.894,0.894,0.894,0.894,0.894,0.9051,0.9168,0.9241,0.9281,0.9418,0.948,0.9518,0.9588,0.9625,0.9693,0.9819,0.9822,0.9822,0.9822,0.9846,0.9914,1.0019,0.9995,1.0276,1.0483,1.051,1.0595,1.0721,1.0721,1.0721,1.0721,1.0721,1.0721,1.0721,1.0721,1.0721,1.0721,1.0721,1.0721,1.0721,1.0721,1.0721,1.0721,1.0721,1.0721,1.0721,1.0721,1.0721,1.0721,1.0721,1.0721,1.0721,1.0721,1.0721,1.0721,1.0721,1.0721,1.0721,1.0721,1.0724,0.9788,0.6708,0.7809,0.7279,0.1076,-0.0,0.1077,0.4179,0.7302,0.9224,0.9224,0.3908,-0.0,-0.0,-0.0,-0.0,-0.0,-0.0,-0.0,-0.0,-0.0,-0.0,-0.0,-0.0,-0.0,-0.0,-0.0,-0.0,-0.0,-0.0,-0.0,-0.0,-0.0,-0.0,0.894,0.894,0.894,0.894,0.894,0.894,0.894,0.894,0.0,0.0,0.894,0.894,0.894,0.894,0.894,0.894,0.0,0.0,0.0,0.0,0.894,0.0,0.0,0.0,0.9168,0.9384,0.9566,0.9613,0.9727,0.9666,0.9662,0.9693,0.9795,0.9822,0.9822,0.9822,0.9822,0.9861,0.9998,0.9992,1.0246,1.0429,1.0439,1.0605,1.0697,1.0721,1.0721,1.0721,1.0721,1.0721,1.0721,1.0721,1.0721,1.0721,1.0721,1.0721,1.0721,1.0721,1.0721,1.0721,1.0721,1.0721,1.0721,1.0721,1.0721,1.0721,1.0721,1.0721,1.0721,1.0721,1.0721,1.0721,1.0721,1.0721,1.0721,1.0721,1.0721,1.0741,1.0502,0.9853,0.5518,0.148,0.0269,-0.0,0.0269,0.0808,0.1481,0.1885,0.1885,0.0808,-0.0,-0.0,-0.0,-0.0,-0.0,-0.0,-0.0,-0.0,-0.0,-0.0,-0.0,-0.0,-0.0,-0.0,-0.0,-0.0,-0.0,-0.0,-0.0,-0.0,-0.0,-0.0,0.894,0.894,0.894,0.894,0.894,0.894,0.894,0.0,0.0,0.0,0.894,0.894,0.894,0.0,0.0,0.0,0.0,0.0,0.0,0.0,0.0,0.0,0.0,0.0,0.0,0.9533,0.9572,0.9697,0.9819,0.9778,0.9683,0.9768,0.9822,0.9822,0.9822,0.9822,0.9822,0.9917,0.9998,1.0191,1.0432,1.0599,1.0582,1.0677,1.0721,1.0721,1.0721,1.0721,1.0721,1.0721,1.0721,1.0721,1.0721,1.0721,1.0721,1.0721,1.0721,1.0721,1.0721,1.0721,1.0721,1.0721,1.0721,1.0721,1.0721,1.0721,1.0721,1.0721,1.0721,1.0721,1.0721,1.0721,1.0721,1.0721,1.0721,1.0721,1.0721,0.9253,0.847,1.0398,0.4844,-0.0,-0.0,-0.0,-0.0,-0.0,-0.0,-0.0,-0.0,-0.0,-0.0,-0.0,-0.0,-0.0,-0.0,-0.0,-0.0,-0.0,-0.0,-0.0,-0.0,-0.0,-0.0,-0.0,-0.0,-0.0,-0.0,-0.0,-0.0,-0.0,-0.0,-0.0,0.894,0.894,0.894,0.894,0.894,0.894,0.894,0.894,0.0,0.0,0.894,0.894,0.894,0.0,0.0,0.0,0.0,0.0,0.0,0.0,0.0,0.0,0.0,0.0,0.965,0.9572,0.9697,0.9822,0.9822,0.9822,0.9822,0.9822,0.9822,0.9822,0.9822,0.9822,0.9822,0.9947,1.0136,1.0375,1.0474,1.0585,1.0721,1.0721,1.0721,1.0721,1.0721,1.0721,1.0721,1.0721,1.0721,1.0721,1.0721,1.0721,1.0721,1.0721,1.0721,1.0721,1.0721,1.0721,1.0721,1.0721,1.0721,1.0721,1.0721,1.0721,1.0721,1.0721,1.0721,1.0721,1.0721,1.0721,1.0721,1.0721,1.0721,1.0721,1.0721,0.791,0.6046,0.8081,0.39,-0.0,-0.0,-0.0,-0.0,-0.0,-0.0,-0.0,-0.0,-0.0,-0.0,-0.0,-0.0,-0.0,-0.0,-0.0,-0.0,-0.0,-0.0,-0.0,-0.0,-0.0,-0.0,-0.0,-0.0,-0.0,-0.0,-0.0,-0.0,-0.0,-0.0,-0.0,0.894,0.894,0.894,0.894,0.894,0.894,0.894,0.0,0.0,0.894,0.894,0.894,0.894,0.0,0.0,0.0,0.0,0.894,0.0,0.0,0.0,0.0,0.0,0.0,0.9566,0.9697,0.9822,0.9822,0.9822,0.9822,0.9822,0.9822,0.9822,0.9822,0.9822,0.9822,0.9947,1.0197,1.0367,1.0541,1.0575,1.0721,1.0721,1.0721,1.0721,1.0721,1.0721,1.0721,1.0721,1.0721,1.0721,1.0721,1.0721,1.0721,1.0721,1.0721,1.0721,1.0721,1.0721,1.0721,1.0721,1.0721,1.0721,1.0721,1.0721,1.0721,1.0721,1.0721,1.0721,1.0721,1.0721,1.0721,1.0721,1.0721,1.0721,1.0721,1.0721,0.7927,0.4581,0.1615,0.0404,-0.0,-0.0,-0.0,-0.0,-0.0,-0.0,-0.0,-0.0,-0.0,-0.0,-0.0,-0.0,-0.0,-0.0,-0.0,-0.0,-0.0,-0.0,-0.0,-0.0,-0.0,-0.0,-0.0,-0.0,-0.0,-0.0,-0.0,-0.0,-0.0,-0.0,-0.0,0.894,0.894,0.894,0.894,0.894,0.894,0.894,0.0,0.0,0.6277,0.6277,0.6277,0.6277,0.6277,0.0,0.0,0.0,0.0,0.0,0.0,0.0,0.0,0.0,0.0,0.0,0.9819,0.9822,0.9822,0.9822,0.9822,0.9822,0.9822,0.9822,0.9822,0.9822,0.9947,0.9947,1.0311,1.0483,1.0449,1.0585,1.0721,1.0721,1.0721,1.0721,1.0721,1.0721,1.0721,1.0721,1.0721,1.0721,1.0721,1.0721,1.0721,1.0721,1.0721,1.0721,1.0721,1.0721,1.0721,1.0721,1.0721,1.0721,1.0721,1.0721,1.0721,1.0721,1.0721,1.0721,1.0721,1.0721,1.0721,1.0721,1.0721,1.0721,1.0721,1.0721,0.9567,0.6894,0.1077,-0.0,-0.0,-0.0,-0.0,-0.0,-0.0,-0.0,-0.0,-0.0,-0.0,-0.0,-0.0,-0.0,-0.0,-0.0,-0.0,-0.0,-0.0,-0.0,-0.0,-0.0,-0.0,-0.0,-0.0,-0.0,-0.0,-0.0,-0.0,-0.0,-0.0,-0.0,-0.0,0.895,0.8944,0.894,0.894,0.894,0.8719,0.0,0.0,0.0,0.3482,0.3144,0.3144,0.3144,0.3144,0.3144,0.0,0.0,0.3925,0.6212,0.0,0.0,0.0,0.0,0.9822,0.9822,0.9822,0.9822,0.9822,0.9822,0.9822,0.9822,0.9822,0.9822,0.9822,0.9947,1.0033,1.0086,1.0374,1.0581,1.0585,1.0585,1.0721,1.0721,1.0721,1.0721,1.0721,1.0721,1.0721,1.0721,1.0721,1.0721,1.0721,1.0721,1.0721,1.0721,1.0721,1.0721,1.0721,1.0721,1.0721,1.0721,1.0721,1.0721,1.0721,1.0721,1.0721,1.0721,1.0721,1.0721,1.0721,1.0721,1.0721,1.0721,1.0721,1.0721,1.0727,1.0758,1.0689,0.8534,0.1346,-0.0,-0.0,-0.0,-0.0,-0.0,-0.0,-0.0,-0.0,-0.0,-0.0,-0.0,-0.0,-0.0,-0.0,-0.0,-0.0,-0.0,-0.0,-0.0,-0.0,-0.0,-0.0,-0.0,-0.0,-0.0,-0.0,-0.0,-0.0,-0.0,-0.0,-0.0,-0.0,0.8863,0.8846,0.894,0.894,0.894,0.8162,0.0,0.0,0.7222,0.1234,-0.0,-0.0,-0.0,-0.0,-0.0,-0.0,-0.0,0.0,0.0123,0.0,0.0,0.0,0.0,0.9822,0.9822,0.9822,0.9822,0.9822,0.9822,0.9822,0.9822,0.9822,0.9822,0.9822,0.9947,1.0107,1.0296,1.0442,1.0585,1.0721,1.0721,1.0721,1.0721,1.0721,1.0721,1.0721,1.0721,1.0721,1.0721,1.0721,1.0721,1.0721,1.0721,1.0721,1.0721,1.0721,1.0721,1.0721,1.0721,1.0721,1.0721,1.0721,1.0721,1.0721,1.0721,1.0721,1.0721,1.0721,1.0721,1.0721,1.0721,1.0721,1.0721,1.0721,1.0721,1.0748,1.0715,1.0739,0.8534,0.1346,-0.0,-0.0,-0.0,-0.0,-0.0,-0.0,-0.0,-0.0,-0.0,-0.0,-0.0,-0.0,-0.0,-0.0,-0.0,-0.0,-0.0,-0.0,-0.0,-0.0,-0.0,-0.0,-0.0,-0.0,-0.0,-0.0,-0.0,-0.0,-0.0,-0.0,-0.0,-0.0,0.8406,0.8856,0.8846,0.8944,0.894,0.8618,0.7668,0.0,0.2244,0.0336,-0.0,-0.0,-0.0,-0.0,-0.0,-0.0,-0.0,0.0,0.0,0.0,0.0,0.0,0.8864,0.9822,0.9822,0.9822,0.9822,0.9822,0.9822,0.9822,0.9822,0.9822,0.9822,0.9947,1.0072,1.0242,1.0442,1.0585,1.0717,1.0721,1.0721,1.0721,1.0721,1.0721,1.0721,1.0721,1.0721,1.0721,1.0721,1.0721,1.0721,1.0721,1.0721,1.0721,1.0721,1.0721,1.0721,1.0721,1.0721,1.0721,1.0857,1.0857,1.0993,1.0996,1.0996,1.0857,1.0721,1.0721,1.0721,1.0721,1.0721,1.0721,1.0057,0.7665,0.8907,1.0702,1.0732,0.6892,0.2694,0.0404,-0.0,-0.0,-0.0,-0.0,-0.0,-0.0,-0.0,-0.0,-0.0,-0.0,-0.0,-0.0,-0.0,-0.0,-0.0,-0.0,-0.0,-0.0,-0.0,-0.0,-0.0,-0.0,-0.0,-0.0,-0.0,-0.0,-0.0,-0.0,-0.0,-0.0,-0.0,-0.0,0.0,0.6376,0.7265,0.726,0.8042,0.0,0.0,0.0,-0.0,-0.0,-0.0,-0.0,-0.0,-0.0,-0.0,-0.0,-0.0,0.0,0.0,0.0,0.0,0.0,0.0,0.0,0.9822,0.9822,0.9822,0.9822,0.9822,0.9822,0.9822,0.9822,0.9947,1.0072,1.0173,1.0341,1.0445,1.0585,1.0721,1.0721,1.0721,1.0721,1.0721,1.0721,1.0721,1.0721,1.0721,1.0721,0.0,1.0721,1.0721,1.0721,1.0721,1.0721,1.0721,1.0721,1.0721,1.0721,1.0721,1.0857,1.0895,1.0985,1.106,1.12,1.12,1.1039,1.0857,1.0857,1.0857,1.0857,1.0857,0.9791,0.847,0.7564,0.7029,0.6621,0.6621,0.3099,-0.0,-0.0,-0.0,-0.0,-0.0,-0.0,-0.0,-0.0,-0.0,-0.0,-0.0,-0.0,-0.0,-0.0,-0.0,-0.0,-0.0,-0.0,-0.0,-0.0,-0.0,-0.0,-0.0,-0.0,-0.0,-0.0,-0.0,-0.0,-0.0,-0.0,-0.0,-0.0,-0.0,-0.0,0.0,0.0,0.0,0.0,0.0,0.0,0.0,0.0,0.0,-0.0,-0.0,-0.0,-0.0,-0.0,-0.0,-0.0,0.0,0.0,0.0,0.0,0.0,0.0,0.9822,0.9822,0.9822,0.9822,0.9822,0.9822,0.9822,0.9822,0.9822,0.9947,1.0093,1.0264,1.0297,1.0445,1.0449,1.0585,1.0721,1.0721,1.0721,1.0721,1.0721,1.0721,1.0721,1.0721,1.0721,1.0721,1.0721,1.0721,1.0721,1.0721,1.0721,1.0721,1.0721,1.0721,1.0721,1.0721,1.0857,1.0888,1.1015,1.1147,1.1178,1.1178,1.1178,1.1229,1.1196,1.1196,1.1196,1.1196,1.1059,0.8386,0.6523,0.9276,0.4885,-0.0,-0.0,-0.0,-0.0,-0.0,-0.0,-0.0,-0.0,-0.0,-0.0,-0.0,-0.0,-0.0,-0.0,-0.0,-0.0,-0.0,-0.0,-0.0,-0.0,-0.0,-0.0,-0.0,-0.0,-0.0,-0.0,-0.0,-0.0,-0.0,-0.0,-0.0,-0.0,-0.0,-0.0,-0.0,-0.0,-0.0,-0.0,0.0,0.1007,0.1008,0.1567,0.0,0.0,0.0,0.0,0.0,0.0,0.0,0.0,0.0,0.0,0.0,0.0,0.0,0.0,0.0,0.0,0.9207,0.9822,0.9822,0.9822,0.9822,0.9822,0.9822,0.9822,0.9822,0.9822,0.9947,1.0036,1.023,1.0376,1.0581,1.0585,1.0721,1.0721,1.0721,1.0721,1.0721,1.0721,1.0721,1.0721,1.0721,1.0721,1.0721,1.0721,1.0721,1.0721,1.0721,1.0721,1.0721,1.0721,1.0721,1.0857,1.0993,1.0993,1.1162,1.1285,1.1429,1.1472,1.1472,1.1472,1.1375,1.1261,1.1261,1.1117,1.1117,1.1117,1.0324,0.821,0.3586,0.129,-0.0,-0.0,-0.0,-0.0,-0.0,-0.0,-0.0,-0.0,-0.0,-0.0,-0.0,-0.0,-0.0,-0.0,-0.0,-0.0,-0.0,-0.0,-0.0,-0.0,-0.0,-0.0,-0.0,-0.0,-0.0,-0.0,-0.0,-0.0,-0.0,-0.0,-0.0,-0.0,-0.0,-0.0,-0.0,-0.0,-0.0,-0.0,-0.0,-0.0,-0.0,-0.0,-0.0,0.0,0.0,0.0,0.0,0.0,0.0,0.0,0.0,0.0,0.0,0.0,0.0,0.0,0.0,0.0,0.4913,0.6641,0.7513,0.7513,0.897,0.9822,0.9822,0.9822,0.9822,0.9943,1.0072,1.0228,1.0429,1.0581,1.0585,1.0721,1.0721,1.0721,1.0721,1.0721,1.0721,1.0721,1.0721,1.0721,1.0721,1.0721,1.0721,1.0721,1.0721,0.9791,0.8328,0.8328,0.8328,0.8328,0.8328,0.8331,0.863,1.049,1.1204,1.1472,1.1619,1.1619,1.1619,1.1619,1.1472,1.1325,1.1325,1.1325,1.1335,1.1388,1.1299,0.9254,0.1752,-0.0,-0.0,-0.0,-0.0,-0.0,-0.0,-0.0,-0.0,-0.0,-0.0,-0.0,-0.0,-0.0,-0.0,-0.0,-0.0,-0.0,-0.0,-0.0,-0.0,-0.0,-0.0,-0.0,-0.0,-0.0,-0.0,-0.0,-0.0,-0.0,-0.0,-0.0,-0.0,-0.0,-0.0,-0.0,-0.0,-0.0,-0.0,-0.0,-0.0,-0.0,-0.0,-0.0,-0.0,0.0,0.0,0.0,0.0,0.0,0.0,0.0,0.0,0.0,0.0,0.0,0.0,0.0,0.0,-0.0,-0.0,0.2471,0.4206,0.4206,0.6646,0.8471,0.897,0.9579,0.9822,0.9947,1.0162,1.0325,1.0432,1.0585,1.0721,1.0721,1.0721,1.0721,1.0721,1.019,1.019,1.0721,1.0721,1.0455,0.9924,0.9924,0.9924,0.9924,1.0472,0.8881,0.6076,0.4991,0.4585,0.4585,0.4585,0.4585,0.5161,0.8997,1.0462,1.0756,1.0756,1.1188,1.1619,1.1619,1.1188,1.0903,1.1496,1.1647,1.1667,1.162,1.0745,0.8214,0.1606,-0.0,-0.0,-0.0,-0.0,-0.0,-0.0,-0.0,-0.0,-0.0,-0.0,-0.0,-0.0,-0.0,-0.0,-0.0,-0.0,-0.0,-0.0,-0.0,-0.0,-0.0,-0.0,-0.0,-0.0,-0.0,-0.0,-0.0,-0.0,-0.0,-0.0,-0.0,-0.0,-0.0,-0.0,-0.0,-0.0,-0.0,-0.0,-0.0,-0.0,-0.0,-0.0,-0.0,-0.0,0.0,0.0,0.0,0.0,0.0,0.0,0.0,0.0,0.0,0.0,0.0,-0.0,0.0,0.0,-0.0,-0.0,0.0494,0.0741,0.0741,0.1233,0.2712,0.5436,0.8241,0.9822,0.9822,1.0173,1.0353,1.0309,1.0585,1.0721,1.0721,1.0721,1.0721,1.0721,0.7665,0.7796,1.0721,1.0721,0.8995,0.6199,0.6199,0.6199,0.647,0.9475,1.0312,0.9224,0.3233,0.0808,0.0808,0.0808,0.0808,0.1357,0.5304,0.6722,0.6722,0.6722,0.8884,1.1619,1.1619,0.9318,0.731,1.072,1.162,1.1623,1.164,0.6735,0.146,0.0292,-0.0,-0.0,-0.0,-0.0,-0.0,-0.0,-0.0,-0.0,-0.0,-0.0,-0.0,-0.0,-0.0,-0.0,-0.0,-0.0,-0.0,-0.0,-0.0,-0.0,-0.0,-0.0,-0.0,-0.0,-0.0,-0.0,-0.0,-0.0,-0.0,-0.0,-0.0,-0.0,-0.0,-0.0,-0.0,-0.0,-0.0,-0.0,-0.3045,-0.1301,-0.0,-0.0,-0.0,-0.0,0.0,0.0,0.0,0.0,0.0,0.0,0.0,0.0,0.0,0.0,0.0,-0.0,-0.0,-0.0,-0.0,-0.0,-0.0,-0.0,-0.0,-0.0,0.0647,0.2202,0.3615,0.5286,0.7105,0.7285,0.7524,0.766,0.7796,0.7799,0.7799,0.9707,1.0672,1.0668,0.715,0.525,0.5093,0.8887,0.9868,0.7988,0.4179,0.2425,0.2559,0.418,0.4856,0.4585,0.1346,-0.0,-0.0,-0.0,-0.0,0.0283,0.2027,0.2629,0.2629,0.2629,0.3932,0.6105,1.0375,1.0408,0.9254,1.1046,1.1643,1.0596,0.6441,0.2629,-0.0,-0.0,-0.0,-0.0,-0.0,-0.0,-0.0,-0.0,-0.0,-0.0,-0.0,-0.0,-0.0,-0.0,-0.0,-0.0,-0.0,-0.0,-0.0,-0.0,-0.0,-0.0,-0.0,-0.0,-0.0,-0.0,-0.0,-0.0,-0.0,-0.0,-0.0,-0.0,-0.0,-0.0,-0.0,-0.0,-0.0,-0.0,-0.0,-0.0,-0.6577,-0.419,-0.2094,-0.1358,0.0,-0.0,0.0,0.0,0.0,0.0,0.0,0.0,0.0,0.0,0.0,0.0,-0.0,-0.0,-0.0,-0.0,-0.0,-0.0,-0.0,-0.0,-0.0,-0.0,-0.0,-0.0,-0.0,0.1077,0.3638,0.3774,0.3908,0.4179,0.4991,0.5398,0.5398,0.8946,1.0739,1.0604,0.6213,0.2694,0.0135,0.5669,0.8259,0.785,0.2424,-0.0,-0.0,-0.0,-0.0,-0.0,-0.0,-0.0,-0.0,-0.0,-0.0,-0.0,-0.0,-0.0,-0.0,-0.0,-0.0,0.1168,0.7031,1.0149,1.1195,0.9402,0.8954,0.7475,0.1606,-0.0,-0.0,-0.0,-0.0,-0.0,-0.0,-0.0,-0.0,-0.0,-0.0,-0.0,-0.0,-0.0,-0.0,-0.0,-0.0,-0.0,-0.0,-0.0,-0.0,-0.0,-0.0,-0.0,-0.0,-0.0,-0.0,-0.0,-0.0,-0.0,-0.0,-0.0,-0.0,-0.0,-0.0,-0.0,-0.0,-0.0,-0.0,-0.0,-0.0,-0.0,-0.9195,-0.9083,-0.8355,-0.5313,0.0,0.0,0.0,0.0,0.0,0.0,0.0,0.0,0.0,0.0,0.0,0.0,-0.0,-0.0,-0.0,-0.0,-0.0,-0.0,-0.0,-0.0,-0.0,-0.0,-0.0,-0.0,-0.0,0.0135,0.0404,0.0404,0.0404,0.0404,0.3639,0.5398,0.5398,0.8946,1.0739,1.0601,0.3639,0.0269,-0.0,0.0538,0.0808,0.0808,0.0269,-0.0,-0.0,-0.0,-0.0,-0.0,-0.0,-0.0,-0.0,-0.0,-0.0,-0.0,-0.0,-0.0,-0.0,-0.0,-0.0,0.0146,0.073,0.5852,1.0146,0.292,0.0876,0.073,0.0146,-0.0,-0.0,-0.0,-0.0,-0.0,-0.0,-0.0,-0.0,-0.0,-0.0,-0.0,-0.0,-0.0,-0.0,-0.0,-0.0,-0.0,-0.0,-0.0,-0.0,-0.0,-0.0,-0.0,-0.0,-0.0,-0.0,-0.0,-0.0,-0.0,-0.0,-0.0,-0.0,-0.0,-0.0,-0.0,-0.0,-0.0,-0.0,-0.0,-0.0,-0.0,-0.9697,-0.9697,-0.9457,-0.8241,0.0,0.0,0.0,0.0,0.0,0.0,0.0,0.0,0.0,0.0,0.0,-0.0,-0.0,-0.0,-0.0,-0.0,-0.0,-0.0,-0.0,-0.0,-0.0,-0.0,-0.0,-0.0,-0.0,-0.0,-0.0,-0.0,-0.0,-0.0,0.1346,0.202,0.202,0.3369,0.4044,0.4044,0.1346,-0.0,-0.0,-0.0,-0.0,-0.0,-0.0,-0.0,-0.0,-0.0,-0.0,-0.0,-0.0,-0.0,-0.0,-0.0,-0.0,-0.0,-0.0,-0.0,-0.0,-0.0,-0.0,-0.0,-0.0,0.2044,0.3799,0.0876,-0.0,-0.0,-0.0,-0.0,-0.0,-0.0,-0.0,-0.0,-0.0,-0.0,-0.0,-0.0,-0.0,-0.0,-0.0,-0.0,-0.0,-0.0,-0.0,-0.0,-0.0,-0.0,-0.0,-0.0,-0.0,-0.0,-0.0,-0.0,-0.0,-0.0,-0.0,-0.0,-0.0,-0.0,-0.0,-0.0,-0.0,-0.0,-0.0,-0.0,-0.0,-0.0,-0.0,-0.0,-0.9822,-0.9822,-0.9579,0.0,0.0,0.0,0.0,0.0,0.0,0.0,0.0,0.0,0.0,0.0,0.0,0.0,-0.0,-0.0,-0.0,-0.0,-0.0,-0.0,-0.0,-0.0,-0.0,-0.0,-0.0,-0.0,-0.0,-0.0,-0.0,-0.0,-0.0,-0.0,-0.0,-0.0,-0.0,-0.0,-0.0,-0.0,-0.0,-0.0,-0.0,-0.0,-0.0,-0.0,-0.0,-0.0,-0.0,-0.0,-0.0,-0.0,-0.0,-0.0,-0.0,-0.0,-0.0,-0.0,-0.0,-0.0,-0.0,-0.0,-0.0,-0.0,-0.0,-0.0,-0.0,-0.0,-0.0,-0.0,-0.0,-0.0,-0.0,-0.0,-0.0,-0.0,-0.0,-0.0,-0.0,-0.0,-0.0,-0.0,-0.0,-0.0,-0.0,-0.0,-0.0,-0.0,-0.0,-0.0,-0.0,-0.0,-0.0,-0.0,-0.0,-0.0,-0.0,-0.0,-0.0,-0.0,-0.0,-0.0,-0.0,-0.0,-0.0,-0.0,-0.0,-0.0,-0.0,-0.0,-0.0,-0.0,-0.9822,-0.9822,0.0,0.0,0.0,0.0,0.0,0.0,0.0,0.0,0.0,0.0,0.0,0.0,0.0,-0.0,-0.0,-0.0,-0.0,-0.0,-0.0,-0.0,-0.0,-0.0,-0.0,-0.0,-0.0,-0.0,-0.0,-0.0,-0.0,-0.0,-0.0,-0.0,-0.0,-0.0,-0.0,-0.0,-0.0,-0.0,-0.0,-0.0,-0.0,-0.0,-0.0,-0.0,-0.0,-0.0,-0.0,-0.0,-0.0,-0.0,-0.0,-0.0,-0.0,-0.0,-0.0,-0.0,-0.0,-0.0,-0.0,-0.0,-0.0,-0.0,-0.0,-0.0,-0.0,-0.0,-0.0,-0.0,-0.0,-0.0,-0.0,-0.0,-0.0,-0.0,-0.0,-0.0,-0.0,-0.0,-0.0,-0.0,-0.0,-0.0,-0.0,-0.0,-0.0,-0.0,-0.0,-0.0,-0.0,-0.0,-0.0,-0.0,-0.0,-0.0,-0.0,-0.0,-0.0,-0.0,-0.0,-0.0,-0.0,-0.0,-0.0,-0.0,-0.0,-0.0,-0.0,-0.0,-0.0,-0.0,-0.9787,0.0,0.0,0.0,0.0,0.0,0.0,0.0,0.0,0.0,0.0,0.0,-0.0,-0.0,0.0,-0.0,-0.0,-0.0,-0.0,-0.0,-0.0,-0.0,-0.0,-0.0,-0.0,-0.0,-0.0,-0.0,-0.0,-0.0,-0.0,-0.0,-0.0,-0.0,-0.0,-0.0,-0.0,-0.0,-0.0,-0.0,-0.0,-0.0,-0.0,-0.0,-0.0,-0.0,-0.0,-0.0,-0.0,-0.0,-0.0,-0.0,-0.0,-0.0,-0.0,-0.0,-0.0,-0.0,-0.0,-0.0,-0.0,-0.0,-0.0,-0.0,-0.0,-0.0,-0.0,-0.0,-0.0,-0.0,-0.0,-0.0,-0.0,-0.0,-0.0,-0.0,-0.0,-0.0,-0.0,-0.0,-0.0,-0.0,-0.0,-0.0,-0.0,-0.0,-0.0,-0.0,-0.0,-0.0,-0.0,-0.0,-0.0,-0.0,-0.0,-0.0,-0.0,-0.0,-0.0,-0.0,-0.0,-0.0,-0.0,-0.0,-0.0,-0.0,-0.0,-0.0,-0.0,-0.0,-0.0,-0.0,0.0,0.0,0.0,0.0,0.0,0.0,0.0,0.0,0.0,0.0,0.0,-0.0,-0.0,-0.0,-0.0,-0.0,-0.0,-0.0,-0.0,-0.0,-0.0,-0.0,-0.0,-0.0,-0.0,-0.0,-0.0,-0.0,-0.0,-0.0,-0.0,-0.0,-0.0,-0.0,-0.0,-0.0,-0.0,-0.0,-0.0,-0.0,-0.0,-0.0,-0.0,-0.0,-0.0,-0.0,-0.0,-0.0,-0.0,-0.0,-0.0,-0.0,-0.0,-0.0,-0.0,-0.0,-0.0,-0.0,-0.0,-0.0,-0.0,-0.0,-0.0,-0.0,-0.0,-0.0,-0.0,-0.0,-0.0,-0.0,-0.0,-0.0,-0.0,-0.0,-0.0,-0.0,-0.0,-0.0,-0.0,-0.0,-0.0,-0.0,-0.0,-0.0,-0.0,-0.0,-0.0,-0.0,-0.0,-0.0,-0.0,-0.0,-0.0,-0.0,-0.0,-0.0,-0.0,-0.0,-0.0,-0.0,-0.0,-0.0,-0.0,-0.0,-0.0,-0.0,-0.0,-0.0,-0.1777,-0.4891,-0.1481,-0.0,0.0,0.0,0.0,0.0,0.0,0.0,0.0,0.0,0.0,0.0,0.0,-0.0,-0.0,-0.0,-0.0,-0.0,-0.0,-0.0,-0.0,-0.0,-0.0,-0.0,-0.0,-0.0,-0.0,-0.0,-0.0,-0.0,-0.0,-0.0,-0.0,-0.0,-0.0,-0.0,-0.0,-0.0,-0.0,-0.0,-0.0,-0.0,-0.0,-0.0,-0.0,-0.0,-0.0,-0.0,-0.0,-0.0,-0.0,-0.0,-0.0,-0.0,-0.0,-0.0,-0.0,-0.0,-0.0,-0.0,-0.0,-0.0,-0.0,-0.0,-0.0,-0.0,-0.0,-0.0,-0.0,-0.0,-0.0,-0.0,-0.0,-0.0,-0.0,-0.0,-0.0,-0.0,-0.0,-0.0,-0.0,-0.0,-0.0,-0.0,-0.0,-0.0,-0.0,-0.0,-0.0,-0.0,-0.0,-0.0,-0.0,-0.0,-0.0,-0.0,-0.0,-0.0,-0.0,-0.0,-0.0,-0.0,-0.0,-0.0,-0.0,-0.0,-0.0,-0.0303,-0.1212,-0.1211,-0.4695,-1.1268,-0.4395,-0.1207,0.0,0.0,0.0,0.0,0.0,0.0,0.0,0.0,0.0,0.0,0.0,-0.0,-0.0,-0.0,-0.0,-0.0,-0.0,-0.0,-0.0,-0.0,-0.0,-0.0,-0.0,-0.0,-0.0,-0.0,-0.0,-0.0,-0.0,-0.0,-0.0,-0.0,-0.0,-0.0,-0.0,-0.0,-0.0,-0.0,-0.0,-0.0,-0.0,-0.0,-0.0,-0.0,-0.0,-0.0,-0.0,-0.0,-0.0,-0.0,-0.0,-0.0,-0.0,-0.0,-0.0,-0.0,-0.0,-0.0,-0.0,-0.0,-0.0,-0.0,-0.0,-0.0,-0.0,-0.0,-0.0,-0.0,-0.0,-0.0,-0.0,-0.0,-0.0,-0.0,-0.0,-0.0,-0.0,-0.0,-0.0,-0.0,-0.0,-0.0,-0.0,-0.0,-0.0,-0.0,-0.0,-0.0,-0.0,-0.0,-0.0,-0.0,-0.0,-0.0,-0.0,-0.0,-0.0,-0.0,-0.0,-0.0,-0.0,-0.0,-0.0,-0.0,-0.0,-0.3211,-0.9888,-0.9885,-0.7429,-0.287,-0.7565,-0.9855,0.0,0.0,0.0,0.0,0.0,0.0,0.0,0.0,0.0,0.0,-0.0,-0.0,-0.0,-0.0,-0.0,-0.0,-0.0,-0.0,-0.0,-0.0,-0.0,-0.0,-0.0,-0.0,-0.0,-0.0,-0.0,-0.0,-0.0,-0.0,-0.0,-0.0,-0.0,-0.0,-0.0,-0.0,-0.0,-0.0,-0.0,-0.0,-0.0,-0.0,-0.0,-0.0,-0.0,-0.0,-0.0,-0.0,-0.0,-0.0,-0.0,-0.0,-0.0,-0.0,-0.0,-0.0,-0.0,-0.0,-0.0,-0.0,-0.0,-0.0,-0.0,-0.0,-0.0,-0.0,-0.0,-0.0,-0.0,-0.0,-0.0,-0.0,-0.0,-0.0,-0.0,-0.0,-0.0,-0.0,-0.0,-0.0,-0.0,-0.0,-0.0,-0.0,-0.0,-0.0,-0.0,-0.0,-0.0,-0.0,-0.0,-0.0,-0.0,-0.0,-0.0,-0.0,-0.0,-0.0,-0.0,-0.0,-0.0,-0.0,-0.1867,-0.5915,-0.5915,-0.7138,-0.9566,-1.1603,-1.0187,-0.5984,-0.8456,-1.0638,0.0,0.0,0.0,0.0,0.0,0.0,0.0,0.0,0.0,0.0,-0.0,-0.0,-0.0,-0.0,-0.0,-0.0,-0.0,-0.0,-0.0,-0.0,-0.0,-0.0,-0.0,-0.0,-0.0,-0.0,-0.0,-0.0,-0.0,-0.0,-0.0,-0.0,-0.0,-0.0,-0.0,-0.0,-0.0,-0.0,-0.0,-0.0,-0.0,-0.0,-0.0,-0.0,-0.0,-0.0,-0.0,-0.0,-0.0,-0.0,-0.0,-0.0,-0.0,-0.0,-0.0,-0.0,-0.0,-0.0,-0.0,-0.0,-0.0,-0.0,-0.0,-0.0,-0.0,-0.0,-0.0,-0.0,-0.0,-0.0,-0.0,-0.0,-0.0,-0.0,-0.0,-0.0,-0.0,-0.0,-0.0,-0.0,-0.0,-0.0,-0.0,-0.0,-0.0,-0.0,-0.0,-0.0,-0.0,-0.0,-0.0,-0.0,-0.0,-0.0,-0.0,-0.0,-0.0,-0.0,-0.0,-0.0,-0.0,-0.0,-0.361,-1.1351,-1.2158,-1.0861,-0.7353,-1.0837,-1.2424,-1.2393,-0.8917,-0.9231,0.0,0.0,0.0,0.0,0.0,0.0,0.0,0.0,0.0,0.0,-0.0,-0.0,-0.0,-0.0,-0.0,-0.0,-0.0,-0.0,-0.0,-0.0,-0.0,-0.0,-0.0,-0.0,-0.0,-0.0,-0.0,-0.0,-0.0,-0.0,-0.0,-0.0,-0.0,-0.0,-0.0,-0.0,-0.0,-0.0,-0.0,-0.0,-0.0,-0.0,-0.0,-0.0,-0.0,-0.0,-0.0,-0.0,-0.0,-0.0,-0.0,-0.0,-0.0,-0.0,-0.0,-0.0,-0.0,-0.0,-0.0,-0.0,-0.0,-0.0,-0.0,-0.0,-0.0,-0.0,-0.0,-0.0,-0.0,-0.0,-0.0,-0.0,-0.0,-0.0,-0.0,-0.0,-0.0,-0.0,-0.0,-0.0,-0.0,-0.0,-0.0,-0.0,-0.0,-0.0,-0.0,-0.0,-0.0,-0.0,-0.0,-0.0,-0.0,-0.0,-0.0,-0.0,-0.0,-0.0,-0.0,-0.0,-0.0,-0.0,-0.2196,-0.7045,-1.0705,-1.2291,-1.1604,-1.2241,-1.2559,-1.2552,-1.1892,-1.1895,0.0,0.0,0.0,0.0,0.0,0.0,0.0,0.0,0.0,-0.5774,-0.2584,-0.0,-0.0,-0.0,-0.0,-0.0,-0.0,-0.0,-0.0,-0.0,-0.0,-0.0,-0.0,-0.0,-0.0,-0.0,-0.0,-0.0,-0.0,-0.0,-0.0,-0.0,-0.0,-0.0,-0.0,-0.0,-0.0,-0.0,-0.0,-0.0,-0.0,-0.0,-0.0,-0.0,-0.0,-0.0,-0.0,-0.0,-0.0,-0.0,-0.0,-0.0,-0.0,-0.0,-0.0,-0.0,-0.0,-0.0,-0.0,-0.0,-0.0,-0.0,-0.0,-0.0,-0.0,-0.0,-0.0,-0.0,-0.0,-0.0,-0.0,-0.0,-0.0,-0.0,-0.0,-0.0,-0.0,-0.0,-0.0,-0.0,-0.0,-0.0,-0.0,-0.0,-0.0,-0.0,-0.0,-0.0,-0.0,-0.0,-0.0,-0.0,-0.0,-0.0,-0.0,-0.0,-0.0,-0.0,-0.0,-0.0,-0.0,-0.4554,-0.6749,-0.6256,-1.0375,-1.243,-1.2525,-1.2525,-1.2525,-1.2525,-1.2508,-1.2511,0.0,0.0,0.0,0.0,0.0,0.0,0.0,0.0,-0.9822,0.0,-0.6016,-0.1979,-0.0378,-0.0,-0.0,-0.0,-0.0,-0.0,-0.0,-0.0,-0.0,-0.0,-0.0,-0.0,-0.0,-0.0,-0.0,-0.0,-0.0,-0.0,-0.0,-0.0,-0.0,-0.0,-0.0,-0.0,-0.0,-0.0,-0.0,-0.0,-0.0,-0.0,-0.0,-0.0,-0.0,-0.0,-0.0,-0.0,-0.0,-0.0,-0.1168,-0.2775,-0.073,-0.0,-0.0292,-0.219,-0.2921,-0.2629,-0.073,-0.0583,-0.16,-0.2619,-0.1601,-0.0,-0.0,-0.0,-0.0,-0.0,-0.0,-0.0,-0.0,-0.0,-0.0,-0.0,-0.0,-0.0,-0.0,-0.0,-0.0,-0.0,-0.0,-0.0,-0.0,-0.0,-0.0,-0.0,-0.0,-0.0,-0.0,-0.0,-0.0,-0.0,-0.0,-0.0,-0.0,-0.0,-0.0,-0.0,-0.0,-0.0,-0.0,-0.8024,-1.1026,-0.7987,-1.0996,-1.2562,-1.2501,-1.2501,-1.2501,-1.2501,-1.2501,-1.2501,0.0,0.0,0.0,0.0,0.0,0.0,0.0,0.0,-1.0072,-1.0072,-0.9825,-0.7619,-0.1193,-0.0,-0.0,-0.0,-0.0,-0.0,-0.0,-0.0,-0.0,-0.0,-0.0,-0.0,-0.0,-0.0,-0.0,-0.0,-0.0,-0.0,-0.0,-0.0,-0.0,-0.0,-0.0,-0.0,-0.0,-0.0,-0.0,-0.0,-0.0,-0.0,-0.0,-0.0,-0.0,-0.0,-0.0,-0.0,-0.0,-0.0,-0.4384,-1.0295,-0.292,-0.0,-0.0876,-0.8214,-1.1043,-0.9997,-0.2629,-0.2467,-0.606,-0.9856,-0.5939,-0.0,-0.0,-0.0,-0.0,-0.0,-0.0,-0.0,-0.0,-0.0,-0.0,-0.0,-0.0,-0.0,-0.0,-0.0,-0.0,-0.0,-0.0,-0.0,-0.0,-0.0,-0.0,-0.0,-0.0,-0.0,-0.0,-0.0,-0.0,-0.0,-0.0,-0.0,-0.0,-0.0,-0.0,-0.0,-0.0,-0.0,-0.0,-0.8024,-1.2471,-1.2128,-1.2414,-1.2539,-1.2501,-1.2501,-1.2501,-1.2501,-1.2501,-1.2501,-0.9822,0.0,0.0,0.0,0.0,0.0,0.0,-0.9947,-1.0057,-1.0186,-1.0266,-0.9543,-0.7069,-0.2952,-0.0,-0.0,-0.0,-0.0,-0.0,-0.0,-0.0,-0.0,-0.0,-0.0,-0.0,-0.0,-0.0,-0.0,-0.0,-0.0,-0.0,-0.0,-0.0,-0.0,-0.0,-0.0,-0.0,-0.0,-0.0,-0.0,-0.0,-0.0,-0.0135,-0.5167,-0.7447,-0.7274,-0.4737,-0.5101,-0.7297,-0.4803,-0.5388,-0.7886,-0.7562,-0.5955,-0.4072,-0.6851,-0.9485,-1.1237,-0.843,-0.6657,-0.649,-1.029,-0.9729,-0.697,-0.4492,-0.3939,-0.3976,-0.3994,-0.2087,-0.0,-0.0,-0.0,-0.0,-0.0,-0.0,-0.0,-0.0,-0.0,-0.0,-0.0,-0.0,-0.0,-0.0,-0.0,-0.0,-0.0,-0.0,-0.0,-0.0,-0.0,-0.0,-0.0,-0.0,-0.0,-0.0,-0.0,-0.0,-0.0,-0.0,-0.2355,-0.7863,-0.8324,-0.9729,-1.2414,-1.2539,-1.2515,-1.2501,-1.2501,-1.2501,-1.2501,-1.2501,-1.2501,-0.9822,0.0,0.0,0.0,0.0,0.0,0.0,0.0,-1.0236,-1.0366,-1.0449,-1.0449,-1.0449,-0.6696,-0.2818,-0.0404,-0.0,-0.0,-0.0,-0.0,-0.0,-0.0,-0.0,-0.0,-0.0,-0.0,-0.0,-0.0,-0.0,-0.0,-0.0,-0.0,-0.0,-0.0,-0.0,-0.0,-0.0,-0.2422,-0.3635,-0.3635,-0.242,-0.1885,-0.2165,-0.7258,-1.0316,-1.1509,-0.8805,-0.9193,-1.1408,-0.8871,-0.7697,-0.7991,-1.0599,-1.0017,-0.7693,-0.7693,-0.9435,-1.1619,-1.1619,-0.985,-0.8237,-1.0746,-1.1657,-1.1099,-0.8481,-0.7959,-0.8188,-0.8258,-0.6353,-0.351,-0.0772,-0.0,-0.0,-0.0,-0.0,-0.0,-0.0,-0.0,-0.0,-0.0,-0.0,-0.0,-0.0,-0.0,-0.0,-0.0,-0.0,-0.0,-0.0,-0.0,-0.0,-0.0,-0.0,-0.0,-0.0,-0.0,-0.0,-0.0,-0.2669,-0.6758,-1.2321,-0.9891,-0.9708,-1.2397,-1.2518,-1.2501,-1.2501,-1.2501,-1.2501,-1.2501,-1.2501,-1.2501,0.0,0.0,0.0,0.0,0.0,0.0,-0.9971,0.0,-1.0449,-1.0449,-1.0585,-1.0721,-1.0721,-1.0721,-0.8435,-0.1478,-0.0269,-0.0135,-0.0135,-0.0135,-0.0135,-0.0135,-0.0135,-0.0135,-0.0135,-0.0135,-0.0135,-0.0135,-0.0135,-0.0135,-0.0135,-0.0135,-0.0135,-0.0135,-0.0135,-0.0135,-0.0135,-0.7015,-1.0568,-1.0702,-0.7261,-0.5672,-0.6018,-0.602,-0.8075,-1.1622,-1.1592,-1.1667,-1.1667,-1.1633,-1.1619,-1.1619,-1.1619,-1.1619,-1.1619,-1.1619,-1.1619,-1.1619,-1.1619,-1.1619,-1.1623,-1.166,-1.1543,-1.1593,-1.1613,-1.1544,-1.1785,-1.2223,-1.2306,-1.044,-0.2193,-0.0,-0.0,-0.0,-0.0,-0.0,-0.0,-0.0,-0.0,-0.0,-0.0,-0.0,-0.0,-0.0,-0.0,-0.0,-0.0,-0.0,-0.0,-0.0,-0.0,-0.0,-0.0,-0.0,-0.0,-0.0,-0.0157,-0.0314,-0.8022,-1.2481,-1.2481,-1.2427,-1.2552,-1.2552,-1.2518,-1.2501,-1.2501,-1.2501,-1.2501,-1.2501,-1.2501,-1.2501,-0.9822,0.0,0.0,0.0,0.0,0.0,-1.0371,0.0,-1.0581,-1.0585,-1.0721,-1.0721,-1.0721,-1.0721,-1.0047,-0.8033,-0.5644,-0.3905,-0.3892,-0.3894,-0.3895,-0.3891,-0.3891,-0.3891,-0.3891,-0.3891,-0.3891,-0.3891,-0.3896,-0.3897,-0.3891,-0.3891,-0.3891,-0.3891,-0.3891,-0.3891,-0.3891,-0.591,-0.8213,-1.0678,-0.9713,-0.9364,-0.976,-0.9707,-1.0404,-1.1592,-1.1531,-1.1592,-1.1633,-1.1623,-1.1619,-1.1619,-1.1619,-1.1619,-1.1619,-1.1619,-1.1619,-1.1619,-1.1619,-1.1619,-1.1619,-1.163,-1.1708,-1.1663,-1.1583,-1.1898,-1.1463,-0.8456,-0.7755,-0.6718,-0.1411,-0.0,-0.0,-0.0,-0.0,-0.0,-0.0,-0.0,-0.0,-0.0,-0.0,-0.0,-0.0,-0.0,-0.0,-0.0,-0.0,-0.0,-0.0,-0.0,-0.0,-0.0,-0.0,-0.0,-0.0,-0.0,-0.2512,-0.8655,-1.12,-1.2464,-1.2424,-1.2562,-1.2542,-1.2518,-1.2508,-1.2501,-1.2501,-1.2501,-1.2501,-1.2501,-1.2501,-1.2501,-0.9941,-0.9978,-1.0149,-1.0187,0.0,0.0,-1.0456,-1.0498,-1.0585,-1.0721,-1.0721,-1.0721,-1.0721,-1.0721,-1.0721,-1.0721,-0.8995,-0.7658,-0.7638,-0.765,-0.766,-0.7663,-0.7663,-0.7663,-0.7663,-0.7663,-0.7663,-0.7663,-0.767,-0.7672,-0.7663,-0.7663,-0.7663,-0.7663,-0.7663,-0.7663,-0.7663,-0.7653,-0.8598,-1.0652,-1.0705,-1.0941,-1.1224,-1.1365,-1.1369,-1.1657,-1.1586,-1.1619,-1.1619,-1.1619,-1.1619,-1.1619,-1.1619,-1.1619,-1.1619,-1.1619,-1.1619,-1.1619,-1.1619,-1.1619,-1.1619,-1.163,-1.1735,-1.187,-1.1965,-1.0917,-0.9685,-0.8823,-0.6225,-0.3127,-0.0627,-0.0,-0.0,-0.0,-0.0,-0.0,-0.0,-0.0,-0.0,-0.0,-0.0,-0.0,-0.0,-0.0,-0.0,-0.0,-0.0,-0.0,-0.0,-0.0,-0.0,-0.0,-0.0,-0.0,-0.0,-0.314,-0.7232,-1.2161,-1.246,-1.243,-1.2556,-1.2539,-1.2522,-1.2501,-1.2501,-1.2501,-1.2501,-1.2501,-1.2501,-1.2501,-1.2501,-1.2501,-1.0009,-1.0109,-1.0348,-1.03,-1.0392,0.0,-1.0462,-1.0664,-1.0721,-1.0721,-1.0721,-1.0721,-1.0721,-1.0721,-1.0721,-1.0721,-1.0721,-1.0721,-1.0721,-1.0744,-1.0638,-1.0658,-1.0662,-1.0662,-1.0662,-1.0662,-1.0662,-1.0662,-1.0662,-1.0662,-1.0668,-1.0662,-1.0662,-1.0662,-1.0662,-1.0662,-1.0662,-1.0765,-1.0751,-1.0751,-1.0884,-1.1023,-1.1168,-1.1321,-1.1474,-1.1619,-1.1619,-1.1619,-1.1619,-1.1619,-1.1619,-1.1619,-1.1619,-1.1619,-1.1619,-1.1619,-1.1619,-1.1619,-1.1619,-1.1619,-1.1623,-1.166,-1.1779,-1.1938,-1.2421,-0.9935,-0.7714,-1.1442,-0.7207,-0.1251,-0.0782,-0.0313,-0.0,-0.0,-0.0,-0.0,-0.0,-0.0,-0.0,-0.0,-0.0,-0.0,-0.0,-0.0,-0.0,-0.0,-0.0,-0.0,-0.0,-0.0,-0.0,-0.0,-0.0,-0.0314,-0.1256,-0.8181,-1.2477,-1.2474,-1.2424,-1.2552,-1.2549,-1.2518,-1.2501,-1.2501,-1.2501,-1.2501,-1.2501,-1.2501,-1.2501,-1.2501,-1.2501,-1.2501,-1.0186,-1.036,-1.0501,-1.0521,-1.0514,0.0,-1.0636,-1.068,-1.0721,-1.0721,-1.0721,-1.0721,-1.0721,-1.0721,-1.0721,-1.0721,-1.0721,-1.0721,-1.0721,-1.0724,-1.0731,-1.0734,-1.0738,-1.0738,-1.0738,-1.0738,-1.0738,-1.0738,-1.0738,-1.0744,-1.0761,-1.0748,-1.0738,-1.0738,-1.0738,-1.0738,-1.0738,-1.0731,-1.0727,-1.0727,-1.0877,-1.1023,-1.1168,-1.1321,-1.1474,-1.1619,-1.1619,-1.1619,-1.1619,-1.1619,-1.1619,-1.1619,-1.1619,-1.1619,-1.1619,-1.1619,-1.1619,-1.1619,-1.1619,-1.1619,-1.164,-1.1759,-1.1901,-1.206,-1.2237,-1.175,-1.1535,-1.2232,-1.1308,-0.9261,-0.5944,-0.2502,-0.0,-0.0,-0.0,-0.0,-0.0,-0.0,-0.0,-0.0,-0.0,-0.0,-0.0,-0.0,-0.0,-0.0,-0.0,-0.0,-0.0,-0.0,-0.0,-0.0,-0.0,-0.2669,-0.945,-1.1519,-1.246,-1.2573,-1.2559,-1.2542,-1.2515,-1.2505,-1.2501,-1.2501,-1.2501,-1.2501,-1.2501,-1.2501,-1.2501,-1.2501,-1.2501,-1.2501,-1.0426,-1.0451,-1.0585,-1.0585,-1.0585,0.0,0.0,-1.0721,-1.0721,-1.0721,-1.0721,-1.0721,-1.0721,-1.0721,-1.0721,-1.0721,-1.0721,-1.0721,-1.0721,-1.0721,-1.0721,-1.0721,-1.0721,-1.0721,-1.0721,-1.0721,-1.0721,-1.0721,-1.0721,-1.0724,-1.0738,-1.0727,-1.0721,-1.0721,-1.0721,-1.0721,-1.0721,-1.0721,-1.0758,-1.0836,-1.0985,-1.1134,-1.128,-1.1436,-1.1548,-1.1619,-1.1619,-1.1619,-1.1619,-1.1619,-1.1619,-1.1619,-1.1619,-1.1619,-1.1619,-1.1619,-1.1619,-1.1619,-1.1619,-1.1664,-1.1735,-1.1809,-1.1986,-1.2193,-1.2281,-1.24,-1.2505,-1.2522,-1.2552,-1.2099,-0.9869,-0.7827,-0.5166,-0.0938,-0.0,-0.0,-0.0,-0.0,-0.0,-0.0,-0.0,-0.0,-0.0,-0.0,-0.0,-0.0,-0.0,-0.0,-0.0,-0.0,-0.0,-0.0,-0.3769,-0.7865,-1.2161,-1.2457,-1.2427,-1.2556,-1.2539,-1.2522,-1.2501,-1.2501,-1.2501,-1.2501,-1.2501,-1.2501,-1.2501,-1.2501,-1.2501,-1.2501,-1.2501,-1.2501,-1.0534,-1.0626,-1.0721,-1.0721,-1.0721,-1.0721,0.0,0.0,0.0,-1.0721,-1.0721,-1.0721,-1.0721,-1.0721,-1.0721,-1.0721,-1.0721,-1.0721,-1.0721,-1.0721,-1.0721,-1.0721,-1.0721,-1.0721,-1.0721,-1.0721,-1.0721,-1.0721,-1.0721,-1.0721,-1.0721,-1.0721,-1.0721,-1.0721,-1.0721,-1.0721,-1.0721,-1.0721,-1.0799,-1.0951,-1.1094,-1.1243,-1.1396,-1.1548,-1.1619,-1.1619,-1.1619,-1.1619,-1.1619,-1.1619,-1.1619,-1.1619,-1.1619,-1.1619,-1.1619,-1.1619,-1.1619,-1.1619,-1.1619,-1.1711,-1.1837,-1.1867,-1.2081,-1.2332,-1.2332,-1.241,-1.2501,-1.2501,-1.2522,-1.2542,-1.2542,-1.2569,-1.084,-0.4065,-0.172,-0.1252,-0.1254,-0.0628,-0.0,-0.0,-0.0,-0.0,-0.0,-0.1413,-0.2355,-0.2355,-0.1726,-0.1255,-0.1255,-0.1255,-0.1255,-0.1255,-0.7226,-1.1666,-1.2464,-1.2424,-1.2549,-1.2542,-1.2518,-1.2501,-1.2501,-1.2501,-1.2501,-1.2501,-1.2501,-1.2501,-1.2501,-1.2501,-1.2501,-1.2501,-1.2501,-1.2501,-1.0694,-1.0707,-1.0721,-1.0721,-1.0721,-1.0721,-1.0721,0.0,-1.0721,-1.0721,0.0,-1.0721,-1.0721,0.0,0.0,-1.0857,-1.0724,-1.0721,-1.0857,-1.0721,-1.0721,-1.0721,-1.0721,-1.0721,-1.0721,-1.0721,-1.0721,-1.0721,-1.0721,-1.0721,-1.0721,-1.0721,-1.0721,-1.0721,-1.0721,-1.0721,-1.0721,-1.0721,-1.0799,-1.0951,-1.1094,-1.1243,-1.1396,-1.1548,-1.1619,-1.1619,-1.1619,-1.1619,-1.1619,-1.1619,-1.1619,-1.1619,-1.1619,-1.1619,-1.1619,-1.1619,-1.1619,-1.1619,-1.1619,-1.1711,-1.1853,-1.1989,-1.2237,-1.2478,-1.2478,-1.2488,-1.2501,-1.2501,-1.2505,-1.2508,-1.2508,-1.2532,-1.2241,-1.1286,-0.8292,-0.5629,-0.563,-0.2659,-0.0,-0.0,-0.0,-0.0,-0.0,-0.6128,-1.1041,-1.1041,-0.8002,-0.5632,-0.5632,-0.5632,-0.5632,-0.5632,-0.6417,-0.8457,-1.2245,-1.2556,-1.2539,-1.2511,-1.2505,-1.2501,-1.2501,-1.2501,-1.2501,-1.2501,-1.2501,-1.2501,-1.2501,-1.2501,-1.2501,-1.2501,-1.2501,-1.2501,-1.0721,-1.0721,-1.0721,-1.0721,-1.0721,-1.0721,-1.0721,-1.0721,-1.0721,-1.0721,0.0,0.0,0.0,0.0,0.0,0.0,-1.0733,-1.0695,-1.0772,-1.0721,-1.0721,-1.0721,-1.0721,-1.0721,-1.0721,-1.0721,-1.0721,-1.0721,-1.0721,-1.0721,-1.0721,-1.0721,-1.0721,-1.0721,-1.0721,-1.0721,-1.0721,-1.0809,-1.0928,-1.1077,-1.1223,-1.1375,-1.1528,-1.1589,-1.1619,-1.1619,-1.1619,-1.1619,-1.1619,-1.1619,-1.1619,-1.1619,-1.1619,-1.1619,-1.1619,-1.1619,-1.1619,-1.1633,-1.1711,-1.184,-1.2003,-1.224,-1.2403,-1.2501,-1.2501,-1.2501,-1.2501,-1.2501,-1.2501,-1.2501,-1.2501,-1.2511,-1.2528,-1.2549,-1.1128,-0.9872,-0.9885,-0.8469,-0.6577,-0.4065,-0.3598,-0.3601,-0.3601,-0.8643,-1.2481,-1.2481,-1.102,-0.9891,-0.9891,-0.9891,-0.9891,-0.9891,-0.9877,-1.0653,-1.2393,-1.2535,-1.2518,-1.2505,-1.2501,-1.2501,-1.2501,-1.2501,-1.2501,-1.2501,-1.2501,-1.2501,-1.2501,-1.2501,-1.2501,-1.2501,-1.2501,-1.2501,-1.0721,-1.0721,-1.085,-1.124,-1.1111,-1.085,-1.124,-1.0979,-1.0721,-1.0721,-1.0721,0.0,0.0,0.0,-1.0721,-1.0721,0.0,-1.0651,-1.0782,-1.0721,-1.0721,-1.0721,-1.0721,-1.0721,-1.0721,-1.0721,-1.0721,-1.0721,-1.0721,-1.0721,-1.0721,-1.0721,-1.0721,-1.0721,-1.0721,-1.0721,-1.0721,-1.087,-1.1019,-1.1165,-1.1318,-1.147,-1.1619,-1.1619,-1.1619,-1.1619,-1.1619,-1.1619,-1.1619,-1.1619,-1.1619,-1.1619,-1.1619,-1.1619,-1.1619,-1.1619,-1.1619,-1.164,-1.1782,-1.1959,-1.2166,-1.242,-1.2501,-1.2501,-1.2501,-1.2501,-1.2501,-1.2501,-1.2501,-1.2501,-1.2501,-1.2501,-1.2508,-1.2532,-1.2539,-1.2545,-1.2569,-1.2427,-1.1632,-0.8611,-0.7985,-0.7989,-0.7989,-1.0531,-1.2457,-1.2457,-1.2437,-1.2576,-1.2576,-1.2576,-1.2576,-1.2576,-1.2552,-1.2539,-1.2539,-1.2515,-1.2501,-1.2501,-1.2501,-1.2501,-1.2501,-1.2501,-1.2501,-1.2501,-1.2501,-1.2501,-1.2501,-1.2501,-1.2501,-1.2501,-1.2501,-1.2501,-1.0721,-1.0721,-1.1111,-1.2804,-1.189,-1.1111,-1.2804,-1.1894,-1.0721,-1.0721,-1.0721,-1.0721,-1.0721,-1.0721,-1.0721,-1.0857,-1.0738,0.0,0.0,-1.0724,-1.0721,-1.0721,-1.0721,-1.0721,-1.0721,-1.0721,-1.0721,-1.0721,-1.0721,-1.0721,-1.0721,-1.0721,-1.0721,-1.0721,-1.0721,-1.0721,-1.0721,-1.087,-1.1019,-1.1165,-1.1318,-1.147,-1.1619,-1.1619,-1.1619,-1.1619,-1.1619,-1.1619,-1.1619,-1.1619,-1.1619,-1.1619,-1.1619,-1.1619,-1.1619,-1.1619,-1.1619,-1.164,-1.1782,-1.203,-1.2308,-1.2454,-1.2501,-1.2501,-1.2501,-1.2501,-1.2501,-1.2501,-1.2501,-1.2501,-1.2501,-1.2501,-1.2501,-1.2505,-1.2505,-1.2505,-1.2505,-1.2532,-1.2397,-1.2393,-1.2265,-1.2288,-1.2288,-1.2417,-1.2556,-1.2556,-1.2528,-1.2505,-1.2505,-1.2505,-1.2505,-1.2505,-1.2505,-1.2505,-1.2505,-1.2501,-1.2501,-1.2501,-1.2501,-1.2501,-1.2501,-1.2501,-1.2501,-1.2501,-1.2501,-1.2501,-1.2501,-1.2501,-1.2501,-1.2501,-1.2501,-1.2501,-1.0721,-1.0721,-1.085,-1.1369,-1.1111,-1.085,-1.1505,-1.1111,-1.0721,-1.0721,-1.0721,-1.0721,-1.0721,-1.0721,-1.0721,-1.0721,-1.0721,-1.0721,0.0,-1.0721,-1.0721,-1.0721,-1.0721,-1.0721,-1.0721,-1.0721,-1.0721,-1.0721,-1.0721,-1.0721,-1.0721,-1.0721,-1.0721,-1.0721,-1.0721,-1.0768,-1.087,-1.1016,-1.1165,-1.1314,-1.1467,-1.1569,-1.1619,-1.1619,-1.1619,-1.1619,-1.1619,-1.1619,-1.1619,-1.1619,-1.1619,-1.1619,-1.1619,-1.1619,-1.1619,-1.1619,-1.1681,-1.1796,-1.2047,-1.2264,-1.2437,-1.2484,-1.2501,-1.2501,-1.2501,-1.2501,-1.2501,-1.2501,-1.2501,-1.2501,-1.2501,-1.2501,-1.2501,-1.2501,-1.2501,-1.2501,-1.2501,-1.2511,-1.2518,-1.2518,-1.2528,-1.2535,-1.2535,-1.2528,-1.2528,-1.2549,-1.2525,-1.2501,-1.2501,-1.2501,-1.2501,-1.2501,-1.2501,-1.2501,-1.2501,-1.2501,-1.2501,-1.2501,-1.2501,-1.2501,-1.2501,-1.2501,-1.2501,-1.2501,-1.2501,-1.2501,-1.2501,-1.2501,-1.2501,-1.2501,-1.2501,-1.2501,-1.0721,-1.0721,-1.085,-1.1501,-1.1111,-1.085,-1.1501,-1.1111,-1.0721,-1.0721,-1.0721,-1.0721,-1.0721,-1.0721,-1.0721,-1.0721,-1.0721,-1.0721,0.0,-1.0721,-1.0721,-1.0721,-1.0721,-1.0721,-1.0721,-1.0721,-1.0721,-1.0721,-1.0721,-1.0721,-1.0721,-1.0721,-1.0721,-1.0721,-1.0772,-1.085,-1.0948,-1.1145,-1.1294,-1.1392,-1.1545,-1.1619,-1.1619,-1.1619,-1.1619,-1.1619,-1.1619,-1.1619,-1.1619,-1.1619,-1.1619,-1.1619,-1.1619,-1.1619,-1.1626,-1.1677,-1.1823,-1.2023,-1.222,-1.2383,-1.2501,-1.2501,-1.2501,-1.2501,-1.2501,-1.2501,-1.2481,-1.2376,-1.242,-1.2478,-1.2372,-1.2423,-1.2501,-1.2501,-1.2501,-1.2501,-1.2501,-1.2501,-1.2501,-1.2501,-1.2501,-1.2501,-1.2501,-1.2501,-1.2508,-1.2532,-1.2515,-1.2501,-1.2501,-1.2501,-1.2501,-1.2501,-1.2501,-1.2501,-1.2501,-1.2501,-1.2501,-1.2501,-1.2501,-1.2501,-1.2501,-1.2501,-1.2478,-1.2427,-1.2474,-1.2478,-1.2427,-1.2478,-1.2501,-1.2501,-1.2501,-1.2501]},{"header":{"parameterUnit":"m.s-1","parameterCategory":1,"la1":30.6,"la2":29.2853,"lo1":-89.7004,"lo2":-87.6739,"dy":0.0162,"dx":0.0183,"nx":112,"ny":82,"refTime":"2023-06-16T06:00:00:Z","depth":0,"parameterNumber":3,"parameterNumberName":"V-component_of_WINDS"},"data":[0.0,0.0,0.0,0.0,0.0,0.0,0.0,0.0,0.0,0.0,0.0,0.0,0.0,0.0,0.0,0.0,0.0,0.0,0.0,0.0,0.0,0.0,0.0,0.0,0.0,0.0,0.0,0.0,0.0,0.0,0.0,0.0,0.0,0.0,0.0,0.0,0.0,0.0,0.0,0.0,0.0,0.0,0.0,0.0,0.0,0.0,0.0,0.0,0.0,0.0,0.0,0.0,0.0,0.0,0.0,0.0,0.0,0.0,0.0,0.0,0.0,0.0,0.0,0.0,0.0,0.0,0.0,0.0,0.0,0.0,0.0,0.0,0.0,0.0,0.0,0.0,0.0,0.0,0.0,0.0,0.0,0.0,0.0,0.0,0.0,0.0,0.0,0.0,0.0,0.0,-3.9032,-3.8908,-3.7642,-3.6446,-3.5718,-3.5668,-3.6258,-3.7706,0.0,0.0,0.0,0.0,0.0,0.0,0.0,0.0,0.0,0.0,0.0,0.0,0.0,0.0,0.0,0.0,0.0,0.0,0.0,0.0,0.0,0.0,0.0,0.0,0.0,0.0,0.0,0.0,0.0,0.0,0.0,0.0,0.0,0.0,0.0,0.0,0.0,0.0,0.0,0.0,0.0,0.0,0.0,0.0,0.0,0.0,0.0,0.0,0.0,0.0,0.0,0.0,0.0,0.0,0.0,0.0,0.0,0.0,0.0,0.0,0.0,0.0,0.0,0.0,0.0,0.0,0.0,0.0,0.0,0.0,0.0,0.0,0.0,0.0,0.0,0.0,0.0,0.0,0.0,0.0,0.0,0.0,0.0,0.0,0.0,0.0,0.0,0.0,0.0,0.0,0.0,0.0,0.0,0.0,0.0,0.0,0.0,0.0,0.0,0.0,0.0,0.0,0.0,0.0,-3.9662,-3.8962,-3.8133,-3.7279,-3.6508,-3.6446,-3.6798,-3.7748,0.0,0.0,0.0,0.0,0.0,0.0,0.0,0.0,0.0,0.0,0.0,0.0,0.0,0.0,0.0,0.0,0.0,0.0,0.0,0.0,0.0,0.0,0.0,0.0,0.0,0.0,0.0,0.0,0.0,0.0,0.0,0.0,0.0,0.0,0.0,0.0,0.0,0.0,0.0,0.0,0.0,0.0,0.0,0.0,0.0,0.0,0.0,0.0,0.0,0.0,0.0,0.0,0.0,0.0,0.0,0.0,0.0,0.0,0.0,0.0,0.0,0.0,0.0,0.0,0.0,0.0,0.0,0.0,0.0,0.0,0.0,0.0,0.0,0.0,0.0,0.0,0.0,0.0,0.0,0.0,0.0,0.0,0.0,0.0,0.0,0.0,0.0,0.0,0.0,0.0,0.0,0.0,0.0,0.0,0.0,0.0,0.0,0.0,0.0,0.0,0.0,0.0,0.0,-4.0286,-3.9782,-3.8978,-3.858,-3.8076,-3.7338,-3.6843,-3.7128,-3.8302,-3.8035,0.0,0.0,0.0,0.0,0.0,0.0,0.0,0.0,0.0,0.0,0.0,0.0,0.0,0.0,0.0,0.0,0.0,0.0,0.0,0.0,0.0,0.0,0.0,0.0,0.0,0.0,0.0,0.0,0.0,0.0,0.0,0.0,0.0,0.0,0.0,0.0,0.0,0.0,0.0,0.0,0.0,0.0,0.0,0.0,0.0,0.0,0.0,0.0,0.0,0.0,0.0,0.0,0.0,0.0,0.0,0.0,0.0,0.0,0.0,0.0,0.0,0.0,0.0,0.0,0.0,0.0,0.0,0.0,0.0,0.0,0.0,0.0,0.0,0.0,0.0,0.0,0.0,0.0,0.0,0.0,0.0,0.0,0.0,0.0,0.0,0.0,0.0,0.0,0.0,0.0,0.0,0.0,0.0,0.0,0.0,0.0,0.0,0.0,0.0,0.0,0.0,0.0,-4.0449,-3.9833,-3.9262,-3.9193,-3.887,-3.8133,-3.7322,-3.7483,-3.8783,-3.8206,0.0,0.0,0.0,0.0,0.0,0.0,0.0,0.0,0.0,0.0,0.0,0.0,0.0,0.0,0.0,0.0,0.0,0.0,0.0,0.0,0.0,0.0,0.0,0.0,0.0,0.0,0.0,0.0,0.0,0.0,0.0,0.0,0.0,0.0,0.0,0.0,0.0,0.0,0.0,0.0,0.0,0.0,0.0,0.0,0.0,0.0,0.0,0.0,0.0,0.0,0.0,0.0,0.0,0.0,0.0,0.0,0.0,0.0,0.0,0.0,0.0,0.0,0.0,0.0,0.0,0.0,0.0,0.0,0.0,0.0,0.0,0.0,0.0,0.0,0.0,0.0,0.0,0.0,0.0,0.0,0.0,0.0,0.0,0.0,0.0,0.0,0.0,0.0,0.0,0.0,0.0,0.0,0.0,0.0,0.0,0.0,0.0,0.0,0.0,0.0,0.0,0.0,-4.0449,-4.007,-4.002,-4.002,-3.9662,-3.8908,-3.8133,-3.8019,-3.8854,-3.8206,0.0,0.0,0.0,0.0,0.0,0.0,0.0,0.0,0.0,0.0,0.0,0.0,0.0,0.0,0.0,0.0,0.0,0.0,0.0,0.0,0.0,0.0,0.0,0.0,0.0,0.0,0.0,0.0,0.0,0.0,0.0,0.0,0.0,0.0,0.0,0.0,0.0,0.0,0.0,0.0,0.0,0.0,0.0,0.0,0.0,0.0,0.0,0.0,0.0,0.0,0.0,0.0,0.0,0.0,0.0,0.0,0.0,0.0,0.0,0.0,0.0,0.0,0.0,0.0,0.0,0.0,0.0,0.0,0.0,0.0,0.0,0.0,0.0,0.0,0.0,0.0,0.0,0.0,0.0,0.0,0.0,0.0,0.0,0.0,0.0,0.0,0.0,0.0,0.0,0.0,0.0,0.0,0.0,0.0,0.0,0.0,0.0,0.0,0.0,0.0,0.0,0.0,-4.0672,-4.007,-4.007,-4.007,-3.9952,-3.9662,-3.8924,-3.8816,-3.961,0.0,0.0,0.0,0.0,0.0,0.0,0.0,0.0,0.0,0.0,0.0,0.0,0.0,0.0,0.0,0.0,0.0,0.0,0.0,0.0,0.0,0.0,0.0,0.0,0.0,0.0,0.0,0.0,0.0,0.0,0.0,0.0,0.0,0.0,0.0,0.0,0.0,0.0,0.0,0.0,0.0,0.0,0.0,0.0,0.0,0.0,0.0,0.0,0.0,0.0,0.0,0.0,0.0,0.0,0.0,0.0,0.0,0.0,0.0,0.0,0.0,0.0,0.0,0.0,0.0,0.0,0.0,0.0,0.0,0.0,0.0,0.0,0.0,0.0,0.0,0.0,0.0,0.0,0.0,0.0,0.0,0.0,0.0,0.0,0.0,0.0,0.0,0.0,0.0,0.0,0.0,0.0,0.0,0.0,0.0,0.0,0.0,0.0,0.0,0.0,0.0,0.0,-4.175,-4.0938,-4.0286,-4.0121,-4.007,-4.0172,-4.0409,-3.9734,-3.9801,-4.1034,0.0,0.0,0.0,0.0,0.0,0.0,0.0,0.0,0.0,0.0,0.0,0.0,0.0,0.0,0.0,0.0,0.0,0.0,0.0,0.0,0.0,0.0,0.0,0.0,0.0,0.0,0.0,0.0,0.0,0.0,0.0,0.0,0.0,0.0,0.0,0.0,0.0,0.0,0.0,0.0,0.0,0.0,0.0,0.0,0.0,0.0,0.0,0.0,0.0,0.0,0.0,0.0,0.0,0.0,0.0,0.0,0.0,0.0,0.0,0.0,0.0,0.0,0.0,0.0,0.0,0.0,0.0,0.0,0.0,0.0,0.0,0.0,0.0,0.0,0.0,0.0,0.0,0.0,0.0,0.0,0.0,0.0,0.0,0.0,0.0,0.0,0.0,0.0,0.0,0.0,0.0,0.0,0.0,0.0,0.0,0.0,0.0,0.0,0.0,0.0,0.0,0.0,-4.1913,-4.1286,-4.072,-4.0188,-4.0155,-4.0409,-4.1153,-4.0571,-4.1037,0.0,0.0,0.0,0.0,0.0,0.0,0.0,0.0,0.0,0.0,0.0,0.0,0.0,0.0,0.0,0.0,0.0,0.0,0.0,0.0,0.0,0.0,0.0,0.0,0.0,0.0,0.0,0.0,0.0,0.0,0.0,0.0,0.0,0.0,0.0,0.0,0.0,0.0,0.0,0.0,0.0,0.0,0.0,0.0,0.0,0.0,0.0,0.0,0.0,0.0,0.0,0.0,0.0,0.0,0.0,0.0,0.0,0.0,0.0,0.0,0.0,0.0,0.0,0.0,0.0,0.0,0.0,0.0,0.0,0.0,0.0,0.0,0.0,0.0,0.0,0.0,0.0,0.0,0.0,0.0,0.0,0.0,0.0,0.0,0.0,0.0,0.0,0.0,0.0,0.0,0.0,0.0,0.0,0.0,0.0,0.0,0.0,0.0,0.0,0.0,0.0,0.0,0.0,-4.3216,-4.2736,-4.2374,-4.2368,-4.2339,-4.2243,-4.2001,-4.1789,-4.2104,-4.3224,0.0,0.0,0.0,0.0,0.0,0.0,0.0,0.0,0.0,0.0,0.0,0.0,0.0,0.0,0.0,0.0,0.0,0.0,0.0,0.0,0.0,0.0,0.0,0.0,0.0,0.0,0.0,0.0,0.0,0.0,0.0,0.0,0.0,0.0,0.0,0.0,0.0,0.0,0.0,0.0,0.0,0.0,0.0,0.0,0.0,0.0,0.0,0.0,0.0,0.0,0.0,0.0,0.0,0.0,0.0,0.0,0.0,0.0,0.0,0.0,0.0,0.0,0.0,0.0,0.0,0.0,0.0,0.0,0.0,0.0,0.0,0.0,0.0,0.0,0.0,0.0,0.0,0.0,0.0,0.0,0.0,0.0,0.0,0.0,0.0,0.0,0.0,0.0,0.0,0.0,0.0,0.0,0.0,0.0,0.0,0.0,0.0,0.0,0.0,0.0,0.0,0.0,-4.4361,-4.4037,-4.3774,-4.3682,-4.364,-4.362,-4.3491,-4.3508,-4.3927,-4.4847,0.0,0.0,0.0,0.0,0.0,0.0,0.0,0.0,0.0,0.0,0.0,0.0,0.0,0.0,0.0,0.0,0.0,0.0,0.0,0.0,0.0,0.0,0.0,0.0,0.0,0.0,0.0,0.0,0.0,0.0,0.0,0.0,0.0,0.0,0.0,0.0,0.0,0.0,0.0,0.0,0.0,0.0,0.0,0.0,0.0,0.0,0.0,0.0,0.0,0.0,0.0,0.0,0.0,0.0,0.0,0.0,0.0,0.0,0.0,0.0,0.0,0.0,0.0,0.0,0.0,0.0,0.0,0.0,0.0,0.0,0.0,0.0,0.0,0.0,0.0,0.0,0.0,0.0,0.0,0.0,0.0,0.0,0.0,0.0,0.0,0.0,0.0,0.0,0.0,0.0,0.0,0.0,0.0,0.0,0.0,0.0,0.0,0.0,0.0,0.0,0.0,0.0,-4.5349,-4.5287,-4.5065,-4.4547,-4.452,-4.4742,-4.5344,-4.5397,-4.5944,-4.7349,0.0,0.0,0.0,0.0,0.0,0.0,0.0,0.0,0.0,0.0,0.0,0.0,0.0,0.0,0.0,0.0,0.0,0.0,0.0,0.0,0.0,0.0,0.0,0.0,0.0,0.0,0.0,0.0,0.0,0.0,0.0,0.0,0.0,0.0,0.0,0.0,0.0,0.0,0.0,0.0,0.0,0.0,0.0,0.0,0.0,0.0,0.0,0.0,0.0,0.0,0.0,0.0,0.0,0.0,0.0,0.0,0.0,0.0,0.0,0.0,-4.8035,-4.8306,0.0,0.0,0.0,0.0,0.0,0.0,0.0,0.0,0.0,0.0,0.0,0.0,0.0,0.0,0.0,0.0,0.0,0.0,0.0,0.0,0.0,0.0,0.0,0.0,0.0,0.0,0.0,0.0,0.0,0.0,0.0,0.0,0.0,0.0,0.0,0.0,0.0,0.0,0.0,0.0,-4.6634,-4.6687,-4.6694,-4.6722,-4.6733,-4.6569,-4.6212,-4.6183,-4.6532,-4.7324,-4.7385,0.0,0.0,0.0,0.0,0.0,0.0,0.0,0.0,0.0,0.0,0.0,0.0,0.0,0.0,0.0,0.0,0.0,0.0,0.0,0.0,0.0,0.0,0.0,0.0,0.0,0.0,0.0,0.0,0.0,0.0,0.0,0.0,0.0,0.0,0.0,0.0,0.0,0.0,0.0,0.0,0.0,0.0,0.0,0.0,0.0,0.0,0.0,0.0,0.0,0.0,0.0,0.0,0.0,0.0,0.0,0.0,0.0,0.0,0.0,-4.8172,-4.8306,0.0,0.0,0.0,0.0,0.0,0.0,0.0,0.0,0.0,0.0,0.0,0.0,0.0,0.0,0.0,0.0,0.0,0.0,0.0,0.0,0.0,0.0,0.0,0.0,0.0,0.0,0.0,0.0,0.0,0.0,0.0,0.0,0.0,0.0,0.0,0.0,0.0,0.0,0.0,0.0,-4.792,-4.7813,-4.7714,-4.7802,-4.7838,-4.7697,-4.7324,-4.7306,-4.747,-4.7797,-4.7838,0.0,0.0,0.0,0.0,0.0,0.0,0.0,0.0,0.0,0.0,0.0,0.0,0.0,0.0,0.0,0.0,0.0,0.0,0.0,0.0,0.0,0.0,0.0,0.0,0.0,0.0,0.0,0.0,0.0,0.0,0.0,0.0,0.0,0.0,0.0,0.0,0.0,0.0,0.0,0.0,0.0,0.0,0.0,0.0,0.0,0.0,0.0,0.0,0.0,0.0,0.0,0.0,0.0,-4.8306,-4.8306,-4.8306,-4.8306,-4.8306,-4.8306,-4.8306,-4.8306,-4.8306,-4.8306,0.0,0.0,0.0,0.0,0.0,0.0,0.0,0.0,0.0,0.0,0.0,0.0,0.0,0.0,0.0,0.0,0.0,0.0,0.0,0.0,0.0,0.0,-4.8709,-4.8402,-4.8306,-4.8306,-4.8306,0.0,0.0,0.0,0.0,0.0,0.0,0.0,0.0,0.0,0.0,0.0,-4.8795,-4.8513,-4.8306,-4.8306,-4.8306,-4.8306,-4.8306,-4.8306,-4.8306,-4.8306,-4.8306,-4.8306,0.0,0.0,0.0,0.0,0.0,0.0,0.0,0.0,0.0,0.0,0.0,0.0,0.0,0.0,0.0,0.0,0.0,0.0,0.0,0.0,0.0,0.0,0.0,0.0,0.0,0.0,0.0,0.0,0.0,0.0,0.0,0.0,-4.8196,-4.8306,0.0,0.0,0.0,0.0,0.0,0.0,0.0,0.0,0.0,0.0,0.0,0.0,0.0,-4.8306,-4.8306,-4.8306,-4.8306,-4.8306,-4.8306,-4.8306,-4.8306,-4.8306,-4.8306,-4.8306,-4.8306,0.0,-4.8306,-4.8306,0.0,0.0,0.0,0.0,0.0,0.0,0.0,0.0,0.0,0.0,0.0,0.0,0.0,0.0,0.0,0.0,0.0,0.0,0.0,0.0,0.0,0.0,-4.8364,-4.8306,-4.8306,-4.8306,-4.8306,-4.8306,-4.8306,-4.8306,-4.8657,-4.9075,0.0,0.0,0.0,0.0,0.0,0.0,-4.8458,-4.8326,-4.8306,-4.8306,-4.8306,-4.8306,-4.8306,-4.8306,-4.8306,-4.8306,-4.8306,-4.8306,-4.8306,-4.8269,0.0,0.0,0.0,0.0,0.0,0.0,0.0,0.0,0.0,0.0,0.0,0.0,0.0,0.0,0.0,0.0,0.0,0.0,0.0,0.0,0.0,0.0,0.0,0.0,0.0,0.0,0.0,0.0,0.0,-4.8532,-4.8306,-4.8306,-4.8306,-4.8306,0.0,0.0,0.0,0.0,0.0,0.0,0.0,0.0,0.0,-4.8306,-4.8306,-4.8306,-4.8306,-4.8306,-4.8306,-4.8306,-4.8306,-4.8306,-4.8306,-4.8306,-4.8306,-4.8306,-4.8306,-4.8306,-4.8306,-4.8306,-4.855,-4.893,0.0,0.0,0.0,0.0,-4.9898,-5.0043,-4.9636,-4.9664,-4.9827,-4.9827,0.0,0.0,0.0,0.0,0.0,0.0,0.0,-4.9746,-4.9356,-4.893,-4.8568,-4.8364,-4.8477,-4.8621,-4.8621,-4.8621,-4.8568,-4.8326,-4.8813,-4.9295,-4.9475,-4.9664,0.0,0.0,0.0,-4.9029,-4.8692,-4.8458,-4.8306,-4.8306,-4.8306,-4.8306,-4.8306,-4.8306,-4.8306,-4.8306,-4.8306,-4.8383,-4.864,-4.8847,-4.9234,0.0,0.0,0.0,0.0,0.0,0.0,0.0,0.0,0.0,0.0,0.0,0.0,0.0,0.0,0.0,0.0,0.0,0.0,0.0,0.0,0.0,0.0,0.0,0.0,0.0,0.0,0.0,0.0,-4.8728,-4.8458,-4.8458,-4.8364,-4.8306,0.0,0.0,0.0,0.0,0.0,0.0,-4.8306,-4.8306,-4.8306,-4.8306,-4.8306,-4.8306,-4.8306,-4.8306,-4.8306,-4.8306,-4.8306,-4.8306,-4.8306,-4.8306,-4.8306,-4.8306,-4.8306,-4.8306,-4.8306,-4.8306,-4.8495,-4.8744,-4.8863,-4.9139,-4.9504,-4.9504,-4.9746,-5.0043,-4.9636,-4.9692,-4.9949,-4.9949,-5.0019,-5.0159,-5.0462,0.0,0.0,0.0,0.0,-5.0019,-4.9589,-4.9265,-4.8996,-4.8657,-4.8847,-4.9043,-4.9043,-4.9139,-4.9043,-4.8532,-4.8847,-4.9234,-4.9326,-4.9416,0.0,-4.9898,-4.9445,-4.9029,-4.893,-4.855,-4.8344,-4.8458,-4.8458,-4.8477,-4.8604,-4.8604,-4.8604,-4.8604,-4.8604,-4.8763,-4.9043,-4.9326,-4.9692,-5.0092,0.0,0.0,0.0,0.0,0.0,0.0,0.0,0.0,0.0,0.0,0.0,0.0,0.0,0.0,0.0,0.0,0.0,0.0,0.0,0.0,0.0,0.0,0.0,0.0,0.0,0.0,0.0,0.0,0.0,-4.8863,-4.855,0.0,0.0,0.0,0.0,-4.8306,-4.8306,-4.8306,-4.8306,-4.8306,-4.8306,-4.8306,-4.8306,-4.8306,-4.8306,-4.8306,-4.8306,-4.8306,-4.8306,-4.8306,-4.8306,-4.8306,-4.8306,-4.8306,-4.8306,-4.8306,-4.8306,-4.8306,-4.8306,-4.8364,-4.8744,-4.9139,-4.9504,-4.9504,-4.9746,-5.0043,-4.9636,-4.9504,-4.9532,-4.9532,-4.98,-5.0092,-5.0116,-5.0399,0.0,0.0,-5.0135,-5.0019,-4.9589,-4.9475,-4.9475,-4.9445,-4.9445,-4.9475,-4.9475,-4.9773,-4.98,-4.9011,-4.8604,-4.8477,-4.8863,0.0,-4.9504,-4.9532,-4.9504,-4.9326,-4.8963,-4.855,-4.8458,-4.8847,-4.8863,-4.9011,-4.9416,-4.9445,-4.9445,-4.9445,-4.9445,-4.9445,-4.9475,-4.9475,-4.9692,-5.0092,-5.0135,0.0,0.0,0.0,0.0,0.0,0.0,0.0,0.0,0.0,0.0,0.0,0.0,0.0,0.0,0.0,0.0,0.0,0.0,0.0,0.0,0.0,0.0,0.0,0.0,0.0,0.0,0.0,0.0,-4.8513,-4.8402,0.0,-4.8306,-4.8306,-4.8306,-4.8306,-4.8306,-4.8306,-4.8306,-4.8306,-4.8306,-4.8306,-4.8306,-4.8306,-4.8306,-4.8306,-4.8306,-4.8306,-4.8306,-4.8306,-4.8306,-4.8306,-4.8306,-4.8306,-4.8306,-4.8306,-4.8306,-4.8568,-4.8532,-4.8306,-4.8458,-4.8744,-4.9108,-4.9108,-4.9532,-5.0068,-4.9949,-5.0068,-5.0272,-5.0272,-5.0358,-5.0483,-5.0483,-5.0604,-5.0663,-5.0544,-5.0313,-5.0068,-4.9924,-4.9692,-4.9504,-4.9504,-4.9692,-4.9898,-4.9898,-4.9999,-5.0019,-4.9746,-4.9561,-4.9504,-4.9645,-4.9561,-4.9608,-4.9846,-4.9664,-4.9445,-4.9295,-4.9139,-4.9126,-4.9265,-4.9295,-4.9356,-4.9475,-4.9504,-4.9504,-4.9504,-4.9504,-4.9636,-4.9872,-4.9898,-5.0068,-5.0483,-5.0483,-5.0565,0.0,0.0,0.0,0.0,0.0,0.0,0.0,0.0,0.0,0.0,0.0,0.0,0.0,0.0,0.0,0.0,0.0,0.0,0.0,0.0,0.0,0.0,0.0,0.0,0.0,-4.8763,-4.8513,-4.8513,-4.8402,-4.8306,-4.8306,-4.8306,-4.8306,-4.8306,-4.8306,-4.8306,-4.8306,-4.8306,-4.8306,-4.8306,-4.8306,-4.8306,-4.8306,-4.8306,-4.8306,-4.8306,-4.8306,-4.8306,-4.8306,-4.8306,-4.8306,-4.8306,-4.8458,-4.868,-4.8975,-4.9187,-4.9405,-4.947,-4.895,-4.8881,-4.9145,-4.9546,-5.0126,-5.0753,-5.104,-5.1327,-5.1529,-5.1529,-5.1529,-5.1491,-5.1183,-5.1106,-5.1048,-5.0779,-5.0504,-5.0294,-5.0294,-5.0092,-4.9898,-4.9898,-5.0092,-5.0294,-5.0294,-5.0294,-5.0294,-5.0294,-5.0068,-4.9898,-4.9898,-4.98,-4.98,-5.0068,-4.9853,-4.9719,-4.9719,-4.9589,-4.9532,-4.9692,-4.9719,-4.9746,-4.9898,-4.9898,-4.9898,-4.9898,-4.9898,-4.9999,-5.0294,-5.0294,-5.0421,-5.0683,-5.0702,-5.0721,-5.076,0.0,0.0,0.0,0.0,0.0,0.0,0.0,0.0,0.0,0.0,0.0,0.0,0.0,0.0,0.0,0.0,0.0,0.0,0.0,0.0,0.0,0.0,0.0,-4.9416,-4.9139,-4.8897,-4.8897,-4.855,-4.8306,-4.8306,-4.8306,-4.8306,-4.8306,-4.8306,-4.8306,-4.8306,-4.8306,-4.8306,-4.8306,-4.8306,-4.8306,-4.8306,-4.8306,-4.8306,-4.8344,-4.8306,-4.8306,-4.8306,-4.8306,-4.8344,-4.8363,-4.8781,-4.9452,-5.0269,-5.0198,-5.0895,-5.1846,-5.0202,-4.9579,-4.9731,-5.0926,-5.1603,-5.2068,-5.2914,-5.3203,-5.3203,-5.3203,-5.3203,-5.3049,-5.2202,-5.1952,-5.1779,-5.0991,-5.0779,-5.0779,-5.0779,-5.0779,-5.0779,-5.0779,-5.0779,-5.076,-5.0741,-5.0741,-5.0721,-5.0702,-5.0068,-4.9532,-4.9532,-4.9853,-5.0135,-5.0135,-5.0135,0.0,-5.0135,-4.9773,-4.9692,-5.0068,-5.0135,-5.0272,-5.0663,-5.0702,-5.0702,-5.0702,-5.0702,-5.0702,-5.0702,-5.0702,-5.0702,-5.0702,-5.0702,-5.076,-5.0914,0.0,0.0,0.0,0.0,0.0,0.0,0.0,0.0,0.0,0.0,0.0,0.0,0.0,0.0,0.0,0.0,0.0,0.0,0.0,0.0,0.0,-4.9171,-4.8847,-4.8676,-4.855,-4.844,-4.844,-4.8364,-4.8306,-4.8306,-4.8306,-4.8306,-4.8306,-4.8306,-4.8306,-4.8306,-4.8306,-4.8306,-4.8306,-4.8306,-4.8458,-4.8709,-4.8458,-4.8604,-4.9139,-4.8568,-4.8458,-4.8763,-4.8763,-4.9078,-4.9689,-5.0121,-5.0741,-5.1525,-5.1793,-5.1954,-5.193,-5.1171,-5.1235,-5.1782,-5.2133,-5.2503,-5.2876,-5.3126,-5.3203,-5.3203,-5.3203,-5.3203,-5.3164,-5.2933,-5.2837,-5.2799,-5.2568,-5.251,-5.251,-5.251,-5.251,-5.251,-5.251,-5.251,-5.2337,-5.1722,-5.1568,-5.1395,-5.0798,-5.0504,-5.0358,-5.0358,-5.0462,-5.0544,-5.0544,-5.0544,-5.0544,-5.0544,-5.0442,-5.0421,-5.0504,-5.0544,-5.0565,-5.0683,-5.0702,-5.0702,-5.0702,-5.0702,-5.0702,-5.0702,-5.0702,-5.0702,-5.0702,-5.0702,-5.0818,0.0,0.0,0.0,0.0,0.0,0.0,0.0,0.0,0.0,0.0,0.0,0.0,0.0,0.0,0.0,0.0,0.0,0.0,0.0,0.0,0.0,0.0,-4.8897,-4.8568,-4.8326,-4.8306,-4.8306,-4.8306,-4.8306,-4.8306,-4.8306,-4.8306,-4.8306,-4.8306,-4.8306,-4.8306,-4.8306,-4.8306,-4.8306,-4.8306,-4.8306,-4.8421,-4.8657,-4.8421,-4.855,-4.8996,-4.8692,-4.8878,-4.9452,-4.9599,-5.0145,-5.0997,-5.1376,-5.2039,-5.2826,-5.3034,-5.3296,-5.3472,0.0,0.0,0.0,0.0,-5.3766,-5.4241,-5.4241,-5.4241,-5.4241,-5.4241,-5.4241,-5.4184,-5.3857,-5.3741,-5.3664,-5.3299,-5.3203,-5.3203,-5.3203,-5.3203,-5.3203,-5.3203,-5.3203,-5.3068,-5.2549,-5.2452,-5.2318,-5.1837,-5.1741,0.0,-5.1741,-5.1164,-5.0702,-5.0702,-5.0702,-5.0702,-5.0702,-5.0702,-5.0702,-5.0702,-5.0702,-5.0702,-5.0702,-5.0702,0.0,0.0,0.0,-5.0837,-5.1183,-5.1202,0.0,0.0,0.0,-5.1934,-5.2165,-5.2198,0.0,0.0,-5.2007,-5.207,0.0,0.0,0.0,0.0,0.0,0.0,0.0,0.0,0.0,0.0,0.0,0.0,0.0,0.0,0.0,0.0,-4.8621,-4.8383,-4.8306,-4.8344,-4.8364,-4.8364,-4.8344,-4.8306,-4.8364,-4.8344,-4.8306,-4.8306,-4.8306,-4.8306,-4.8306,-4.8306,0.0,0.0,0.0,-4.8344,-4.8364,-4.8364,-4.8421,-4.8513,-4.8906,-4.9552,-5.0347,-5.0802,-5.1452,-5.2237,-5.2653,-5.3296,-5.4098,-5.4034,-5.4685,-5.5549,-5.4068,-5.3264,-5.3097,-5.4213,-5.5088,-5.5703,-5.5703,0.0,0.0,-5.5703,-5.5703,-5.5568,-5.4857,-5.4645,-5.4472,-5.3703,-5.3491,-5.3491,-5.3491,-5.3491,-5.3491,-5.3491,-5.3491,-5.3472,-5.3376,-5.3356,-5.3318,-5.3222,-5.3203,-5.3203,-5.3203,-5.1972,-5.0971,-5.0971,-5.0971,-5.0971,-5.0971,-5.0971,-5.0971,-5.0971,-5.0971,0.0,-5.0971,-5.0971,-5.0971,-5.0971,-5.0971,-5.1298,-5.2029,-5.2049,-5.2433,-5.3203,-5.3338,-5.3475,-5.3629,-5.3745,-5.3929,-5.4121,-5.3242,-5.3262,0.0,0.0,0.0,0.0,0.0,0.0,0.0,0.0,0.0,0.0,0.0,0.0,0.0,0.0,0.0,-4.8963,-4.9126,-4.9029,-4.8402,-4.8568,-4.8779,-4.8779,-4.8477,-4.8421,-4.8744,-4.8477,-4.8306,-4.8306,-4.8306,-4.8306,-4.8306,-4.8306,-4.8306,-4.8306,-4.8306,-4.8458,-4.8779,-4.8779,-4.9108,-4.9746,-5.0212,0.0,-5.1114,-5.1897,-5.2703,-5.3548,-5.3966,-5.46,-5.5369,-5.5327,-5.5487,-5.5665,-5.5338,-5.5182,-5.5138,-5.5374,-5.5568,-5.5703,-5.5703,-5.5703,-5.5703,-5.5703,-5.5703,-5.5665,-5.5511,-5.5472,0.0,-5.5261,-5.5222,-5.5222,-5.5222,-5.5222,-5.5222,-5.5222,-5.5222,-5.503,-5.4395,-5.4241,-5.4049,-5.3337,-5.3203,-5.3203,-5.3203,-5.2933,-5.2722,-5.2722,-5.2722,-5.2722,-5.2722,-5.2722,-5.2722,-5.2722,-5.2722,-5.2722,-5.2722,-5.2722,-5.2722,-5.2722,-5.2722,-5.2799,-5.2953,-5.2953,-5.3068,-5.3358,-5.3397,-5.3532,-5.3764,-5.3783,-5.4239,-5.5039,-5.4141,-5.3848,0.0,0.0,0.0,0.0,0.0,0.0,0.0,0.0,0.0,0.0,0.0,-4.98,0.0,0.0,-4.9589,-4.8978,-4.9234,-4.9202,-4.8421,-4.8813,-4.9043,-4.8657,-4.8604,-4.8604,-4.8604,-4.8604,-4.8513,-4.8306,-4.8306,-4.8306,-4.8306,-4.8306,-4.8383,-4.8604,-4.8604,-4.8779,-4.9202,-4.9615,-5.0037,-5.0445,-5.1307,-5.2022,-5.2616,-5.3264,-5.4005,-5.481,-5.5004,-5.5318,-5.5703,-5.5703,-5.5703,-5.5703,-5.5703,-5.5703,-5.5703,-5.5703,-5.5703,-5.5703,-5.5703,-5.5703,-5.5703,-5.5703,-5.5703,-5.5703,-5.5703,-5.5703,-5.5703,-5.5703,-5.5703,-5.5703,-5.5703,-5.5703,-5.5703,-5.5703,-5.5703,-5.5588,-5.5184,-5.5107,-5.4972,-5.453,-5.4453,-5.4453,-5.4453,-5.4453,-5.4164,-5.3337,-5.3203,-5.3203,-5.3203,-5.3203,-5.3203,-5.3203,-5.3203,-5.3203,-5.3203,-5.3203,-5.3203,-5.3203,-5.3203,-5.3395,-5.3837,-5.3914,-5.4185,-5.4647,-5.482,-5.4975,-5.5092,-5.5152,-5.5456,-5.5937,-5.5508,-5.5293,0.0,0.0,0.0,0.0,0.0,0.0,0.0,0.0,-5.0068,-4.9999,-4.9974,-4.9974,-4.9974,-5.0043,-4.9827,-4.9043,-4.9386,-4.9416,-4.855,-4.9126,-4.9356,-4.8604,-4.8744,-4.8813,-4.855,-4.8692,-4.8657,-4.8326,-4.8364,-4.8421,-4.8421,-4.8477,-4.8692,-4.9029,-4.9029,-4.9246,-4.9749,-5.0496,-5.0989,-5.1159,-5.2393,-5.3345,-5.4033,-5.4498,-5.5088,-5.5703,-5.5703,-5.5703,-5.5703,-5.5703,-5.5703,-5.5703,-5.5703,-5.5799,-5.5934,-5.5761,-5.5703,-5.5703,-5.5703,-5.5703,-5.5703,-5.5703,-5.5703,-5.5703,-5.5703,-5.5703,-5.5703,-5.5703,-5.5703,-5.5703,-5.5703,-5.5703,-5.5703,-5.5703,-5.5703,-5.5703,-5.5703,-5.5703,-5.5703,-5.5703,-5.5703,-5.5703,-5.5703,-5.5703,-5.5241,-5.3895,-5.3683,-5.3683,-5.3683,-5.3683,-5.3683,-5.3683,-5.3683,-5.3683,-5.3683,-5.3703,-5.3722,-5.3722,-5.376,-5.4107,-5.4799,-5.4935,-5.532,-5.5994,-5.6263,-5.6405,-5.6437,-5.6543,-5.6602,-5.6601,-5.6601,-5.6601,-5.0702,-5.0702,-5.0604,-5.0249,-5.0421,-5.0504,0.0,0.0,-4.9999,-4.9645,-4.9561,-4.9561,-4.9561,-4.9853,-4.9827,-4.9043,-4.9853,-5.0159,-4.8996,-4.9532,-4.9872,-4.9416,-4.9075,-4.9011,-4.9326,-4.8763,-4.8326,-4.8306,-4.8621,-4.8829,-4.8829,-4.9171,-4.9386,-4.9416,-4.9445,-4.9852,-5.0665,-5.1057,-5.1631,-5.2412,-5.3683,-5.4334,-5.4468,-5.5201,-5.5607,-5.5703,-5.5703,-5.5703,-5.5703,-5.5703,-5.5703,-5.5703,-5.5703,-5.6165,-5.6761,-5.5992,-5.5703,-5.5703,-5.5703,-5.5703,-5.5703,-5.5703,-5.5703,-5.5703,-5.5703,-5.5703,-5.5703,-5.5703,-5.5703,-5.5703,-5.5703,-5.5703,-5.5703,-5.5703,-5.5703,-5.5703,-5.5703,-5.5703,-5.5703,-5.5703,-5.5703,-5.5703,-5.5703,-5.5703,-5.5645,-5.5453,-5.5415,-5.5415,-5.5415,-5.5415,-5.5415,-5.5415,-5.5415,-5.5415,-5.5415,-5.553,-5.5588,-5.5588,-5.5782,-5.5917,-5.6013,-5.6032,-5.6128,-5.634,-5.6379,-5.6451,-5.6571,-5.6593,-5.6598,-5.6601,-5.6601,-5.6601,-5.0702,-5.0702,-5.0663,0.0,-5.0584,-5.0544,-4.9974,-4.9974,-5.0043,-4.9879,-4.9853,-4.9924,-5.0159,-5.0336,-5.0272,0.0,-5.0206,-5.0358,-4.9386,-4.9949,-5.0313,-4.9898,-4.97,-4.9561,-4.9504,-4.9416,-4.9265,-4.9029,-4.9139,-4.9265,-4.9265,-4.9416,-4.9608,-4.9827,-5.0309,-5.0831,-5.1424,-5.2579,-5.3338,-5.3702,-5.4718,-5.5203,-5.5203,-5.5549,-5.5703,-5.5703,-5.5703,-5.5703,-5.5742,-5.6242,-5.6453,-5.6511,-5.7011,-5.7434,-5.7646,-5.678,-5.678,-5.7203,-5.7203,-5.6992,-5.6739,-5.7107,-5.7415,-5.7629,-5.73,-5.7203,-5.7107,-5.6588,-5.6453,-5.6338,-5.5818,-5.5703,-5.5703,-5.5703,-5.5703,-5.5703,-5.5703,-5.5703,-5.5703,-5.5703,-5.5703,-5.5703,-5.5703,-5.5703,-5.5703,-5.5703,-5.5703,-5.5703,-5.5703,-5.5703,-5.5703,-5.5703,-5.5761,-5.5818,-5.5818,-5.5994,-5.6059,-5.6087,-5.616,-5.6199,-5.6199,-5.6271,-5.634,-5.6398,-5.6473,-5.6536,-5.6601,-5.6601,-5.6601,-5.6601,-5.6601,-5.6601,-5.0702,-5.0702,0.0,-5.0702,-5.0702,-5.0624,-5.0336,-5.0272,-5.0272,-5.0272,-5.0272,-5.0358,-5.0663,-5.0702,-5.0565,-5.0121,-5.0402,-5.0442,-4.969,-5.0252,-5.0604,-5.0313,-5.0272,-5.0159,-4.9853,-4.9898,-4.98,-4.9504,-4.9589,-4.9664,-4.9664,-4.9773,-5.0063,-5.0574,-5.117,-5.1836,-5.2626,-5.3876,-5.4607,-5.4838,-5.5415,-5.5703,-5.5703,-5.5703,-5.5703,-5.5703,-5.5953,-5.6049,-5.6126,-5.6992,-5.7357,-5.7415,-5.805,-5.8434,-5.855,-5.7915,-5.7953,-5.83,-5.83,-5.8008,-5.7739,-5.8338,-5.8665,-5.8842,-5.8588,-5.8415,-5.8165,-5.753,-5.7357,-5.7203,-5.6569,-5.6415,-5.6415,-5.6415,-5.6415,-5.6415,-5.6415,-5.6415,-5.6415,-5.6415,-5.6222,-5.6049,-5.6049,-5.5857,-5.5703,-5.5703,-5.5703,-5.5703,-5.5703,-5.5722,-5.5761,-5.5761,-5.5876,-5.5978,-5.5981,-5.6154,-5.6252,-5.6257,-5.6281,-5.6313,-5.6313,-5.6401,-5.6474,-5.6474,-5.6548,-5.6601,-5.6601,-5.6601,-5.6601,-5.6601,-5.6601,-5.6601,0.0,0.0,-5.0702,-5.0702,-5.0702,-5.0702,-5.0683,-5.0683,-5.0683,-5.0683,-5.0683,-5.0683,-5.0702,-5.0702,-5.0526,-4.9988,-5.0344,-5.0506,-4.9964,-5.0344,-5.0702,-5.0683,-5.0683,-5.0683,-5.0663,-4.9974,-4.9504,-4.9504,-4.9853,-5.0068,-5.0068,-5.0442,-5.1029,-5.1817,-5.1875,-5.2701,-5.4395,-5.4472,-5.4895,-5.5665,-5.5684,-5.5703,-5.5703,-5.5703,-5.5703,-5.5742,-5.6588,-5.6953,-5.703,-5.7896,-5.8261,-5.8261,-5.83,-5.8781,-5.9454,-5.9435,-5.8954,-5.83,-5.83,-5.83,-5.8357,-5.8899,-5.8723,-5.8415,-5.8918,-5.8704,-5.83,-5.828,-5.8261,-5.8261,-5.8242,-5.8223,-5.8223,-5.8223,-5.8223,-5.8223,-5.8223,-5.8223,-5.8223,-5.8223,-5.753,-5.6953,-5.6953,-5.6261,-5.5703,-5.5703,-5.5703,-5.5703,-5.5703,-5.5799,-5.5876,-5.5876,-5.6071,-5.6193,-5.6197,-5.6321,-5.6379,-5.6381,-5.6519,-5.6582,-5.6582,-5.6581,-5.6581,-5.6581,-5.6601,-5.6601,-5.6601,-5.6601,-5.6601,-5.6601,-5.6601,-5.6601,-5.0702,0.0,-5.0702,-5.0702,-5.0702,-5.0702,-5.0702,-5.0702,-5.0702,-5.0702,-5.0702,-5.0702,-5.0702,-5.0702,-5.0644,-5.0466,-5.0566,-5.0644,-5.0466,-5.0585,-5.0702,-5.0702,-5.0702,-5.0702,-5.0702,-5.0462,-5.0313,-5.0313,-5.0421,-5.0504,-5.0504,-5.1143,-5.1625,-5.1895,-5.3029,-5.3914,-5.4491,-5.503,-5.5434,-5.5703,-5.5703,-5.5703,-5.5722,-5.6299,-5.6549,-5.6607,-5.7473,-5.7857,-5.7934,-5.8761,-5.9108,-5.9146,-5.9723,-6.0127,-6.0358,-6.0358,-6.0185,-5.9954,-5.9954,-5.9954,-5.9992,-6.0165,-6.0108,-5.9992,-6.0165,-6.0089,-5.9838,-5.9261,-5.9108,-5.8973,-5.8434,-5.83,-5.83,-5.83,-5.83,-5.83,-5.83,-5.83,-5.83,-5.83,-5.8069,-5.7877,-5.7976,-5.7687,-5.7434,-5.7434,-5.6511,-5.5818,-5.5818,-5.6436,-5.6888,-5.6907,-5.7563,-5.7987,-5.7986,-5.8165,-5.8265,-5.8265,-5.8306,-5.832,-5.832,-5.832,-5.832,-5.832,-5.832,-5.832,-5.832,-5.832,-5.832,-5.832,-5.832,-5.832,-5.0702,-5.0702,-5.0702,-5.0702,-5.0702,-5.0702,-5.0702,-5.0702,-5.0702,-5.0702,-5.0702,-5.0702,-5.0702,-5.0702,-5.0702,-5.0702,-5.0702,-5.0702,-5.0702,-5.0702,-5.0702,-5.0702,-5.0702,-5.0702,0.0,-5.0702,-5.0702,-5.0702,-5.0702,-5.0818,-5.1106,-5.1625,-5.2202,-5.2818,-5.3914,-5.4645,-5.4934,-5.5434,-5.5703,-5.5703,-5.5703,-5.5857,-5.6184,-5.6742,-5.7165,-5.7511,-5.8357,-5.8723,-5.88,-5.9627,-5.9954,-6.0012,-6.0569,-6.08,-6.08,-6.08,-6.08,-6.08,-6.08,-6.08,-6.08,-6.08,-6.08,-6.08,-6.08,-6.08,-6.0685,-6.0127,-5.9954,-5.9858,-5.9338,-5.9184,-5.9184,-5.9184,-5.9184,-5.9184,-5.9184,-5.9184,-5.9184,-5.9184,-5.8992,-5.888,-5.8938,-5.8668,-5.8434,-5.8434,-5.7591,-5.6939,-5.684,-5.7478,-5.7931,-5.7935,-5.8575,-5.8997,-5.8997,-5.9129,-5.9199,-5.9199,-5.9199,-5.9199,-5.9199,-5.9199,-5.9199,-5.9199,-5.9199,-5.9199,-5.9199,-5.9199,-5.9199,-5.9199,-5.9199,-5.9199,-5.0702,-5.0702,-5.0702,-5.0702,-5.0702,-5.0702,-5.0702,-5.0702,-5.0702,-5.0702,-5.0702,-5.0702,0.0,0.0,-5.0702,-5.0702,-5.0702,-5.0702,-5.0702,-5.0702,-5.0702,0.0,0.0,0.0,0.0,0.0,-5.0721,-5.0779,-5.076,-5.1087,-5.1875,-5.1991,-5.2799,-5.4453,-5.453,-5.4934,-5.5684,-5.5703,-5.5703,-5.5703,-5.5742,-5.6203,-5.6992,-5.7088,-5.7569,-5.8415,-5.9223,-5.9569,-5.9627,-6.0454,-6.08,-6.08,-6.08,-6.08,-6.08,-6.08,-6.08,-6.08,-6.08,-6.08,-6.08,-6.08,-6.08,-6.08,-6.08,-6.08,-6.08,-6.08,-6.08,-6.08,-6.08,-6.08,-6.08,-6.08,-6.08,-6.08,-6.08,-6.08,-6.08,-6.08,-6.0323,-5.9861,-5.9887,-5.9312,-5.883,-5.8828,-5.8924,-5.8927,-5.8556,-5.8796,-5.8972,-5.8972,-5.9198,-5.9336,-5.9336,-5.9336,-5.9336,-5.9336,-5.9336,-5.9336,-5.9336,-5.9336,-5.9336,-5.9336,-5.9336,-5.9336,-5.9336,-5.9336,-5.9336,-5.9336,-5.9336,-5.9336,-5.0702,-5.0702,-5.0702,-5.0702,-5.0702,-5.0702,-5.0702,-5.0702,-5.0702,-5.0702,-5.0702,-5.0702,0.0,0.0,0.0,-5.0702,-5.0702,0.0,-5.0702,-5.0702,0.0,-5.0702,0.0,-5.0702,-5.0702,-5.0702,-5.1048,-5.1895,-5.1741,-5.1683,-5.1895,-5.3126,-5.4049,-5.4491,-5.5068,-5.5491,-5.5703,-5.5703,-5.5703,-5.5703,-5.6357,-5.678,-5.703,-5.828,-5.8973,-5.9242,-6.0108,-6.0473,-6.0492,-6.0704,-6.08,-6.08,-6.08,-6.08,-6.08,-6.08,-6.08,-6.08,-6.08,-6.08,-6.08,-6.08,-6.08,-6.08,-6.08,-6.08,-6.08,-6.08,-6.08,-6.08,-6.08,-6.08,-6.08,-6.08,-6.08,-6.08,-6.08,-6.08,-6.0819,-6.0916,-6.1016,-6.1034,-6.0938,-6.0838,-6.0754,-6.0656,-6.0713,-6.0288,-5.8984,-5.9503,-6.0026,-6.0026,-6.0635,-6.1055,-6.1055,-6.1055,-6.1055,-6.1055,-6.1055,-6.1055,-6.1055,-6.1055,-6.1055,-6.1055,-6.1055,-6.1055,-6.1055,-6.1055,-6.1055,-6.1055,-6.1055,-6.1055,-5.0702,-5.0702,-5.0702,-5.0702,-5.0702,-5.0702,-5.0702,-5.0702,-5.0702,-5.0702,-5.0702,0.0,-5.0702,-5.0702,0.0,0.0,0.0,0.0,-5.0702,-5.0702,-5.0702,0.0,-5.0702,0.0,-5.0702,-5.0701,-5.1258,-5.2645,-5.2375,-5.2374,-5.301,-5.3972,-5.4664,-5.5011,-5.5453,-5.5703,-5.5703,-5.5703,-5.5876,-5.628,-5.6898,-5.7492,-5.8127,-5.9069,-5.9704,-6.0108,-6.0589,-6.08,-6.08,-6.08,-6.08,-6.08,-6.08,-6.08,-6.08,-6.08,-6.08,-6.08,-6.08,-6.08,-6.08,-6.08,-6.08,-6.08,-6.08,-6.08,-6.08,-6.08,-6.08,-6.08,-6.08,-6.08,-6.08,-6.08,-6.08,-6.08,-6.08,-6.08,-6.0872,-6.108,-6.1327,-6.1466,-6.1478,-6.1548,-6.157,-6.1489,-6.1523,-6.1193,-6.0253,-6.0614,-6.0976,-6.0976,-6.1406,-6.1699,-6.1699,-6.1699,-6.1699,-6.1699,-6.1699,-6.1699,-6.1699,-6.1699,-6.1699,-6.1699,-6.1699,-6.1699,-6.1699,-6.1699,-6.1699,-6.1699,-6.1699,-6.1699,-5.0702,-5.0702,-5.0702,-5.0702,-5.0702,-5.0702,-5.0702,-5.0702,-5.0702,-5.0702,0.0,-5.0702,-5.0702,-5.0702,-5.0702,-5.0702,0.0,-5.0702,-5.0702,-5.0702,-5.0702,-5.0702,-5.0702,-5.0682,-5.0701,-5.1105,-5.1971,-5.3414,-5.3086,-5.3297,-5.4376,-5.4587,-5.4972,-5.5684,-5.5703,-5.5703,-5.5703,-5.5838,-5.6222,-5.6819,-5.7418,-5.828,-5.9454,-5.9608,-6.0089,-6.08,-6.08,-6.08,-6.08,-6.08,-6.08,-6.08,-6.08,-6.08,-6.08,-6.08,-6.08,-6.08,-6.08,-6.08,-6.08,-6.08,-6.08,-6.08,-6.08,-6.08,-6.08,-6.08,-6.08,-6.08,-6.08,-6.08,-6.08,-6.08,-6.08,-6.08,-6.08,-6.0819,-6.0938,-6.1255,-6.138,-6.1504,-6.167,-6.1699,-6.1709,-6.1694,-6.1698,-6.1717,-6.1717,-6.1693,-6.1699,-6.1699,-6.1699,-6.1699,-6.1699,-6.1699,-6.1699,-6.1699,-6.1699,-6.1699,-6.1699,-6.1699,-6.1699,-6.1699,-6.1699,-6.1699,-6.1699,-6.1699,-6.1699,-6.1699,-6.1699,-6.1699,-5.0702,-5.0702,-5.0702,-5.0702,-5.0702,-5.0702,-5.0702,-5.0702,0.0,0.0,-5.0702,-5.0702,-5.0702,-5.0702,-5.0702,-5.0702,0.0,0.0,0.0,0.0,-5.0702,0.0,0.0,0.0,-5.0701,-5.3222,-5.4955,-5.5224,-5.5164,-5.4818,-5.4105,-5.4972,-5.5549,-5.5703,-5.5703,-5.5703,-5.5703,-5.6648,-5.6703,-5.5951,-5.8107,-5.9146,-5.9204,-6.0146,-6.0666,-6.08,-6.08,-6.08,-6.08,-6.08,-6.08,-6.08,-6.08,-6.08,-6.08,-6.08,-6.08,-6.08,-6.08,-6.08,-6.08,-6.08,-6.08,-6.08,-6.08,-6.08,-6.08,-6.08,-6.08,-6.08,-6.08,-6.08,-6.08,-6.08,-6.08,-6.08,-6.08,-6.0916,-6.1116,-6.1343,-6.153,-6.1662,-6.1698,-6.1699,-6.1698,-6.1694,-6.1701,-6.169,-6.169,-6.1694,-6.1699,-6.1699,-6.1699,-6.1699,-6.1699,-6.1699,-6.1699,-6.1699,-6.1699,-6.1699,-6.1699,-6.1699,-6.1699,-6.1699,-6.1699,-6.1699,-6.1699,-6.1699,-6.1699,-6.1699,-6.1699,-6.1699,-5.0702,-5.0702,-5.0702,-5.0702,-5.0702,-5.0702,-5.0702,0.0,0.0,0.0,-5.0702,-5.0702,-5.0702,0.0,0.0,0.0,0.0,0.0,0.0,0.0,0.0,0.0,0.0,0.0,0.0,-5.4762,-5.5707,-5.5705,-5.5684,-5.5453,-5.4914,-5.5395,-5.5703,-5.5703,-5.5703,-5.5703,-5.5703,-5.6242,-5.6703,-5.7066,-5.9165,-6.0108,-6.0012,-6.055,-6.08,-6.08,-6.08,-6.08,-6.08,-6.08,-6.08,-6.08,-6.08,-6.08,-6.08,-6.08,-6.08,-6.08,-6.08,-6.08,-6.08,-6.08,-6.08,-6.08,-6.08,-6.08,-6.08,-6.08,-6.08,-6.08,-6.08,-6.08,-6.08,-6.08,-6.08,-6.08,-6.08,-6.1001,-6.1233,-6.1312,-6.1548,-6.1699,-6.1699,-6.1699,-6.1699,-6.1699,-6.1699,-6.1699,-6.1699,-6.1699,-6.1699,-6.1699,-6.1699,-6.1699,-6.1699,-6.1699,-6.1699,-6.1699,-6.1699,-6.1699,-6.1699,-6.1699,-6.1699,-6.1699,-6.1699,-6.1699,-6.1699,-6.1699,-6.1699,-6.1699,-6.1699,-6.1699,-5.0702,-5.0702,-5.0702,-5.0702,-5.0702,-5.0702,-5.0702,-5.0702,0.0,0.0,-5.0702,-5.0702,-5.0702,0.0,0.0,0.0,0.0,0.0,0.0,0.0,0.0,0.0,0.0,0.0,-5.5436,-5.5707,-5.5705,-5.5703,-5.5703,-5.5703,-5.5703,-5.5703,-5.5703,-5.5703,-5.5703,-5.5703,-5.5703,-5.5701,-5.6758,-5.8838,-6.0169,-6.0804,-6.08,-6.08,-6.08,-6.08,-6.08,-6.08,-6.08,-6.08,-6.08,-6.08,-6.08,-6.08,-6.08,-6.08,-6.08,-6.08,-6.08,-6.08,-6.08,-6.08,-6.08,-6.08,-6.08,-6.08,-6.08,-6.08,-6.08,-6.08,-6.08,-6.08,-6.08,-6.08,-6.08,-6.08,-6.08,-6.1111,-6.1383,-6.1384,-6.1556,-6.1699,-6.1699,-6.1699,-6.1699,-6.1699,-6.1699,-6.1699,-6.1699,-6.1699,-6.1699,-6.1699,-6.1699,-6.1699,-6.1699,-6.1699,-6.1699,-6.1699,-6.1699,-6.1699,-6.1699,-6.1699,-6.1699,-6.1699,-6.1699,-6.1699,-6.1699,-6.1699,-6.1699,-6.1699,-6.1699,-6.1699,-5.0702,-5.0702,-5.0702,-5.0702,-5.0702,-5.0702,-5.0702,0.0,0.0,-5.0702,-5.0702,-5.0702,-5.0702,0.0,0.0,0.0,0.0,-5.0702,0.0,0.0,0.0,0.0,0.0,0.0,-5.5668,-5.5705,-5.5703,-5.5703,-5.5703,-5.5703,-5.5703,-5.5703,-5.5703,-5.5703,-5.5703,-5.5703,-5.5701,-5.5695,-5.7332,-6.0554,-6.0746,-6.08,-6.08,-6.08,-6.08,-6.08,-6.08,-6.08,-6.08,-6.08,-6.08,-6.08,-6.08,-6.08,-6.08,-6.08,-6.08,-6.08,-6.08,-6.08,-6.08,-6.08,-6.08,-6.08,-6.08,-6.08,-6.08,-6.08,-6.08,-6.08,-6.08,-6.08,-6.08,-6.08,-6.08,-6.08,-6.08,-6.1247,-6.1646,-6.1658,-6.1678,-6.1699,-6.1699,-6.1699,-6.1699,-6.1699,-6.1699,-6.1699,-6.1699,-6.1699,-6.1699,-6.1699,-6.1699,-6.1699,-6.1699,-6.1699,-6.1699,-6.1699,-6.1699,-6.1699,-6.1699,-6.1699,-6.1699,-6.1699,-6.1699,-6.1699,-6.1699,-6.1699,-6.1699,-6.1699,-6.1699,-6.1699,-5.0702,-5.0702,-5.0702,-5.0702,-5.0702,-5.0702,-5.0702,0.0,0.0,-5.112,-5.112,-5.112,-5.112,-5.112,0.0,0.0,0.0,0.0,0.0,0.0,0.0,0.0,0.0,0.0,0.0,-5.5684,-5.5703,-5.5703,-5.5703,-5.5703,-5.5703,-5.5703,-5.5703,-5.5703,-5.5703,-5.5701,-5.5701,-5.7739,-5.9454,-6.0808,-6.0804,-6.08,-6.08,-6.08,-6.08,-6.08,-6.08,-6.08,-6.08,-6.08,-6.08,-6.08,-6.08,-6.08,-6.08,-6.08,-6.08,-6.08,-6.08,-6.08,-6.08,-6.08,-6.08,-6.08,-6.08,-6.08,-6.08,-6.08,-6.08,-6.08,-6.08,-6.08,-6.08,-6.08,-6.08,-6.08,-6.08,-6.1269,-6.1706,-6.1709,-6.1699,-6.1699,-6.1699,-6.1699,-6.1699,-6.1699,-6.1699,-6.1699,-6.1699,-6.1699,-6.1699,-6.1699,-6.1699,-6.1699,-6.1699,-6.1699,-6.1699,-6.1699,-6.1699,-6.1699,-6.1699,-6.1699,-6.1699,-6.1699,-6.1699,-6.1699,-6.1699,-6.1699,-6.1699,-6.1699,-6.1699,-6.1699,-5.076,-5.0721,-5.0702,-5.0702,-5.0702,-5.0741,0.0,0.0,0.0,-5.1406,-5.1408,-5.1408,-5.1408,-5.1408,-5.1408,0.0,0.0,-5.2823,-5.2485,0.0,0.0,0.0,0.0,-5.5703,-5.5703,-5.5703,-5.5703,-5.5703,-5.5703,-5.5703,-5.5703,-5.5703,-5.5703,-5.5703,-5.5701,-5.6181,-5.7203,-5.9592,-6.0785,-6.0804,-6.0804,-6.08,-6.08,-6.08,-6.08,-6.08,-6.08,-6.08,-6.08,-6.08,-6.08,-6.08,-6.08,-6.08,-6.08,-6.08,-6.08,-6.08,-6.08,-6.08,-6.08,-6.08,-6.08,-6.08,-6.08,-6.08,-6.08,-6.08,-6.08,-6.08,-6.08,-6.08,-6.08,-6.08,-6.08,-6.0839,-6.1012,-6.1401,-6.1698,-6.1704,-6.1699,-6.1699,-6.1699,-6.1699,-6.1699,-6.1699,-6.1699,-6.1699,-6.1699,-6.1699,-6.1699,-6.1699,-6.1699,-6.1699,-6.1699,-6.1699,-6.1699,-6.1699,-6.1699,-6.1699,-6.1699,-6.1699,-6.1699,-6.1699,-6.1699,-6.1699,-6.1699,-6.1699,-6.1699,-6.1699,-6.1699,-6.1699,-5.0914,-5.0818,-5.0702,-5.0702,-5.0702,-5.0813,0.0,0.0,-5.1389,-5.1391,-5.1406,-5.1406,-5.1406,-5.1406,-5.1406,-5.1406,-5.4297,0.0,-5.6543,0.0,0.0,0.0,0.0,-5.5703,-5.5703,-5.5703,-5.5703,-5.5703,-5.5703,-5.5703,-5.5703,-5.5703,-5.5703,-5.5703,-5.5701,-5.7319,-6.0715,-6.0769,-6.0804,-6.08,-6.08,-6.08,-6.08,-6.08,-6.08,-6.08,-6.08,-6.08,-6.08,-6.08,-6.08,-6.08,-6.08,-6.08,-6.08,-6.08,-6.08,-6.08,-6.08,-6.08,-6.08,-6.08,-6.08,-6.08,-6.08,-6.08,-6.08,-6.08,-6.08,-6.08,-6.08,-6.08,-6.08,-6.08,-6.08,-6.0954,-6.1555,-6.1689,-6.1698,-6.1704,-6.1699,-6.1699,-6.1699,-6.1699,-6.1699,-6.1699,-6.1699,-6.1699,-6.1699,-6.1699,-6.1699,-6.1699,-6.1699,-6.1699,-6.1699,-6.1699,-6.1699,-6.1699,-6.1699,-6.1699,-6.1699,-6.1699,-6.1699,-6.1699,-6.1699,-6.1699,-6.1699,-6.1699,-6.1699,-6.1699,-6.1699,-6.1699,-5.0912,-5.0875,-5.0818,-5.0721,-5.0702,-5.0817,-5.1305,0.0,-5.1396,-5.1405,-5.1406,-5.1406,-5.1406,-5.1406,-5.2187,-5.457,-5.5879,0.0,0.0,0.0,0.0,0.0,-5.5962,-5.5703,-5.5703,-5.5703,-5.5703,-5.5703,-5.5703,-5.5703,-5.5703,-5.5703,-5.5703,-5.5701,-5.5698,-5.7354,-6.0769,-6.0804,-6.0781,-6.08,-6.08,-6.08,-6.08,-6.08,-6.08,-6.08,-6.08,-6.08,-6.08,-6.08,-6.08,-6.08,-6.08,-6.08,-6.08,-6.08,-6.08,-6.08,-6.08,-6.08,-6.0796,-6.0796,-6.0791,-6.081,-6.081,-6.0796,-6.08,-6.08,-6.08,-6.08,-6.08,-6.08,-6.0914,-6.132,-6.1428,-6.1478,-6.1651,-6.1686,-6.1699,-6.1698,-6.1699,-6.1699,-6.1699,-6.1699,-6.1699,-6.1699,-6.1699,-6.1699,-6.1699,-6.1699,-6.1699,-6.1699,-6.1699,-6.1699,-6.1699,-6.1699,-6.1699,-6.1699,-6.1699,-6.1699,-6.1699,-6.1699,-6.1699,-6.1699,-6.1699,-6.1699,-6.1699,-6.1699,-6.1699,-6.1699,-6.1699,-6.1699,0.0,-5.1009,-5.089,-5.0851,-5.0773,0.0,0.0,0.0,-5.1406,-5.1406,-5.1406,-5.1406,-5.1406,-5.248,-5.4062,-5.625,-5.6601,0.0,0.0,0.0,0.0,0.0,0.0,0.0,-5.5703,-5.5703,-5.5703,-5.5703,-5.5703,-5.5703,-5.5703,-5.5703,-5.5701,-5.5698,-5.697,-5.8646,-6.0789,-6.0804,-6.08,-6.08,-6.08,-6.08,-6.08,-6.08,-6.08,-6.08,-6.08,-6.08,0.0,-6.08,-6.08,-6.08,-6.08,-6.08,-6.08,-6.08,-6.08,-6.08,-6.08,-6.0796,-6.1007,-6.23,-6.2724,-6.2719,-6.2719,-6.1815,-6.0796,-6.0796,-6.0796,-6.0796,-6.0796,-6.0957,-6.1233,-6.1608,-6.1691,-6.1696,-6.1696,-6.1699,-6.1699,-6.1699,-6.1699,-6.1699,-6.1699,-6.1699,-6.2148,-6.3457,-6.3652,-6.3652,-6.3652,-6.3652,-6.3652,-6.3652,-6.3652,-6.3652,-6.3652,-6.2461,-6.1699,-6.1699,-6.1699,-6.1699,-6.1699,-6.1699,-6.1699,-6.1699,-6.1699,-6.1699,-6.1699,-6.1699,-6.1699,-6.1699,-6.1699,-6.1699,0.0,0.0,0.0,0.0,0.0,0.0,0.0,0.0,0.0,-5.1406,-5.1406,-5.1484,-5.1719,-5.4414,-5.6601,-5.6601,0.0,0.0,0.0,0.0,0.0,0.0,-5.5703,-5.5703,-5.5703,-5.5703,-5.5703,-5.5703,-5.5703,-5.5703,-5.5703,-5.5701,-5.5813,-5.606,-5.9149,-6.0789,-6.0808,-6.0804,-6.08,-6.08,-6.08,-6.08,-6.08,-6.08,-6.08,-6.08,-6.08,-6.08,-6.08,-6.08,-6.08,-6.08,-6.08,-6.08,-6.08,-6.08,-6.08,-6.08,-6.0796,-6.0969,-6.168,-6.4869,-6.5914,-6.5914,-6.5914,-6.3685,-6.1151,-6.1151,-6.1151,-6.1151,-6.1156,-6.1619,-6.206,-6.2064,-6.2074,-6.207,-6.207,-6.207,-6.207,-6.207,-6.207,-6.207,-6.207,-6.207,-6.3164,-6.6406,-6.6894,-6.6894,-6.6894,-6.6894,-6.6894,-6.6894,-6.6894,-6.6894,-6.6894,-6.3926,-6.207,-6.207,-6.207,-6.207,-6.207,-6.207,-6.207,-6.207,-6.207,-6.207,-6.207,-6.207,-6.207,-6.207,-6.207,-6.207,-5.1406,0.0,-5.1299,-5.1318,-5.1285,0.0,0.0,0.0,0.0,0.0,0.0,0.0,0.0,0.0,0.0,0.0,0.0,0.0,0.0,0.0,0.0,-5.5768,-5.5703,-5.5703,-5.5703,-5.5703,-5.5703,-5.5703,-5.5703,-5.5703,-5.5703,-5.5701,-5.6915,-5.9537,-6.0384,-6.0785,-6.0804,-6.08,-6.08,-6.08,-6.08,-6.08,-6.08,-6.08,-6.08,-6.08,-6.08,-6.08,-6.08,-6.08,-6.08,-6.08,-6.08,-6.08,-6.08,-6.08,-6.0796,-6.0791,-6.0791,-6.2507,-6.4826,-6.5653,-6.5903,-6.5903,-6.5903,-6.5345,-6.4691,-6.4691,-6.4696,-6.4696,-6.4696,-6.5183,-6.568,-6.5683,-6.5671,-6.5683,-6.5683,-6.5683,-6.5683,-6.5683,-6.5683,-6.5683,-6.5683,-6.5683,-6.5957,-6.6777,-6.6894,-6.6894,-6.6894,-6.6894,-6.6894,-6.6894,-6.6894,-6.6894,-6.6894,-6.6152,-6.5683,-6.5683,-6.5683,-6.5683,-6.5683,-6.5683,-6.5683,-6.5683,-6.5683,-6.5683,-6.5683,-6.5683,-6.5683,-6.5683,-6.5683,-6.5683,-5.1406,-5.1406,-5.1406,-5.1406,-5.1406,-5.1406,0.0,0.0,0.0,0.0,0.0,0.0,0.0,0.0,0.0,0.0,0.0,0.0,0.0,0.0,0.0,-5.6153,-5.6112,-5.612,-5.612,-5.5847,-5.5703,-5.5703,-5.5703,-5.5703,-5.5682,-5.5698,-5.7277,-6.0692,-6.0785,-6.0804,-6.08,-6.08,-6.08,-6.08,-6.08,-6.08,-6.08,-6.08,-6.08,-6.08,-6.08,-6.08,-6.08,-6.08,-6.0957,-6.1194,-6.1194,-6.1194,-6.1194,-6.1194,-6.1213,-6.1408,-6.2683,-6.4364,-6.5903,-6.5897,-6.5897,-6.5897,-6.5897,-6.5903,-6.5909,-6.5909,-6.5909,-6.5967,-6.6275,-6.6627,-6.6902,-6.6891,-6.6894,-6.6894,-6.6894,-6.6894,-6.6894,-6.6894,-6.6894,-6.6894,-6.6894,-6.6894,-6.6894,-6.6894,-6.6894,-6.6894,-6.6894,-6.6894,-6.6894,-6.6894,-6.6894,-6.6894,-6.6894,-6.6894,-6.6894,-6.6894,-6.6894,-6.6894,-6.6894,-6.6894,-6.6894,-6.6894,-6.6894,-6.6894,-6.6894,-6.6894,-6.6894,-6.6894,-6.6894,-6.6894,-5.1406,-5.1406,-5.1406,-5.1406,-5.1406,-5.1406,0.0,0.0,0.0,0.0,0.0,0.0,0.0,0.0,0.0,0.0,0.0,0.0,0.0,0.0,-5.6601,-5.6601,-5.6606,-5.6602,-5.6602,-5.6151,-5.5845,-5.5847,-5.5745,-5.5703,-5.5701,-5.6198,-5.7816,-6.0712,-6.0804,-6.08,-6.08,-6.08,-6.08,-6.08,-6.0891,-6.0891,-6.08,-6.08,-6.0846,-6.0935,-6.0935,-6.0935,-6.0935,-6.0943,-6.1254,-6.1694,-6.1693,-6.1705,-6.1705,-6.1705,-6.1705,-6.211,-6.5045,-6.6052,-6.6044,-6.6044,-6.5972,-6.5897,-6.5897,-6.5972,-6.6039,-6.6038,-6.6051,-6.6167,-6.675,-6.6896,-6.69,-6.6895,-6.6894,-6.6894,-6.6894,-6.6894,-6.6894,-6.6894,-6.6894,-6.6894,-6.6894,-6.6894,-6.6894,-6.6894,-6.6894,-6.6894,-6.6894,-6.6894,-6.6894,-6.6894,-6.6894,-6.6894,-6.6894,-6.6894,-6.6894,-6.6894,-6.6894,-6.6894,-6.6894,-6.6894,-6.6894,-6.6894,-6.6894,-6.6894,-6.6894,-6.6894,-6.6894,-6.6894,-6.6894,-6.6894,-5.1406,-5.1406,-5.1406,-5.1406,-5.1406,-5.1406,0.0,0.0,0.0,0.0,0.0,0.0,0.0,0.0,0.0,0.0,0.0,-5.6601,0.0,0.0,-5.6601,-5.6601,-5.6599,-5.6597,-5.6597,-5.651,-5.6458,-5.6457,-5.5979,-5.5703,-5.5703,-5.8437,-6.025,-6.0792,-6.0804,-6.08,-6.08,-6.08,-6.08,-6.08,-6.132,-6.1283,-6.08,-6.08,-6.1099,-6.1564,-6.1564,-6.1564,-6.1555,-6.156,-6.1623,-6.1717,-6.1693,-6.1694,-6.1694,-6.1694,-6.1694,-6.2173,-6.5567,-6.6752,-6.6752,-6.6752,-6.6361,-6.5897,-6.5897,-6.6301,-6.6749,-6.6742,-6.675,-6.6769,-6.6865,-6.6888,-6.6898,-6.6894,-6.6894,-6.6894,-6.6894,-6.6894,-6.6894,-6.6894,-6.6894,-6.6894,-6.6894,-6.6894,-6.6894,-6.6894,-6.6894,-6.6894,-6.6894,-6.6894,-6.6894,-6.6894,-6.6894,-6.6894,-6.6894,-6.6894,-6.6894,-6.6894,-6.6894,-6.6894,-6.6894,-6.6894,-6.6894,-6.6894,-6.6894,-6.6894,-6.6894,-6.6894,-6.6894,-6.6894,-6.6894,-6.6894,-5.3624,-5.4203,-5.4219,-5.4219,-5.4219,-5.4219,0.0,0.0,0.0,0.0,0.0,0.0,0.0,0.0,0.0,0.0,0.0,-5.6601,-5.6601,-5.6601,-5.6601,-5.6601,-5.6601,-5.6601,-5.6601,-5.8262,-5.9352,-5.9354,-5.9108,-5.8943,-5.8929,-6.0422,-6.1278,-6.1281,-6.1283,-6.1303,-6.1303,-6.1287,-6.1304,-6.1285,-6.1559,-6.1554,-6.1293,-6.1293,-6.1439,-6.1712,-6.1694,-6.171,-6.1705,-6.1714,-6.1704,-6.1705,-6.1704,-6.1699,-6.1933,-6.3828,-6.4512,-6.4745,-6.6336,-6.6901,-6.6901,-6.6901,-6.6681,-6.6439,-6.6441,-6.6653,-6.6902,-6.6907,-6.6885,-6.69,-6.6897,-6.6901,-6.6894,-6.6894,-6.6894,-6.6894,-6.6894,-6.6894,-6.6894,-6.6894,-6.6894,-6.6894,-6.6894,-6.6894,-6.6894,-6.6894,-6.6894,-6.6894,-6.6894,-6.6894,-6.6894,-6.6894,-6.6894,-6.6894,-6.6894,-6.6894,-6.6894,-6.6894,-6.6894,-6.6894,-6.6894,-6.6894,-6.6894,-6.6894,-6.6894,-6.6894,-6.6894,-6.6894,-6.6894,-6.6894,-6.6894,-6.6894,-5.5569,-5.6387,-5.6426,-5.6566,0.0,-5.6601,0.0,0.0,0.0,0.0,0.0,0.0,0.0,0.0,0.0,0.0,-5.6601,-5.6601,-5.6601,-5.6601,-5.6699,-5.6973,-5.6992,-5.7051,-5.7207,-5.9922,-6.1699,-6.1699,-6.1699,-6.1709,-6.169,-6.1701,-6.1693,-6.1694,-6.1693,-6.1698,-6.1698,-6.1698,-6.1689,-6.1713,-6.17,-6.1699,-6.1699,-6.1693,-6.1696,-6.171,-6.1691,-6.1699,-6.1699,-6.1699,-6.1699,-6.1699,-6.1699,-6.1699,-6.2129,-6.5605,-6.6894,-6.6894,-6.6894,-6.6894,-6.6894,-6.6894,-6.6894,-6.6904,-6.6897,-6.691,-6.6902,-6.6901,-6.6884,-6.6908,-6.6895,-6.6894,-6.6894,-6.6894,-6.6894,-6.6894,-6.6894,-6.6894,-6.6894,-6.6894,-6.6894,-6.6894,-6.6894,-6.6894,-6.6894,-6.6894,-6.6894,-6.6894,-6.6894,-6.6894,-6.6894,-6.6894,-6.6894,-6.6894,-6.6894,-6.6894,-6.6894,-6.6894,-6.6894,-6.6894,-6.6894,-6.6894,-6.6894,-6.6894,-6.6894,-6.6894,-6.6894,-6.6894,-6.6894,-6.6894,-6.6894,-6.6894,-5.5691,-5.5769,-5.5902,-5.6469,0.0,0.0,0.0,0.0,0.0,0.0,0.0,0.0,0.0,0.0,0.0,0.0,-5.6601,-5.6601,-5.6601,-5.6601,-5.6992,-5.8047,-5.8183,-5.8398,-5.8965,-6.0644,-6.1699,-6.1699,-6.1699,-6.1699,-6.1698,-6.1698,-6.1698,-6.1698,-6.1709,-6.1698,-6.1698,-6.1698,-6.1689,-6.1693,-6.1709,-6.1698,-6.1699,-6.1697,-6.1694,-6.1694,-6.1698,-6.1699,-6.1699,-6.1699,-6.1699,-6.1699,-6.1699,-6.1699,-6.2129,-6.5605,-6.6894,-6.6894,-6.6894,-6.6894,-6.6894,-6.6894,-6.6894,-6.6894,-6.689,-6.6893,-6.6891,-6.6889,-6.6908,-6.689,-6.6894,-6.6894,-6.6894,-6.6894,-6.6894,-6.6894,-6.6894,-6.6894,-6.6894,-6.6894,-6.6894,-6.6894,-6.6894,-6.6894,-6.6894,-6.6894,-6.6894,-6.6894,-6.6894,-6.6894,-6.6894,-6.6894,-6.6894,-6.6894,-6.6894,-6.6894,-6.6894,-6.6894,-6.6894,-6.6894,-6.6894,-6.6894,-6.6894,-6.6894,-6.6894,-6.6894,-6.6894,-6.6894,-6.6894,-6.6894,-6.6894,-6.6894,-5.5705,-5.5705,-5.5766,-5.5979,0.0,0.0,0.0,0.0,0.0,0.0,0.0,0.0,0.0,0.0,0.0,-5.6601,-5.6601,-5.6601,-5.6601,-5.7539,-5.8183,-5.8066,-5.8828,-5.9316,-5.9219,-6.0723,-6.1699,-6.1699,-6.1699,-6.1699,-6.1699,-6.1699,-6.1699,-6.1699,-6.1704,-6.1705,-6.1705,-6.1705,-6.1703,-6.1703,-6.1704,-6.1699,-6.1699,-6.1699,-6.1699,-6.1699,-6.1699,-6.1699,-6.1699,-6.1699,-6.1699,-6.1699,-6.1699,-6.3027,-6.5098,-6.6406,-6.6894,-6.6894,-6.6894,-6.6894,-6.6894,-6.6894,-6.6894,-6.6894,-6.6894,-6.6902,-6.6904,-6.6908,-6.6894,-6.6894,-6.6894,-6.6894,-6.6894,-6.6894,-6.6894,-6.6894,-6.6894,-6.6894,-6.6894,-6.6894,-6.6894,-6.6894,-6.6894,-6.6894,-6.6894,-6.6894,-6.6894,-6.6894,-6.6894,-6.6894,-6.6894,-6.6894,-6.6894,-6.6894,-6.6894,-6.6894,-6.6894,-6.6894,-6.6894,-6.6894,-6.6894,-6.6894,-6.6894,-6.6894,-6.6894,-6.6894,-6.6894,-6.6894,-6.6894,-6.6894,-6.6894,-6.6894,-5.5703,-5.5703,-5.5745,0.0,0.0,0.0,0.0,0.0,0.0,0.0,0.0,0.0,0.0,0.0,0.0,0.0,-5.6601,-5.6797,-5.7344,-5.8203,-5.8769,-5.8691,-5.9531,-6.0098,-6.0,-6.1035,-6.1699,-6.1699,-6.1699,-6.1699,-6.1699,-6.1699,-6.1699,-6.1699,-6.1699,-6.1699,-6.1699,-6.1699,-6.1699,-6.1699,-6.1699,-6.1699,-6.1699,-6.1699,-6.1699,-6.1699,-6.1699,-6.1699,-6.1699,-6.1699,-6.1699,-6.1699,-6.1699,-6.3828,-6.6894,-6.6894,-6.6894,-6.6894,-6.6894,-6.6894,-6.6894,-6.6894,-6.6894,-6.6894,-6.6894,-6.6894,-6.6894,-6.6894,-6.6894,-6.6894,-6.6894,-6.6894,-6.6894,-6.6894,-6.6894,-6.6894,-6.6894,-6.6894,-6.6894,-6.6894,-6.6894,-6.6894,-6.6894,-6.6894,-6.6894,-6.6894,-6.6894,-6.6894,-6.6894,-6.6894,-6.6894,-6.6894,-6.6894,-6.6894,-6.6894,-6.6894,-6.6894,-6.6894,-6.6894,-6.6894,-6.6894,-6.6894,-6.6894,-6.6894,-6.6894,-6.6894,-6.6894,-6.6894,-6.6894,-6.6894,-6.6894,-6.6894,-5.5703,-5.5703,0.0,0.0,0.0,0.0,0.0,0.0,0.0,0.0,0.0,0.0,0.0,0.0,0.0,-5.6601,-5.6601,-5.7207,-5.8945,-5.8476,-5.8555,-6.0195,-6.041,-6.0742,-6.1621,-6.1699,-6.1699,-6.1699,-6.1699,-6.1699,-6.1699,-6.1699,-6.1699,-6.1699,-6.1699,-6.1699,-6.1699,-6.1699,-6.1699,-6.1699,-6.1699,-6.1699,-6.1699,-6.1699,-6.1699,-6.1699,-6.1699,-6.1699,-6.1699,-6.1699,-6.1699,-6.1699,-6.1738,-6.3867,-6.6894,-6.6894,-6.6894,-6.6894,-6.6894,-6.6894,-6.6894,-6.6894,-6.6894,-6.6894,-6.6894,-6.6894,-6.6894,-6.6894,-6.6894,-6.6894,-6.6894,-6.6894,-6.6894,-6.6894,-6.6894,-6.6894,-6.6894,-6.6894,-6.6894,-6.6894,-6.6894,-6.6894,-6.6894,-6.6894,-6.6894,-6.6894,-6.6894,-6.6894,-6.6894,-6.6914,-6.6914,-6.6914,-6.6914,-6.6914,-6.6914,-6.6933,-6.6933,-6.6933,-6.6933,-6.6914,-6.6914,-6.6914,-6.6914,-6.6894,-6.6894,-6.6894,-6.6894,-6.6894,-6.6894,-6.6894,-6.6894,-6.6894,-5.6225,0.0,0.0,0.0,0.0,0.0,0.0,0.0,0.0,0.0,0.0,0.0,-5.6601,-5.6601,0.0,-5.6601,-5.6601,-5.7051,-5.8379,-5.9726,-6.0527,-6.041,-6.0937,-6.1426,-6.168,-6.1699,-6.1699,-6.1699,-6.1699,-6.1699,-6.1699,-6.1699,-6.1699,-6.1699,-6.1699,-6.1699,-6.1699,-6.1699,-6.1699,-6.1699,-6.1699,-6.1699,-6.1699,-6.1699,-6.1699,-6.1699,-6.1699,-6.1699,-6.1699,-6.1699,-6.1699,-6.1933,-6.4394,-6.5996,-6.6894,-6.6894,-6.6894,-6.6894,-6.6894,-6.6894,-6.6894,-6.6894,-6.6894,-6.6894,-6.6894,-6.6894,-6.6894,-6.6894,-6.6894,-6.6894,-6.6894,-6.6894,-6.6894,-6.6894,-6.6894,-6.6894,-6.6894,-6.6894,-6.6894,-6.6894,-6.6894,-6.6894,-6.6894,-6.6894,-6.6894,-6.6894,-6.6894,-6.6894,-6.6894,-6.793,-6.8672,-6.8711,-6.8691,-6.8672,-6.8711,-6.9062,-6.9297,-6.9297,-6.8887,-6.8398,-6.7832,-6.8008,-6.7715,-6.6914,-6.6894,-6.6894,-6.6894,-6.6894,-6.6894,-6.6894,-6.6894,-6.6894,0.0,0.0,0.0,0.0,0.0,0.0,0.0,0.0,0.0,0.0,0.0,-5.6601,-5.6601,-5.6601,-5.6601,-5.6601,-5.6601,-5.707,-5.8457,-5.9844,-6.0762,-6.0898,-6.1387,-6.1699,-6.1699,-6.1699,-6.1699,-6.1699,-6.1699,-6.1699,-6.1699,-6.1699,-6.1699,-6.1699,-6.1699,-6.1699,-6.1699,-6.1699,-6.1699,-6.1699,-6.1699,-6.1699,-6.1699,-6.1699,-6.1699,-6.1699,-6.1699,-6.1699,-6.1699,-6.1699,-6.1699,-6.2051,-6.5547,-6.6894,-6.6894,-6.6894,-6.6894,-6.6894,-6.6894,-6.6894,-6.6894,-6.6894,-6.6894,-6.6894,-6.6894,-6.6894,-6.6894,-6.6894,-6.6894,-6.6894,-6.6894,-6.6894,-6.6894,-6.6894,-6.6894,-6.6894,-6.6894,-6.6894,-6.6894,-6.6894,-6.6894,-6.6894,-6.6894,-6.6894,-6.7363,-6.8711,-6.8535,-6.8242,-6.8242,-6.8945,-6.9453,-6.9492,-6.9648,-6.9687,-6.9472,-6.998,-7.0215,-7.0,-6.9629,-6.9336,-6.9199,-6.9043,-6.8613,-6.791,-6.789,-6.791,-6.793,-6.791,-6.7867,-6.7812,-6.7894,-6.7793,0.0,0.0,0.0,0.0,0.0,0.0,0.0,0.0,0.0,0.0,0.0,-5.6601,-5.6601,-5.6601,-5.6601,-5.6601,-5.6855,-5.7578,-5.9062,-5.9355,-5.998,-6.1523,-6.1699,-6.1699,-6.1699,-6.1699,-6.1699,-6.1699,-6.1699,-6.1699,-6.1699,-6.1699,-6.1699,-6.1699,-6.1699,-6.1699,-6.1699,-6.1699,-6.1699,-6.1699,-6.1699,-6.1699,-6.1699,-6.1699,-6.1699,-6.1699,-6.1699,-6.1699,-6.1699,-6.1699,-6.1894,-6.248,-6.5664,-6.6894,-6.6894,-6.6894,-6.6894,-6.6894,-6.6894,-6.6894,-6.6894,-6.6894,-6.6894,-6.6894,-6.6894,-6.6894,-6.6894,-6.6894,-6.6894,-6.6894,-6.6894,-6.6894,-6.6894,-6.6894,-6.6894,-6.6894,-6.6894,-6.6894,-6.6894,-6.6894,-6.7148,-6.7265,-6.6953,-6.6894,-6.8066,-7.1484,-7.1035,-7.0273,-7.0234,-6.9863,-6.9609,-6.9609,-7.0117,-7.0234,-6.9687,-7.0137,-7.0254,-6.9765,-6.9668,-6.998,-7.0781,-7.0039,-6.957,-6.9512,-6.9512,-6.9491,-6.9462,-6.9403,-6.9314,-6.9186,-6.9372,-6.9149,0.0,0.0,0.0,0.0,0.0,0.0,0.0,0.0,0.0,0.0,0.0,-5.6601,-5.6601,-5.6601,-5.6601,-5.6601,-5.8848,-6.043,-5.9902,-6.0605,-6.1308,-6.166,-6.1699,-6.1699,-6.1699,-6.1699,-6.1699,-6.1699,-6.1699,-6.1699,-6.1699,-6.1699,-6.1699,-6.1699,-6.1699,-6.1699,-6.1699,-6.1699,-6.1699,-6.1699,-6.1699,-6.1699,-6.1699,-6.1699,-6.1699,-6.1699,-6.1699,-6.1699,-6.1699,-6.1699,-6.3301,-6.5859,-6.6601,-6.6894,-6.6894,-6.6894,-6.6894,-6.6894,-6.6894,-6.6894,-6.6894,-6.6894,-6.6894,-6.6894,-6.6894,-6.6894,-6.6894,-6.6894,-6.6894,-6.6894,-6.6894,-6.6894,-6.6894,-6.6894,-6.6894,-6.6894,-6.6894,-6.6894,-6.6894,-6.6894,-6.9062,-7.0058,-6.7363,-6.6894,-6.8066,-7.1484,-7.1035,-7.0137,-6.9648,-7.0097,-7.0449,-7.0449,-7.1152,-7.1582,-7.1445,-7.1562,-7.1582,-7.1465,-7.1445,-7.1523,-7.1719,-7.0898,-7.0449,-7.043,-7.043,-7.0043,-6.9259,-6.9239,-6.9231,-6.9198,-6.9079,-6.9026,0.0,0.0,0.0,0.0,0.0,0.0,0.0,0.0,0.0,0.0,-5.6601,-5.6601,-5.6601,-5.6601,-5.7148,-5.8789,-5.9863,-6.0586,-6.0781,-6.0976,-6.123,-6.164,-6.1699,-6.1699,-6.1699,-6.1699,-6.1699,-6.1699,-6.1699,-6.1699,-6.1699,-6.1699,-6.1699,-6.1699,-6.1699,-6.1699,-6.1699,-6.1699,-6.1699,-6.1699,-6.1699,-6.1699,-6.1699,-6.1699,-6.1699,-6.1699,-6.1699,-6.1699,-6.1699,-6.1699,-6.375,-6.6894,-6.6894,-6.6894,-6.6894,-6.6894,-6.6894,-6.6894,-6.6894,-6.6894,-6.6894,-6.6894,-6.6894,-6.6894,-6.6894,-6.6894,-6.6894,-6.6894,-6.6894,-6.6894,-6.6894,-6.6894,-6.6894,-6.6894,-6.6894,-6.6894,-6.6894,-6.7539,-6.8105,-6.8105,-6.8887,-6.9512,-6.9375,-6.9336,-6.9805,-7.1172,-7.123,-7.0996,-7.0683,-7.1035,-7.1328,-7.1328,-7.1738,-7.1992,-7.1992,-7.1992,-7.1992,-7.1992,-7.1992,-7.1992,-7.1992,-7.1562,-7.1284,-7.118,-7.118,-7.0891,-7.0289,-7.0279,-7.0261,-7.0155,-7.0136,-7.0135,0.0,0.0,0.0,0.0,0.0,0.0,0.0,0.0,0.0,0.0,-5.6601,-5.6601,-5.6601,-5.6601,-5.7617,-6.0762,-6.0351,-6.0058,-6.1308,-6.0976,-6.0898,-6.1601,-6.1699,-6.1699,-6.1699,-6.1699,-6.1699,-6.1699,-6.1699,-6.1699,-6.1699,-6.1699,-6.1699,-6.1699,-6.1699,-6.1699,-6.1699,-6.1699,-6.1699,-6.1699,-6.1699,-6.1699,-6.1699,-6.1699,-6.1699,-6.1699,-6.1699,-6.1699,-6.1758,-6.2344,-6.4297,-6.6894,-6.6894,-6.6894,-6.6894,-6.6894,-6.6894,-6.6894,-6.6894,-6.6894,-6.6894,-6.6894,-6.6894,-6.6894,-6.6894,-6.6894,-6.6894,-6.6894,-6.6894,-6.6894,-6.6894,-6.7109,-6.7305,-6.7226,-6.7344,-6.7461,-6.7344,-6.8437,-6.9492,-6.9785,-6.873,-6.8672,-7.1504,-7.1992,-7.1758,-7.1035,-7.1543,-7.1992,-7.1992,-7.1992,-7.1992,-7.1992,-7.1992,-7.1992,-7.1992,-7.1992,-7.1992,-7.1992,-7.1992,-7.1992,-7.1992,-7.1992,-7.1882,-7.1665,-7.1691,-7.1603,-7.1458,-7.1448,-7.1368,-7.1195,-7.1339,-7.1319,0.0,0.0,0.0,0.0,0.0,0.0,0.0,0.0,0.0,0.0,-5.6601,-5.6601,-5.6601,-5.6601,-5.7246,-5.9219,-6.0566,-6.1172,-6.0644,-6.1113,-6.1562,-6.1699,-6.1699,-6.1699,-6.1699,-6.1699,-6.1699,-6.1699,-6.1699,-6.1699,-6.1699,-6.1699,-6.1699,-6.1699,-6.1699,-6.1699,-6.1699,-6.1699,-6.1699,-6.1699,-6.1699,-6.1699,-6.1699,-6.1699,-6.1699,-6.1699,-6.1699,-6.1699,-6.1933,-6.4961,-6.6484,-6.6894,-6.6894,-6.6894,-6.6894,-6.6894,-6.6894,-6.6894,-6.6894,-6.6894,-6.6894,-6.6894,-6.6894,-6.6894,-6.6894,-6.6894,-6.6894,-6.6894,-6.6894,-6.6894,-6.6894,-6.7988,-6.8945,-6.8476,-6.9121,-6.9707,-6.918,-6.9297,-6.9922,-7.1367,-7.1465,-7.1465,-7.1914,-7.1992,-7.1953,-7.1836,-7.1933,-7.1992,-7.1992,-7.1992,-7.1992,-7.1992,-7.1992,-7.1992,-7.1992,-7.1992,-7.1992,-7.1992,-7.1992,-7.1992,-7.1992,-7.1992,-7.1861,-7.1529,-7.1626,-7.153,-7.1249,-7.1241,-7.1225,-7.1187,-7.1062,-7.1082,0.0,0.0,0.0,0.0,0.0,0.0,0.0,0.0,0.0,-5.611,-5.6366,-5.6601,-5.6601,-5.6601,-5.748,-6.0156,-6.1211,-6.1562,-6.1172,-6.1465,-6.1699,-6.1699,-6.1699,-6.1699,-6.1699,-6.1699,-6.1699,-6.1699,-6.1699,-6.1699,-6.1699,-6.1699,-6.1699,-6.1699,-6.1699,-6.1699,-6.1699,-6.1699,-6.1699,-6.1699,-6.1699,-6.1699,-6.1699,-6.1699,-6.1699,-6.1699,-6.1699,-6.2812,-6.4726,-6.6269,-6.6894,-6.6894,-6.6894,-6.6894,-6.6894,-6.6894,-6.6894,-6.6894,-6.6894,-6.6894,-6.6894,-6.6894,-6.6894,-6.6894,-6.6894,-6.6894,-6.6894,-6.6894,-6.6894,-6.7051,-6.7695,-6.8613,-6.9355,-6.914,-7.0195,-7.1055,-7.0293,-7.0156,-7.0527,-7.1758,-7.1992,-7.1992,-7.1992,-7.1992,-7.1992,-7.1992,-7.1992,-7.1992,-7.1992,-7.1992,-7.1992,-7.1992,-7.1992,-7.1992,-7.1992,-7.1992,-7.1992,-7.1992,-7.1992,-7.1992,-7.1992,-7.1887,-7.1734,-7.1504,-7.1556,-7.1406,-7.1033,-7.1033,-7.1033,-7.1033,-7.0937,-7.0956,0.0,0.0,0.0,0.0,0.0,0.0,0.0,0.0,-5.5703,0.0,-5.6065,-5.6684,-5.7713,-5.789,-5.873,-6.1289,-6.1699,-6.1699,-6.1699,-6.1699,-6.1699,-6.1699,-6.1699,-6.1699,-6.1699,-6.1699,-6.1699,-6.1699,-6.1699,-6.1699,-6.1699,-6.1699,-6.1699,-6.1699,-6.1699,-6.1699,-6.1699,-6.1699,-6.1699,-6.1699,-6.1699,-6.1699,-6.1699,-6.1699,-6.1855,-6.2129,-6.1836,-6.3672,-6.6894,-6.6894,-6.6904,-6.6895,-6.691,-6.6894,-6.6894,-6.6898,-6.6909,-6.6901,-6.689,-6.6794,-6.666,-6.6648,-6.6719,-6.6797,-6.6797,-6.6855,-6.6953,-6.7168,-6.7226,-6.7461,-6.8535,-6.9258,-6.9746,-6.9785,-7.0937,-7.1816,-7.1172,-7.1035,-7.1211,-7.1875,-7.1992,-7.1992,-7.1992,-7.1992,-7.1992,-7.1992,-7.1992,-7.1992,-7.1992,-7.1992,-7.1992,-7.1992,-7.1992,-7.1992,-7.1992,-7.1992,-7.1992,-7.1992,-7.1992,-7.1992,-7.1992,-7.1819,-7.1637,-7.1489,-7.1444,-7.1245,-7.0898,-7.0898,-7.0898,-7.0898,-7.0898,-7.0898,0.0,0.0,0.0,0.0,0.0,0.0,0.0,0.0,-5.5698,-5.5698,-5.5722,-5.6914,-6.073,-6.1426,-6.1484,-6.168,-6.1699,-6.1699,-6.1699,-6.1699,-6.1699,-6.1699,-6.1699,-6.1699,-6.1699,-6.1699,-6.1699,-6.1699,-6.1699,-6.1699,-6.1699,-6.1699,-6.1699,-6.1699,-6.1699,-6.1699,-6.1699,-6.1699,-6.1699,-6.1699,-6.1699,-6.1699,-6.1699,-6.1699,-6.2285,-6.3242,-6.2168,-6.3672,-6.6894,-6.6894,-6.6888,-6.6888,-6.6889,-6.6894,-6.6908,-6.69,-6.6887,-6.6894,-6.6901,-6.6478,-6.5952,-6.5947,-6.6218,-6.6523,-6.6523,-6.6699,-6.707,-6.789,-6.8125,-6.832,-6.914,-6.998,-7.0625,-7.0644,-7.1347,-7.1992,-7.1933,-7.1933,-7.1953,-7.1992,-7.1992,-7.1992,-7.1992,-7.1992,-7.1992,-7.1992,-7.1992,-7.1992,-7.1992,-7.1992,-7.1992,-7.1992,-7.1992,-7.1992,-7.1992,-7.1992,-7.1992,-7.1992,-7.1992,-7.1992,-7.1992,-7.1819,-7.1637,-7.1518,-7.131,-7.111,-7.0898,-7.0898,-7.0898,-7.0898,-7.0898,-7.0898,-5.5703,0.0,0.0,0.0,0.0,0.0,0.0,-5.5701,-5.6316,-5.8514,-5.8976,-5.9414,-6.086,-6.1452,-6.1699,-6.1699,-6.1699,-6.1699,-6.1699,-6.1699,-6.1699,-6.1699,-6.1699,-6.1699,-6.1699,-6.1699,-6.1699,-6.1699,-6.1699,-6.1699,-6.1699,-6.1699,-6.1699,-6.1699,-6.1699,-6.1699,-6.1699,-6.1699,-6.1699,-6.1699,-6.1699,-6.1699,-6.1718,-6.2188,-6.292,-6.3845,-6.375,-6.4819,-6.6633,-6.6604,-6.6599,-6.6625,-6.6367,-6.6394,-6.6575,-6.6582,-6.6436,-6.6261,-6.6263,-6.6111,-6.5892,-6.59,-6.6084,-6.6314,-6.6313,-6.6798,-6.7422,-6.7734,-6.8308,-6.9043,-6.9883,-7.039,-7.084,-7.1406,-7.1777,-7.1992,-7.1992,-7.1992,-7.1992,-7.1992,-7.1992,-7.1992,-7.1992,-7.1992,-7.1992,-7.1992,-7.1992,-7.1992,-7.1992,-7.1992,-7.1992,-7.1992,-7.1992,-7.1992,-7.1992,-7.1992,-7.1992,-7.1992,-7.1992,-7.1934,-7.1797,-7.1666,-7.1489,-7.131,-7.111,-7.0975,-7.0898,-7.0898,-7.0898,-7.0898,-7.0898,-7.0898,-5.5703,0.0,0.0,0.0,0.0,0.0,0.0,0.0,-5.805,-6.0327,-6.0808,-6.0808,-6.0808,-6.1138,-6.1459,-6.1678,-6.1699,-6.1699,-6.1699,-6.1699,-6.1699,-6.1699,-6.1699,-6.1699,-6.1699,-6.1699,-6.1699,-6.1699,-6.1699,-6.1699,-6.1699,-6.1699,-6.1699,-6.1699,-6.1699,-6.1699,-6.1699,-6.1652,-6.1631,-6.1631,-6.1593,-6.1709,-6.1993,-6.249,-6.3345,-6.4449,-6.4696,-6.5412,-6.639,-6.6264,-6.6273,-6.6278,-6.599,-6.6041,-6.6234,-6.6234,-6.6088,-6.5897,-6.5897,-6.5908,-6.5893,-6.5986,-6.6109,-6.6324,-6.667,-6.7245,-6.7906,-6.8488,-6.9142,-6.9892,-7.0777,-7.1074,-7.1289,-7.1855,-7.1992,-7.1992,-7.1992,-7.1992,-7.1992,-7.1992,-7.1992,-7.1992,-7.1992,-7.1992,-7.1992,-7.1992,-7.1992,-7.1992,-7.1992,-7.1992,-7.1992,-7.1992,-7.1992,-7.1992,-7.1992,-7.1992,-7.1992,-7.1992,-7.1943,-7.1831,-7.1703,-7.1507,-7.1334,-7.1214,-7.0994,-7.0898,-7.0898,-7.0898,-7.0898,-7.0898,-7.0898,-7.0898,0.0,0.0,0.0,0.0,0.0,0.0,-5.5835,0.0,-6.0808,-6.0808,-6.0804,-6.08,-6.08,-6.08,-6.0982,-6.1584,-6.1698,-6.1699,-6.1699,-6.1699,-6.1699,-6.1699,-6.1699,-6.1699,-6.1699,-6.1699,-6.1699,-6.1699,-6.1699,-6.1699,-6.1699,-6.1699,-6.1699,-6.1699,-6.1699,-6.1699,-6.1699,-6.1574,-6.1501,-6.1478,-6.1349,-6.1732,-6.2504,-6.2523,-6.3473,-6.5084,-6.491,-6.5333,-6.6167,-6.5974,-6.5897,-6.5897,-6.5897,-6.5897,-6.5897,-6.5897,-6.5897,-6.5897,-6.5897,-6.5897,-6.5917,-6.6128,-6.6307,-6.6596,-6.7584,-6.8071,-6.8585,-7.0213,-7.0695,-7.0915,-7.1783,-7.1992,-7.1992,-7.1992,-7.1992,-7.1992,-7.1992,-7.1992,-7.1992,-7.1992,-7.1992,-7.1992,-7.1992,-7.1992,-7.1992,-7.1992,-7.1992,-7.1992,-7.1992,-7.1992,-7.1992,-7.1992,-7.1992,-7.1992,-7.1992,-7.1992,-7.1992,-7.1991,-7.1799,-7.1695,-7.1695,-7.1387,-7.1187,-7.1187,-7.0994,-7.0898,-7.0898,-7.0898,-7.0898,-7.0898,-7.0898,-7.0898,-5.5703,0.0,0.0,0.0,0.0,0.0,-5.8819,0.0,-6.0785,-6.0804,-6.08,-6.08,-6.08,-6.08,-6.0856,-6.1016,-6.1421,-6.1634,-6.1439,-6.1459,-6.1478,-6.142,-6.142,-6.142,-6.142,-6.142,-6.142,-6.142,-6.1498,-6.1517,-6.142,-6.142,-6.142,-6.142,-6.142,-6.142,-6.142,-6.1376,-6.1347,-6.1343,-6.1325,-6.1735,-6.2504,-6.3066,-6.3885,-6.491,-6.5397,-6.5743,-6.5974,-6.5917,-6.5897,-6.5897,-6.5897,-6.5897,-6.5897,-6.5897,-6.5897,-6.5897,-6.5897,-6.5897,-6.5897,-6.5955,-6.6397,-6.7,-6.741,-6.8347,-6.9431,-7.0136,-7.0807,-7.1403,-7.1861,-7.1992,-7.1992,-7.1992,-7.1992,-7.1992,-7.1992,-7.1992,-7.1992,-7.1992,-7.1992,-7.1992,-7.1992,-7.1992,-7.1992,-7.1992,-7.1992,-7.1992,-7.1992,-7.1992,-7.1992,-7.1992,-7.1992,-7.1992,-7.1992,-7.1992,-7.1948,-7.1785,-7.1728,-7.1599,-7.1368,-7.1245,-7.1129,-7.0994,-7.0937,-7.0898,-7.0898,-7.0898,-7.0898,-7.0898,-7.0898,-7.0898,-5.6376,-5.6588,-5.6835,-5.7047,0.0,0.0,-5.93,-6.0304,-6.0804,-6.08,-6.08,-6.08,-6.08,-6.08,-6.08,-6.08,-6.1099,-6.1261,-6.1106,-6.1203,-6.1281,-6.13,-6.13,-6.13,-6.13,-6.13,-6.13,-6.13,-6.1358,-6.1378,-6.13,-6.13,-6.13,-6.13,-6.13,-6.13,-6.13,-6.1223,-6.1176,-6.1189,-6.1497,-6.205,-6.2853,-6.3641,-6.4474,-6.5276,-6.5705,-6.5897,-6.5897,-6.5897,-6.5897,-6.5897,-6.5897,-6.5897,-6.5897,-6.5897,-6.5897,-6.5897,-6.5897,-6.5897,-6.5897,-6.5955,-6.6551,-6.7321,-6.7859,-6.8926,-7.0017,-7.0583,-7.1154,-7.1631,-7.1814,-7.1933,-7.1992,-7.1992,-7.1992,-7.1992,-7.1992,-7.1992,-7.1992,-7.1992,-7.1992,-7.1992,-7.1992,-7.1992,-7.1992,-7.1992,-7.1992,-7.1992,-7.1992,-7.1992,-7.1992,-7.1992,-7.1992,-7.1992,-7.1992,-7.1924,-7.1824,-7.171,-7.158,-7.1406,-7.1206,-7.111,-7.1014,-7.0898,-7.0898,-7.0898,-7.0898,-7.0898,-7.0898,-7.0898,-7.0898,-7.0898,-5.7495,-5.8072,-5.8684,-5.9169,-5.8934,0.0,-5.8585,-5.9719,-6.08,-6.08,-6.08,-6.08,-6.08,-6.08,-6.08,-6.08,-6.08,-6.08,-6.08,-6.0935,-6.1112,-6.1228,-6.1247,-6.1247,-6.1247,-6.1247,-6.1247,-6.1247,-6.1247,-6.1247,-6.1285,-6.1247,-6.1247,-6.1247,-6.1247,-6.1247,-6.1247,-6.105,-6.0973,-6.0973,-6.1723,-6.2512,-6.3339,-6.4205,-6.507,-6.5897,-6.5897,-6.5897,-6.5897,-6.5897,-6.5897,-6.5897,-6.5897,-6.5897,-6.5897,-6.5897,-6.5897,-6.5897,-6.5897,-6.5897,-6.5917,-6.6128,-6.6801,-6.7705,-6.869,-6.9587,-7.0438,-7.1235,-7.1571,-7.1688,-7.1675,-7.1816,-7.1972,-7.1972,-7.1972,-7.1992,-7.1992,-7.1992,-7.1992,-7.1992,-7.1992,-7.1992,-7.1992,-7.1992,-7.1992,-7.1992,-7.1992,-7.1992,-7.1992,-7.1992,-7.1992,-7.1992,-7.1992,-7.1991,-7.1962,-7.1801,-7.1676,-7.1657,-7.1368,-7.1187,-7.1168,-7.0994,-7.0898,-7.0898,-7.0898,-7.0898,-7.0898,-7.0898,-7.0898,-7.0898,-7.0898,-7.0898,-5.8514,-5.9515,-6.0323,-6.0439,-6.04,0.0,-6.0319,-6.0569,-6.08,-6.08,-6.08,-6.08,-6.08,-6.08,-6.08,-6.08,-6.08,-6.08,-6.08,-6.0819,-6.0858,-6.0877,-6.0896,-6.0896,-6.0896,-6.0896,-6.0896,-6.0896,-6.0896,-6.0935,-6.1031,-6.0954,-6.0896,-6.0896,-6.0896,-6.0896,-6.0896,-6.0858,-6.0839,-6.0839,-6.1685,-6.2512,-6.3339,-6.4205,-6.507,-6.5897,-6.5897,-6.5897,-6.5897,-6.5897,-6.5897,-6.5897,-6.5897,-6.5897,-6.5897,-6.5897,-6.5897,-6.5897,-6.5897,-6.5897,-6.6013,-6.6686,-6.7494,-6.8398,-6.9398,-7.0215,-7.0825,-7.1183,-7.1395,-7.1551,-7.1531,-7.1655,-7.1758,-7.1758,-7.1875,-7.1992,-7.1992,-7.1992,-7.1992,-7.1992,-7.1992,-7.1992,-7.1992,-7.1992,-7.1992,-7.1992,-7.1992,-7.1992,-7.1992,-7.1992,-7.1992,-7.1992,-7.1992,-7.1923,-7.1783,-7.1717,-7.158,-7.1302,-7.1225,-7.1129,-7.0975,-7.0918,-7.0898,-7.0898,-7.0898,-7.0898,-7.0898,-7.0898,-7.0898,-7.0898,-7.0898,-7.0898,-5.9127,-6.0035,-6.0804,-6.0804,-6.0804,0.0,0.0,-6.08,-6.08,-6.08,-6.08,-6.08,-6.08,-6.08,-6.08,-6.08,-6.08,-6.08,-6.08,-6.08,-6.08,-6.08,-6.08,-6.08,-6.08,-6.08,-6.08,-6.08,-6.08,-6.0819,-6.0896,-6.0839,-6.08,-6.08,-6.08,-6.08,-6.08,-6.08,-6.1012,-6.1454,-6.23,-6.3147,-6.3974,-6.4859,-6.5493,-6.5897,-6.5897,-6.5897,-6.5897,-6.5897,-6.5897,-6.5897,-6.5897,-6.5897,-6.5897,-6.5897,-6.5897,-6.5897,-6.5897,-6.6147,-6.6551,-6.6974,-6.7975,-6.9148,-6.9648,-7.0321,-7.0918,-7.1014,-7.1187,-7.1344,-7.1352,-7.1467,-7.163,-7.1673,-7.1777,-7.1875,-7.1972,-7.1992,-7.1992,-7.1992,-7.1992,-7.1992,-7.1992,-7.1992,-7.1992,-7.1992,-7.1992,-7.1992,-7.1992,-7.1992,-7.1992,-7.1992,-7.1913,-7.1817,-7.171,-7.156,-7.1387,-7.1206,-7.111,-7.1014,-7.0898,-7.0898,-7.0898,-7.0898,-7.0898,-7.0898,-7.0898,-7.0898,-7.0898,-7.0898,-7.0898,-7.0898,-5.9742,-6.0262,-6.08,-6.08,-6.08,-6.08,0.0,0.0,0.0,-6.08,-6.08,-6.08,-6.08,-6.08,-6.08,-6.08,-6.08,-6.08,-6.08,-6.08,-6.08,-6.08,-6.08,-6.08,-6.08,-6.08,-6.08,-6.08,-6.08,-6.08,-6.08,-6.08,-6.08,-6.08,-6.08,-6.08,-6.08,-6.08,-6.1243,-6.2108,-6.2916,-6.3762,-6.4628,-6.5493,-6.5897,-6.5897,-6.5897,-6.5897,-6.5897,-6.5897,-6.5897,-6.5897,-6.5897,-6.5897,-6.5897,-6.5897,-6.5897,-6.5897,-6.5897,-6.6417,-6.7128,-6.7301,-6.8513,-6.9937,-6.9937,-7.0379,-7.0898,-7.0898,-7.1014,-7.1129,-7.1129,-7.1283,-7.1468,-7.1584,-7.1639,-7.1708,-7.1864,-7.1911,-7.1933,-7.1933,-7.1972,-7.1992,-7.1992,-7.1978,-7.1934,-7.1934,-7.1913,-7.1903,-7.1903,-7.1903,-7.1903,-7.1903,-7.1766,-7.1634,-7.1599,-7.1368,-7.1168,-7.1129,-7.0994,-7.0898,-7.0898,-7.0898,-7.0898,-7.0898,-7.0898,-7.0898,-7.0898,-7.0898,-7.0898,-7.0898,-7.0898,-7.0898,-6.0646,-6.0723,-6.08,-6.08,-6.08,-6.08,-6.08,0.0,-6.08,-6.08,0.0,-6.08,-6.08,0.0,0.0,-6.0796,-6.0819,-6.08,-6.0796,-6.08,-6.08,-6.08,-6.08,-6.08,-6.08,-6.08,-6.08,-6.08,-6.08,-6.08,-6.08,-6.08,-6.08,-6.08,-6.08,-6.08,-6.08,-6.08,-6.1243,-6.2108,-6.2916,-6.3762,-6.4628,-6.5493,-6.5897,-6.5897,-6.5897,-6.5897,-6.5897,-6.5897,-6.5897,-6.5897,-6.5897,-6.5897,-6.5897,-6.5897,-6.5897,-6.5897,-6.5897,-6.6417,-6.7225,-6.7994,-6.9398,-7.0764,-7.0764,-7.0821,-7.0898,-7.0898,-7.0918,-7.0937,-7.0937,-7.1071,-7.1241,-7.126,-7.1395,-7.1517,-7.1536,-7.165,-7.1738,-7.1738,-7.1875,-7.1992,-7.1992,-7.1848,-7.1733,-7.1733,-7.1624,-7.1556,-7.1556,-7.1556,-7.1556,-7.1556,-7.1549,-7.1454,-7.126,-7.1206,-7.111,-7.0956,-7.0918,-7.0898,-7.0898,-7.0898,-7.0898,-7.0898,-7.0898,-7.0898,-7.0898,-7.0898,-7.0898,-7.0898,-7.0898,-7.0898,-6.08,-6.08,-6.08,-6.08,-6.08,-6.08,-6.08,-6.08,-6.08,-6.08,0.0,0.0,0.0,0.0,0.0,0.0,-6.2463,-6.3064,-6.1089,-6.08,-6.08,-6.08,-6.08,-6.08,-6.08,-6.08,-6.08,-6.08,-6.08,-6.08,-6.08,-6.08,-6.08,-6.08,-6.08,-6.08,-6.08,-6.13,-6.1973,-6.282,-6.3647,-6.4512,-6.5378,-6.5724,-6.5897,-6.5897,-6.5897,-6.5897,-6.5897,-6.5897,-6.5897,-6.5897,-6.5897,-6.5897,-6.5897,-6.5897,-6.5897,-6.5974,-6.6417,-6.7148,-6.8071,-6.9417,-7.0341,-7.0898,-7.0898,-7.0898,-7.0898,-7.0898,-7.0898,-7.0898,-7.0898,-7.0956,-7.1052,-7.1168,-7.1265,-7.1371,-7.1468,-7.1551,-7.1573,-7.1584,-7.1648,-7.1706,-7.1706,-7.1688,-7.1695,-7.1695,-7.1598,-7.1507,-7.1507,-7.1507,-7.1507,-7.1507,-7.141,-7.1279,-7.1195,-7.1091,-7.0994,-7.0918,-7.0898,-7.0898,-7.0898,-7.0898,-7.0898,-7.0898,-7.0898,-7.0898,-7.0898,-7.0898,-7.0898,-7.0898,-7.0898,-7.0898,-6.08,-6.08,-6.0757,-6.0647,-6.069,-6.0757,-6.0647,-6.0714,-6.08,-6.08,-6.08,0.0,0.0,0.0,-6.08,-6.08,0.0,-6.3646,-6.1146,-6.08,-6.08,-6.08,-6.08,-6.08,-6.08,-6.08,-6.08,-6.08,-6.08,-6.08,-6.08,-6.08,-6.08,-6.08,-6.08,-6.08,-6.08,-6.1647,-6.2493,-6.332,-6.4185,-6.5051,-6.5897,-6.5897,-6.5897,-6.5897,-6.5897,-6.5897,-6.5897,-6.5897,-6.5897,-6.5897,-6.5897,-6.5897,-6.5897,-6.5897,-6.5897,-6.6013,-6.6821,-6.7821,-6.8994,-7.0437,-7.0898,-7.0898,-7.0898,-7.0898,-7.0898,-7.0898,-7.0898,-7.0898,-7.0898,-7.0898,-7.0937,-7.1071,-7.111,-7.1148,-7.1283,-7.1387,-7.1422,-7.1416,-7.1469,-7.1508,-7.1508,-7.1533,-7.156,-7.156,-7.1445,-7.1321,-7.1321,-7.1321,-7.1321,-7.1321,-7.1187,-7.111,-7.111,-7.0975,-7.0898,-7.0898,-7.0898,-7.0898,-7.0898,-7.0898,-7.0898,-7.0898,-7.0898,-7.0898,-7.0898,-7.0898,-7.0898,-7.0898,-7.0898,-7.0898,-6.08,-6.08,-6.069,-6.0236,-6.0463,-6.069,-6.0236,-6.0482,-6.08,-6.08,-6.08,-6.08,-6.08,-6.08,-6.08,-6.0796,-6.0896,0.0,0.0,-6.0819,-6.08,-6.08,-6.08,-6.08,-6.08,-6.08,-6.08,-6.08,-6.08,-6.08,-6.08,-6.08,-6.08,-6.08,-6.08,-6.08,-6.08,-6.1647,-6.2493,-6.332,-6.4185,-6.5051,-6.5897,-6.5897,-6.5897,-6.5897,-6.5897,-6.5897,-6.5897,-6.5897,-6.5897,-6.5897,-6.5897,-6.5897,-6.5897,-6.5897,-6.5897,-6.6013,-6.6821,-6.8225,-6.9802,-7.0629,-7.0898,-7.0898,-7.0898,-7.0898,-7.0898,-7.0898,-7.0898,-7.0898,-7.0898,-7.0898,-7.0898,-7.0918,-7.0918,-7.0918,-7.0918,-7.1071,-7.1214,-7.1195,-7.1376,-7.151,-7.151,-7.1329,-7.1206,-7.1206,-7.1052,-7.0918,-7.0918,-7.0918,-7.0918,-7.0918,-7.0918,-7.0918,-7.0918,-7.0898,-7.0898,-7.0898,-7.0898,-7.0898,-7.0898,-7.0898,-7.0898,-7.0898,-7.0898,-7.0898,-7.0898,-7.0898,-7.0898,-7.0898,-7.0898,-7.0898,-6.08,-6.08,-6.0757,-6.0603,-6.069,-6.0757,-6.0597,-6.069,-6.08,-6.08,-6.08,-6.08,-6.08,-6.08,-6.08,-6.08,-6.08,-6.08,0.0,-6.08,-6.08,-6.08,-6.08,-6.08,-6.08,-6.08,-6.08,-6.08,-6.08,-6.08,-6.08,-6.08,-6.08,-6.08,-6.08,-6.1069,-6.1647,-6.2474,-6.332,-6.4166,-6.5032,-6.5609,-6.5897,-6.5897,-6.5897,-6.5897,-6.5897,-6.5897,-6.5897,-6.5897,-6.5897,-6.5897,-6.5897,-6.5897,-6.5897,-6.5897,-6.6244,-6.6898,-6.8321,-6.9552,-7.0533,-7.0802,-7.0898,-7.0898,-7.0898,-7.0898,-7.0898,-7.0898,-7.0898,-7.0898,-7.0898,-7.0898,-7.0898,-7.0898,-7.0898,-7.0898,-7.0898,-7.0956,-7.0994,-7.0994,-7.1052,-7.1091,-7.1091,-7.1052,-7.1052,-7.1168,-7.1033,-7.0898,-7.0898,-7.0898,-7.0898,-7.0898,-7.0898,-7.0898,-7.0898,-7.0898,-7.0898,-7.0898,-7.0898,-7.0898,-7.0898,-7.0898,-7.0898,-7.0898,-7.0898,-7.0898,-7.0898,-7.0898,-7.0898,-7.0898,-7.0898,-7.0898,-6.08,-6.08,-6.0757,-6.0578,-6.069,-6.0757,-6.0578,-6.069,-6.08,-6.08,-6.08,-6.08,-6.08,-6.08,-6.08,-6.08,-6.08,-6.08,0.0,-6.08,-6.08,-6.08,-6.08,-6.08,-6.08,-6.08,-6.08,-6.08,-6.08,-6.08,-6.08,-6.08,-6.08,-6.08,-6.1089,-6.1531,-6.2089,-6.3205,-6.4051,-6.4609,-6.5474,-6.5897,-6.5897,-6.5897,-6.5897,-6.5897,-6.5897,-6.5897,-6.5897,-6.5897,-6.5897,-6.5897,-6.5897,-6.5897,-6.5936,-6.6224,-6.7051,-6.8186,-6.9302,-7.0225,-7.0898,-7.0898,-7.0898,-7.0898,-7.0898,-7.0898,-7.0783,-7.0187,-7.0437,-7.0764,-7.0167,-7.0456,-7.0898,-7.0898,-7.0898,-7.0898,-7.0898,-7.0898,-7.0898,-7.0898,-7.0898,-7.0898,-7.0898,-7.0898,-7.0937,-7.1071,-7.0975,-7.0898,-7.0898,-7.0898,-7.0898,-7.0898,-7.0898,-7.0898,-7.0898,-7.0898,-7.0898,-7.0898,-7.0898,-7.0898,-7.0898,-7.0898,-7.0764,-7.0475,-7.0744,-7.0764,-7.0475,-7.0764,-7.0898,-7.0898,-7.0898,-7.0898]}]]